[[{"header":{"parameterUnit":"m.s-1","parameterCategory":1,"la1":30.6,"la2":28.766,"lo1":-90.7593,"lo2":-88.6598,"dy":0.0162,"dx":0.0183,"nx":116,"ny":114,"refTime":"2024-03-19T18:00:00:Z","depth":0,"parameterNumber":2,"parameterNumberName":"U-component_of_WINDS"},"data":[0.0,0.0,0.0,0.0,0.0,0.0,0.0,0.0,0.0,0.0,0.0,0.0,0.0,0.0,0.0,0.0,0.0,0.0,0.0,0.0,0.0,0.0,0.0,0.0,0.0,0.0,0.0,0.0,0.0,0.0,0.0,0.0,0.0,0.0,0.0,0.0,0.0,0.0,0.0,0.0,0.0,0.0,0.0,0.0,0.0,0.0,0.0,0.0,0.0,0.0,0.0,0.0,0.0,0.0,0.0,0.0,0.0,0.0,0.0,0.0,0.0,0.0,0.0,0.0,0.0,0.0,0.0,0.0,0.0,0.0,0.0,0.0,0.0,0.0,0.0,0.0,0.0,0.0,0.0,0.0,0.0,0.0,0.0,0.0,0.0,0.0,0.0,0.0,0.0,0.0,0.0,0.0,0.0,0.0,0.0,0.0,0.0,0.0,0.0,0.0,0.0,0.0,0.0,0.0,0.0,0.0,0.0,0.0,0.0,0.0,0.0,0.0,0.0,0.0,0.0,0.0,0.0,0.0,0.0,0.0,0.0,0.0,0.0,0.0,0.0,0.0,0.0,0.0,0.0,0.0,0.0,0.0,0.0,0.0,0.0,0.0,0.0,0.0,0.0,0.0,0.0,0.0,0.0,0.0,0.0,0.0,0.0,0.0,0.0,0.0,0.0,0.0,0.0,0.0,0.0,0.0,0.0,0.0,0.0,0.0,0.0,0.0,0.0,0.0,0.0,0.0,0.0,0.0,0.0,0.0,0.0,0.0,0.0,0.0,0.0,0.0,0.0,0.0,0.0,0.0,0.0,0.0,0.0,0.0,0.0,0.0,0.0,0.0,0.0,0.0,0.0,0.0,0.0,0.0,0.0,0.0,0.0,0.0,0.0,0.0,0.0,0.0,0.0,0.0,0.0,0.0,0.0,0.0,0.0,0.0,0.0,0.0,0.0,0.0,0.0,0.0,0.0,0.0,0.0,0.0,0.0,0.0,0.0,0.0,0.0,0.0,0.0,0.0,0.0,0.0,0.0,0.0,0.0,0.0,0.0,0.0,0.0,0.0,0.0,0.0,0.0,0.0,0.0,0.0,0.0,0.0,0.0,0.0,0.0,0.0,0.0,0.0,0.0,0.0,0.0,0.0,0.0,0.0,0.0,0.0,0.0,0.0,0.0,0.0,0.0,0.0,0.0,0.0,0.0,0.0,0.0,0.0,0.0,0.0,0.0,0.0,0.0,0.0,0.0,0.0,0.0,0.0,0.0,0.0,0.0,0.0,0.0,0.0,0.0,0.0,0.0,0.0,0.0,0.0,0.0,0.0,0.0,0.0,0.0,0.0,0.0,0.0,0.0,0.0,0.0,0.0,0.0,0.0,0.0,0.0,0.0,0.0,0.0,0.0,0.0,0.0,0.0,0.0,0.0,0.0,0.0,0.0,0.0,0.0,0.0,0.0,0.0,0.0,0.0,0.0,0.0,0.0,0.0,0.0,0.0,0.0,0.0,0.0,0.0,0.0,0.0,0.0,0.0,0.0,0.0,0.0,0.0,0.0,0.0,0.0,0.0,0.0,0.0,0.0,0.0,0.0,0.0,0.0,0.0,0.0,0.0,0.0,0.0,0.0,0.0,0.0,0.0,0.0,0.0,0.0,0.0,0.0,0.0,0.0,0.0,0.0,0.0,0.0,0.0,0.0,0.0,0.0,0.0,0.0,0.0,0.0,0.0,0.0,0.0,0.0,0.0,0.0,0.0,0.0,0.0,0.0,0.0,0.0,0.0,0.0,0.0,0.0,0.0,0.0,0.0,0.0,0.0,0.0,0.0,0.0,0.0,0.0,0.0,0.0,0.0,0.0,0.0,0.0,0.0,0.0,0.0,0.0,0.0,0.0,0.0,0.0,0.0,0.0,0.0,0.0,0.0,0.0,0.0,0.0,0.0,0.0,0.0,0.0,0.0,0.0,0.0,0.0,0.0,0.0,0.0,0.0,0.0,0.0,0.0,0.0,0.0,0.0,0.0,0.0,0.0,0.0,0.0,0.0,0.0,0.0,0.0,0.0,0.0,0.0,0.0,0.0,0.0,0.0,0.0,0.0,0.0,0.0,0.0,0.0,0.0,0.0,0.0,0.0,0.0,0.0,0.0,0.0,0.0,0.0,0.0,0.0,0.0,0.0,0.0,0.0,0.0,0.0,0.0,0.0,0.0,0.0,0.0,0.0,0.0,0.0,0.0,0.0,0.0,0.0,0.0,0.0,0.0,0.0,0.0,0.0,0.0,0.0,0.0,0.0,0.0,0.0,0.0,0.0,0.0,0.0,0.0,0.0,0.0,0.0,0.0,0.0,0.0,0.0,0.0,0.0,0.0,0.0,0.0,0.0,0.0,0.0,0.0,0.0,0.0,0.0,0.0,0.0,0.0,0.0,0.0,0.0,0.0,0.0,0.0,0.0,0.0,0.0,0.0,0.0,0.0,0.0,0.0,0.0,0.0,0.0,0.0,0.0,0.0,0.0,0.0,0.0,0.0,0.0,0.0,0.0,0.0,0.0,0.0,0.0,0.0,0.0,0.0,0.0,0.0,0.0,0.0,0.0,0.0,0.0,0.0,0.0,0.0,0.0,0.0,0.0,0.0,0.0,0.0,0.0,0.0,0.0,0.0,0.0,0.0,0.0,0.0,0.0,0.0,0.0,0.0,0.0,0.0,0.0,0.0,0.0,0.0,0.0,0.0,0.0,0.0,0.0,0.0,0.0,0.0,0.0,0.0,0.0,0.0,0.0,0.0,0.0,0.0,0.0,0.0,0.0,0.0,0.0,0.0,0.0,0.0,0.0,0.0,0.0,0.0,0.0,0.0,0.0,0.0,0.0,0.0,0.0,0.0,0.0,0.0,0.0,0.0,0.0,0.0,0.0,0.0,0.0,0.0,0.0,0.0,0.0,0.0,0.0,0.0,0.0,0.0,0.0,0.0,0.0,0.0,0.0,0.0,0.0,0.0,0.0,0.0,0.0,0.0,0.0,0.0,0.0,0.0,0.0,0.0,0.0,0.0,0.0,0.0,0.0,0.0,0.0,0.0,0.0,0.0,0.0,0.0,0.0,0.0,0.0,0.0,0.0,0.0,0.0,0.0,0.0,0.0,0.0,0.0,0.0,0.0,0.0,0.0,0.0,0.0,0.0,0.0,0.0,0.0,0.0,0.0,0.0,0.0,0.0,0.0,0.0,0.0,0.0,0.0,0.0,0.0,0.0,0.0,0.0,0.0,0.0,0.0,0.0,0.0,0.0,0.0,0.0,0.0,0.0,0.0,0.0,0.0,0.0,0.0,0.0,0.0,0.0,0.0,0.0,0.0,0.0,0.0,0.0,0.0,0.0,0.0,0.0,0.0,0.0,0.0,0.0,0.0,0.0,0.0,0.0,0.0,0.0,0.0,0.0,0.0,0.0,0.0,0.0,0.0,0.0,0.0,0.0,0.0,0.0,0.0,0.0,0.0,0.0,0.0,0.0,0.0,0.0,0.0,0.0,0.0,0.0,0.0,0.0,0.0,0.0,0.0,0.0,0.0,0.0,0.0,0.0,0.0,0.0,0.0,0.0,0.0,0.0,0.0,0.0,0.0,0.0,0.0,0.0,0.0,0.0,0.0,0.0,0.0,0.0,0.0,0.0,0.0,0.0,0.0,0.0,0.0,0.0,0.0,0.0,0.0,0.0,0.0,0.0,0.0,0.0,0.0,0.0,0.0,0.0,0.0,0.0,0.0,0.0,0.0,0.0,0.0,0.0,0.0,0.0,0.0,0.0,0.0,0.0,0.0,0.0,0.0,0.0,0.0,0.0,0.0,0.0,0.0,0.0,0.0,0.0,0.0,0.0,0.0,0.0,0.0,0.0,0.0,0.0,0.0,0.0,0.0,0.0,0.0,0.0,0.0,0.0,0.0,0.0,0.0,0.0,0.0,0.0,0.0,0.0,0.0,0.0,0.0,0.0,0.0,0.0,0.0,0.0,0.0,0.0,0.0,0.0,0.0,0.0,0.0,0.0,0.0,0.0,0.0,0.0,0.0,0.0,0.0,0.0,0.0,0.0,0.0,0.0,0.0,0.0,0.0,0.0,0.0,0.0,0.0,0.0,0.0,0.0,0.0,0.0,0.0,0.0,0.0,0.0,0.0,0.0,0.0,0.0,0.0,0.0,0.0,0.0,0.0,0.0,0.0,0.0,0.0,0.0,0.0,0.0,0.0,0.0,0.0,0.0,0.0,0.0,0.0,0.0,0.0,0.0,0.0,0.0,0.0,0.0,0.0,0.0,0.0,0.0,0.0,0.0,0.0,0.0,0.0,0.0,0.0,0.0,0.0,0.0,0.0,0.0,0.0,0.0,0.0,0.0,0.0,0.0,0.0,0.0,0.0,0.0,0.0,0.0,0.0,0.0,0.0,0.0,0.0,0.0,0.0,0.0,0.0,0.0,0.0,0.0,0.0,0.0,0.0,0.0,0.0,0.0,0.0,0.0,0.0,0.0,0.0,0.0,0.0,0.0,0.0,0.0,0.0,0.0,0.0,0.0,0.0,0.0,0.0,0.0,0.0,0.0,0.0,0.0,0.0,0.0,0.0,0.0,0.0,0.0,0.0,0.0,0.0,0.0,0.0,0.0,0.0,0.0,0.0,0.0,0.0,0.0,0.0,0.0,0.0,0.0,0.0,0.0,0.0,0.0,0.0,0.0,0.0,0.0,0.0,0.0,0.0,0.0,0.0,0.0,0.0,0.0,0.0,0.0,0.0,0.0,0.0,0.0,0.0,0.0,0.0,0.0,0.0,0.0,0.0,0.0,0.0,0.0,0.0,0.0,0.0,0.0,0.0,0.0,0.0,0.0,0.0,0.0,0.0,0.0,0.0,0.0,0.0,0.0,0.0,0.0,0.0,0.0,0.0,0.0,0.0,0.0,0.0,0.0,0.0,0.0,0.0,0.0,0.0,0.0,0.0,0.0,0.0,0.0,0.0,0.0,0.0,0.0,0.0,0.0,0.0,0.0,0.0,0.0,0.0,0.0,0.0,0.0,0.0,0.0,0.0,0.0,0.0,0.0,0.0,0.0,0.0,0.0,0.0,0.0,0.0,0.0,0.0,0.0,0.0,0.0,0.0,0.0,0.0,0.0,0.0,0.0,0.0,0.0,0.0,0.0,0.0,0.0,0.0,0.0,0.0,0.0,0.0,0.0,0.0,0.0,0.0,0.0,0.0,0.0,0.0,0.0,0.0,0.0,0.0,0.0,0.0,0.0,0.0,0.0,0.0,0.0,0.0,0.0,0.0,0.0,0.0,0.0,0.0,0.0,0.0,0.0,0.0,0.0,0.0,0.0,0.0,0.0,0.0,0.0,0.0,0.0,0.0,0.0,0.0,0.0,0.0,0.0,0.0,0.0,0.0,0.0,0.0,0.0,0.0,0.0,0.0,0.0,0.0,0.0,0.0,0.0,0.0,0.0,0.0,0.0,0.0,0.0,0.0,0.0,0.0,0.0,0.0,0.0,0.0,0.0,0.0,0.0,0.0,0.0,0.0,0.0,0.0,0.0,0.0,0.0,0.0,0.0,0.0,0.0,0.0,0.0,0.0,0.0,0.0,0.0,0.0,0.0,0.0,0.0,0.0,0.0,0.0,0.0,0.0,0.0,0.0,0.0,0.0,0.0,0.0,0.0,0.0,0.0,0.0,0.0,0.0,0.0,0.0,0.0,0.0,0.0,0.0,0.0,0.0,0.0,0.0,0.0,0.0,0.0,0.0,0.0,0.0,0.0,0.0,0.0,0.0,0.0,0.0,0.0,0.0,0.0,0.0,0.0,0.0,0.0,0.0,0.0,0.0,0.0,0.0,0.0,0.0,0.0,0.0,0.0,0.0,0.0,0.0,0.0,0.0,0.0,0.0,0.0,0.0,0.0,0.0,0.0,0.0,0.0,0.0,0.0,0.0,0.0,0.0,0.0,0.0,0.0,0.0,0.0,0.0,0.0,0.0,0.0,0.0,0.0,0.0,0.0,0.0,0.0,0.0,0.0,0.0,0.0,0.0,0.0,0.0,0.0,0.0,0.0,0.0,0.0,0.0,0.0,0.0,0.0,0.0,0.0,0.0,0.0,-3.3707,0.0,0.0,0.0,0.0,0.0,0.0,0.0,0.0,0.0,0.0,0.0,0.0,0.0,0.0,0.0,0.0,0.0,0.0,0.0,0.0,0.0,0.0,0.0,0.0,0.0,0.0,0.0,-1.5316,-1.5303,-1.5349,-1.5291,-1.5287,-1.5349,-1.539,-1.5395,-1.5408,-1.5335,-1.5331,-1.5401,-1.6597,-1.8503,-2.1008,-2.0107,-1.8924,-1.7535,0.0,0.0,0.0,0.0,0.0,0.0,0.0,0.0,0.0,0.0,0.0,0.0,0.0,0.0,0.0,0.0,0.0,0.0,0.0,0.0,0.0,0.0,0.0,0.0,0.0,0.0,0.0,0.0,0.0,0.0,0.0,0.0,0.0,0.0,0.0,0.0,0.0,0.0,0.0,0.0,0.0,0.0,0.0,0.0,0.0,0.0,0.0,0.0,0.0,0.0,0.0,0.0,0.0,0.0,0.0,0.0,0.0,0.0,0.0,0.0,0.0,0.0,0.0,0.0,0.0,0.0,0.0,0.0,0.0,0.0,0.0,-3.4037,0.0,0.0,0.0,0.0,0.0,0.0,0.0,0.0,0.0,0.0,0.0,0.0,0.0,0.0,0.0,0.0,0.0,0.0,0.0,0.0,0.0,0.0,0.0,-1.5329,-1.5368,-1.5382,-1.5323,-1.5326,-1.5407,-1.5345,-1.5338,-1.5407,-1.5395,-1.541,-1.5405,-1.5334,-1.5549,-1.6057,-1.9088,-2.1543,-2.3441,-2.3586,-2.2326,0.0,0.0,0.0,0.0,0.0,0.0,0.0,0.0,0.0,0.0,0.0,0.0,0.0,0.0,0.0,0.0,0.0,0.0,0.0,0.0,0.0,0.0,0.0,0.0,0.0,0.0,0.0,0.0,0.0,0.0,0.0,0.0,0.0,0.0,0.0,0.0,0.0,0.0,0.0,0.0,0.0,0.0,0.0,0.0,0.0,0.0,0.0,0.0,0.0,0.0,0.0,0.0,0.0,0.0,0.0,0.0,0.0,0.0,0.0,0.0,0.0,0.0,0.0,0.0,0.0,-3.7401,-3.7356,-3.7652,-3.6976,-3.772,-3.9405,-3.7313,-3.7005,-3.7801,-3.4731,0.0,0.0,0.0,0.0,0.0,0.0,0.0,0.0,0.0,0.0,0.0,0.0,0.0,0.0,0.0,0.0,0.0,0.0,0.0,0.0,0.0,-1.519,-1.5245,-1.5309,-1.5311,-1.533,-1.5407,-1.5336,-1.5329,-1.5405,-1.5407,-1.541,-1.5405,-1.5329,-1.6421,-1.8698,-2.3583,-2.5698,-2.5196,-2.5946,-2.5522,-2.4037,0.0,0.0,0.0,0.0,0.0,0.0,0.0,0.0,0.0,0.0,0.0,0.0,0.0,0.0,0.0,0.0,0.0,0.0,0.0,0.0,0.0,0.0,0.0,0.0,0.0,0.0,0.0,0.0,0.0,0.0,0.0,0.0,0.0,0.0,0.0,0.0,0.0,0.0,0.0,0.0,0.0,0.0,0.0,0.0,-3.4029,-3.4694,0.0,0.0,0.0,0.0,0.0,0.0,0.0,0.0,0.0,0.0,0.0,0.0,0.0,-3.5565,-3.6699,-3.9611,-4.0591,-3.9699,-4.2205,-4.2919,-4.1954,-4.1575,-4.1934,-4.2763,-4.1071,0.0,-3.8493,-3.7342,0.0,0.0,0.0,0.0,0.0,0.0,0.0,0.0,0.0,0.0,0.0,0.0,0.0,0.0,0.0,0.0,0.0,0.0,0.0,0.0,0.0,-1.6433,-1.6925,-1.7854,-1.8037,-1.7725,-1.6814,-1.6717,-1.6301,-1.5376,-1.537,-1.5384,-1.5331,-1.6238,-1.8721,-2.2803,-2.5618,-2.7469,-2.8376,-2.8763,-2.8461,-2.7551,-2.6805,-2.4623,-2.1482,-2.0873,0.0,0.0,0.0,0.0,0.0,0.0,0.0,0.0,0.0,0.0,0.0,0.0,0.0,0.0,0.0,0.0,0.0,0.0,0.0,0.0,0.0,0.0,0.0,0.0,0.0,0.0,0.0,0.0,0.0,0.0,0.0,0.0,0.0,0.0,0.0,0.0,0.0,0.0,0.0,-3.21,-3.3529,-3.2867,-3.2081,-3.0621,0.0,0.0,0.0,0.0,0.0,0.0,0.0,0.0,0.0,-3.6964,-3.743,-3.8719,-4.095,-4.2275,-4.2909,-4.2883,-4.3811,-4.3764,-4.2776,-4.2447,-4.2249,-4.2121,-4.1423,-4.0708,-3.9918,-3.8193,-3.6174,-3.3972,0.0,0.0,0.0,0.0,-3.0089,-3.0445,0.0,0.0,0.0,0.0,0.0,0.0,0.0,0.0,0.0,0.0,0.0,0.0,-1.6842,-1.7583,-1.8506,-1.9783,-2.0106,-1.9746,-1.8535,-1.8476,-1.7926,-1.6652,-1.623,-1.6183,-1.656,-1.8459,-2.1357,-2.5266,-2.6615,-2.8207,-2.9964,-2.9946,-2.9611,-2.9055,-2.9281,-2.7379,-2.3952,-2.3401,-2.1786,0.0,0.0,0.0,0.0,0.0,0.0,0.0,0.0,0.0,0.0,0.0,0.0,0.0,0.0,0.0,0.0,0.0,0.0,0.0,0.0,0.0,0.0,0.0,0.0,0.0,0.0,0.0,0.0,0.0,0.0,0.0,0.0,0.0,0.0,0.0,0.0,0.0,0.0,-3.3392,-3.4406,-3.246,-3.3555,-3.2752,0.0,0.0,0.0,0.0,0.0,0.0,-3.5398,-3.5563,-3.7049,-4.0177,-4.0469,-4.1777,-4.4278,-4.4269,-4.4531,-4.5096,-4.4229,-4.3463,-4.2768,-4.2226,-4.1552,-4.0799,-4.0799,-4.0561,-4.0084,-3.867,-3.7386,-3.6083,-3.4027,-3.3091,-3.2771,-3.1837,-3.1456,-3.1643,0.0,0.0,0.0,0.0,0.0,0.0,0.0,0.0,0.0,0.0,0.0,-1.6185,-1.633,-1.7945,-1.9184,-1.959,-1.9927,-2.0166,-2.0253,-2.0339,-2.0298,-2.0154,-1.8556,-1.8422,-2.0018,-2.2553,-2.4047,-2.4366,-2.6849,-2.8112,-2.8226,-2.8158,-2.7832,-2.7355,-2.8112,-2.7718,-2.6408,-2.6118,-2.4415,-2.1777,0.0,0.0,0.0,0.0,0.0,0.0,0.0,0.0,0.0,0.0,0.0,0.0,0.0,0.0,0.0,0.0,0.0,0.0,0.0,0.0,0.0,0.0,0.0,0.0,0.0,0.0,0.0,0.0,0.0,0.0,0.0,0.0,0.0,0.0,0.0,0.0,0.0,0.0,0.0,-3.6966,-3.8965,0.0,0.0,0.0,0.0,-3.3262,-3.4036,-3.5572,-3.7988,-3.8763,-4.0294,-4.2816,-4.3643,-4.4124,-4.4297,-4.5105,-4.5381,-4.5096,-4.388,-4.3152,-4.275,-4.1654,-4.0726,-3.9955,-3.9955,-3.9074,-3.7771,-3.9184,-3.8395,-3.6211,-3.5257,-3.3054,-3.065,-3.2845,-3.2177,-3.0525,0.0,0.0,0.0,0.0,0.0,0.0,0.0,0.0,-1.4147,-1.4847,-1.5222,-1.6166,-1.8097,-1.931,-2.0533,-2.1878,-2.2597,-2.2656,-2.187,-2.1922,-2.1014,-1.8824,-1.9036,-1.9995,-2.1684,-2.3221,-2.4632,-2.5916,-2.7418,-2.8142,-2.809,-2.8087,-2.7769,-2.7204,-2.7506,-2.7121,-2.6309,-2.7007,-2.5882,-2.3513,-2.2078,-2.0026,0.0,0.0,0.0,0.0,0.0,0.0,0.0,0.0,0.0,0.0,0.0,0.0,0.0,0.0,0.0,0.0,0.0,0.0,0.0,0.0,0.0,0.0,0.0,0.0,0.0,0.0,0.0,0.0,0.0,0.0,0.0,0.0,0.0,0.0,0.0,0.0,0.0,-3.7318,-3.9369,0.0,-3.4995,-3.6091,-3.6979,-3.6758,-3.8485,-4.0407,-4.2382,-4.2597,-4.3344,-4.4791,-4.5035,-4.5143,-4.5143,-4.4893,-4.4705,-4.4575,-4.3359,-4.2082,-4.0791,-4.0114,-3.9003,-3.7569,-3.7569,-3.7257,-3.6762,-3.7349,-3.7074,-3.6211,-3.5349,-3.4651,-3.4128,-3.412,-3.3683,-3.314,0.0,0.0,0.0,0.0,0.0,0.0,0.0,0.0,-1.3718,-1.4767,-1.5101,-1.6104,-1.8411,-1.9803,-2.115,-2.2594,-2.3626,-2.3785,-2.2837,-2.2712,-2.1554,-1.8986,-2.0088,-2.1249,-2.2343,-2.3626,-2.4913,-2.626,-2.6926,-2.7246,-2.722,-2.7129,-2.6843,-2.6393,-2.6493,-2.6225,-2.5749,-2.6445,-2.5985,-2.4679,-2.3338,-2.1516,-1.9512,0.0,0.0,0.0,0.0,0.0,0.0,0.0,0.0,0.0,0.0,0.0,0.0,0.0,0.0,0.0,0.0,0.0,0.0,0.0,0.0,0.0,0.0,0.0,0.0,0.0,0.0,0.0,0.0,0.0,0.0,0.0,0.0,0.0,0.0,0.0,-3.9935,-3.7318,-4.033,-4.0818,-3.6228,-3.8429,-3.995,-3.9447,-4.1227,-4.2809,-4.3899,-4.4114,-4.4547,-4.5331,-4.4993,-4.4903,-4.5163,-4.4316,-4.3893,-4.3874,-4.2393,-4.1049,-3.9797,-3.8771,-3.7458,-3.603,-3.6213,-3.5973,-3.5459,-3.5459,-3.5293,-3.5073,-3.5349,-3.5624,-3.576,-3.4866,-3.4163,-3.3458,0.0,0.0,0.0,0.0,0.0,0.0,0.0,-1.3093,-1.2955,-1.3757,-1.4898,-1.598,-1.7034,-1.9165,-2.0809,-2.1479,-2.2616,-2.3223,-2.3039,-2.2661,-2.2026,-2.1051,-2.1741,-2.2154,-2.2162,-2.4005,-2.505,-2.5193,-2.5301,-2.5391,-2.5454,-2.5186,-2.4965,-2.4756,-2.5023,-2.5035,-2.4792,-2.4452,-2.4675,-2.5124,-2.3742,-2.3014,-2.2532,0.0,0.0,0.0,0.0,0.0,0.0,0.0,0.0,0.0,0.0,0.0,0.0,0.0,0.0,0.0,0.0,0.0,0.0,0.0,0.0,0.0,0.0,0.0,0.0,0.0,0.0,0.0,0.0,0.0,0.0,0.0,0.0,0.0,-3.6852,-3.9176,-3.9896,-3.7522,-4.2283,-4.3819,-3.8896,-4.1526,-4.2841,-4.1172,-4.1888,-4.2379,-4.2342,-4.3138,-4.387,-4.4453,-4.3634,-4.3535,-4.4256,-4.3431,-4.3028,-4.2989,-4.0997,-4.0005,-3.9909,-3.7681,-3.6224,-3.5479,-3.6012,-3.5293,-3.3807,-3.377,-3.3311,-3.2852,-3.522,-3.5642,-3.488,-3.488,-3.3375,-3.1108,0.0,0.0,0.0,0.0,0.0,0.0,0.0,-1.2383,-1.2216,-1.333,-1.3289,-1.3908,-1.5845,-1.6763,-1.7922,-1.9644,-2.0808,-2.1383,-2.1218,-2.1439,-2.1362,-2.0954,-2.1134,-2.1953,-2.3454,-2.415,-2.4701,-2.5138,-2.4727,-2.4538,-2.4556,-2.4381,-2.4129,-2.3875,-2.419,-2.3916,-2.3175,-2.2462,-2.2021,-2.1895,-2.2459,-2.2294,-2.1548,0.0,0.0,0.0,0.0,0.0,0.0,0.0,0.0,0.0,0.0,0.0,0.0,0.0,0.0,0.0,0.0,0.0,0.0,0.0,0.0,0.0,0.0,0.0,0.0,0.0,0.0,0.0,0.0,0.0,0.0,0.0,-3.3583,-3.6338,-3.8412,-4.0985,-4.2597,-4.2457,-4.3865,-4.3833,-4.1222,-4.1877,-4.2311,-4.1968,-4.2181,-4.2611,-4.3279,-4.3489,-4.3685,-4.3838,-4.3421,-4.3299,-4.351,-4.199,-4.12,-4.1181,-3.9407,-3.8142,-3.7317,-3.6493,-3.5552,-3.4548,-3.4518,-3.4229,-3.3752,-3.3183,-3.2816,-3.2614,-3.2706,-3.2596,-3.2394,-3.2394,-3.1419,-2.9922,0.0,0.0,0.0,0.0,0.0,0.0,0.0,-1.1625,-1.1286,-1.2282,-1.1914,-1.2076,-1.3572,-1.4498,-1.5577,-1.6903,-1.7994,-1.8616,-1.8579,-1.8694,0.0,0.0,0.0,-2.1419,-2.3368,-2.3914,-2.4211,-2.4251,-2.4161,-2.3962,-2.3649,-2.3469,-2.3188,-2.2839,-2.3051,-2.2574,-2.1552,-2.1038,-2.0431,-1.9832,-2.0144,-2.045,-2.0709,-2.0269,-2.0026,-1.9929,-1.9894,-2.0017,-2.0338,-2.0993,0.0,0.0,0.0,0.0,0.0,0.0,0.0,0.0,0.0,0.0,0.0,0.0,0.0,0.0,0.0,0.0,0.0,0.0,0.0,0.0,0.0,0.0,0.0,0.0,-3.5155,-3.7506,-4.0056,-4.1795,-4.3111,-4.3865,-4.3943,-4.3385,-4.2058,-4.197,-4.1895,-4.1653,-4.1379,-4.1615,-4.2511,-4.1892,-4.181,-4.2494,-4.1641,-4.1325,-4.1609,-4.0198,-3.9466,-3.9431,-3.7757,-3.6603,-3.5924,-3.4942,-3.4072,-3.335,-3.3091,-3.2907,-3.2724,-3.1935,-3.1604,0.0,0.0,0.0,0.0,0.0,-2.9486,-2.8458,0.0,0.0,0.0,0.0,0.0,0.0,0.0,-1.0872,-1.0282,-1.1016,-1.0608,-1.0438,-1.0895,-1.2399,-1.3437,-1.3674,-1.4772,-1.5536,-1.5722,-1.5571,0.0,-1.9108,-1.9738,-2.0747,-2.2349,-2.3325,-2.3584,-2.3086,-2.3544,-2.3441,-2.2803,-2.2494,-2.2138,-2.1753,-2.1749,-2.1078,-1.989,-1.9696,-1.9015,-1.8004,-1.7084,-1.7932,-1.9763,-1.9432,-1.9371,-1.9447,-1.9472,-1.9875,-2.0655,-2.2026,0.0,0.0,0.0,0.0,0.0,0.0,0.0,0.0,0.0,0.0,0.0,0.0,0.0,0.0,0.0,0.0,0.0,0.0,0.0,0.0,0.0,0.0,0.0,0.0,-3.693,-3.895,-4.12,-4.1619,-4.2034,-4.2925,-4.295,-4.2571,-4.1706,-4.1629,-4.1332,-4.0571,-3.9894,-3.9872,-4.0664,0.0,0.0,0.0,0.0,-3.8624,-3.9116,-3.8252,-3.7738,-3.7546,-3.5968,-3.5218,-3.5147,-3.3299,-3.2364,-3.2222,-3.1925,-3.1658,-3.136,-3.0478,-2.9995,-2.9879,-3.0668,-3.0503,-2.9648,-2.859,-2.7748,-2.7085,0.0,0.0,0.0,0.0,0.0,0.0,0.0,-1.0403,-0.9849,-1.0484,-0.9226,-0.8753,-1.0009,-1.0363,-1.0655,-1.1075,-1.2605,-1.3859,-1.4564,0.0,-1.6367,-1.7272,-1.9152,-2.0448,-2.1045,-2.215,-2.2794,-2.2934,-2.2623,-2.2391,-2.225,-2.165,-2.1206,-2.0921,-2.043,-1.9458,-1.8015,-1.6725,-1.5192,-1.3613,-1.36,-1.5269,-1.7772,-1.7777,-1.8029,-1.8591,-1.9548,-2.0237,-2.0914,-2.2086,-2.2748,-2.3253,-2.4404,0.0,0.0,0.0,0.0,0.0,0.0,0.0,0.0,0.0,0.0,0.0,0.0,0.0,0.0,0.0,0.0,0.0,0.0,0.0,0.0,-3.4334,-3.7046,-3.9219,-3.97,-3.9807,-4.0376,-4.1898,-4.1815,-4.1323,-4.052,-3.9831,-3.9399,-3.9341,-3.8814,-3.8607,-3.8889,-3.8606,-3.8625,-3.9041,-3.8632,-3.8093,-3.7471,-3.6561,-3.5689,-3.4911,0.0,0.0,-3.3378,-3.2602,-3.233,-3.2414,-3.2008,-3.1771,-3.1593,-3.0166,-2.8667,-2.7383,-2.8172,-2.8007,-2.727,-2.7043,-2.6856,-2.6596,0.0,0.0,0.0,0.0,0.0,0.0,0.0,-1.0336,-0.9313,-0.9086,-0.7721,-0.6866,-0.7009,-0.7652,-0.8188,-0.838,-1.0199,-1.179,0.0,-1.3908,-1.5101,-1.6496,-1.8104,-1.8928,-1.8811,-2.0353,-2.0776,-2.0012,-2.0466,-2.0533,-2.0127,-1.6592,-1.6744,-1.975,-1.3991,-1.1573,-1.1762,-1.0335,-0.9112,-0.8139,-0.7948,-0.9819,-1.2984,-1.5077,-1.6275,-1.6991,-1.8234,-1.9046,-1.9863,-2.2261,-2.3474,-2.4283,-2.5948,-2.6745,-2.6964,0.0,0.0,0.0,0.0,0.0,0.0,0.0,0.0,0.0,0.0,0.0,0.0,0.0,0.0,-3.0711,-3.0613,0.0,-3.4075,-3.5264,-3.7257,-3.8642,-3.8642,-3.8642,-3.8919,-3.961,-3.9545,-3.9242,-3.8686,-3.8248,-3.789,-3.7663,-3.7049,-3.6792,-3.6995,-3.627,-3.6074,-3.6576,-3.6131,-3.5656,-3.5159,-3.4685,-3.4154,-3.3597,-3.2748,-3.2097,-3.1628,-3.1403,-3.0818,-3.0022,-3.0217,-2.9983,-2.9438,-2.8519,-2.736,-2.6168,-2.6491,-2.6594,-2.6557,-2.6153,-2.5988,-2.5933,0.0,0.0,0.0,0.0,0.0,0.0,0.0,-1.0587,-0.9257,-0.8439,-0.7205,-0.6052,-0.524,-0.6227,-0.6896,-0.6722,-0.8562,0.0,0.0,-1.2404,-1.3969,-1.5917,-1.6749,-1.6862,-1.6223,-1.7731,-1.7696,-1.6035,-1.6763,-1.6731,-1.5844,-0.9985,-1.0234,-1.5158,-0.5889,-0.2598,-0.3956,-0.2789,-0.1988,-0.1517,-0.1165,-0.2773,-0.5761,-0.9234,-1.2426,-1.5169,-1.6348,-1.7243,-1.8375,-2.1814,-2.3772,-2.5194,-2.7197,-2.8167,-2.8275,-2.6687,-2.7206,0.0,0.0,0.0,0.0,0.0,0.0,0.0,0.0,0.0,-2.8802,-3.0612,-3.0953,-3.1255,-3.2399,-3.3237,-3.441,-3.6372,-3.743,-3.795,-3.7777,-3.7603,-3.7337,-3.684,-3.7223,-3.7338,-3.6901,-3.6729,-3.6436,-3.5932,-3.5143,-3.4796,-3.5009,-3.392,-3.359,-3.4309,-3.3725,-3.328,-3.3051,-3.3021,-3.2861,-3.2493,-3.1671,-3.0877,-3.014,-2.9932,-2.9015,-2.7612,-2.8259,-2.7941,-2.6933,-2.6765,-2.6172,-2.5393,-2.5223,-2.5548,-2.6062,-2.5401,-2.5182,-2.5182,0.0,0.0,0.0,0.0,0.0,0.0,0.0,0.0,-1.0502,-1.0618,-0.9119,-0.8173,-0.8595,-0.8566,-0.8317,-0.7762,0.0,0.0,-1.0482,-1.2557,-1.4103,-1.4835,-1.4856,-1.4541,-1.379,-1.3596,-1.3065,-1.2232,-1.0289,-0.8782,-0.7541,-0.3617,-0.1945,-0.2092,0.1517,0.3194,0.3379,0.4465,0.5701,0.6866,0.6277,0.5659,0.4999,0.3866,-0.3471,-1.3367,-1.4584,-1.5713,-1.7103,-1.9698,-2.2023,-2.4296,-2.6778,-2.7995,-2.8222,-2.6728,0.0,-2.6061,-2.3695,-2.506,0.0,-3.0739,-3.084,-3.1474,0.0,0.0,-3.4156,-3.5962,-3.6329,-3.6099,-3.533,-3.5891,-3.6513,-3.667,-3.743,-3.7738,-3.6949,-3.6238,-3.53,-3.4017,-3.5794,-3.6764,-3.5797,-3.4979,-3.4512,-3.4423,-3.3468,-3.2929,-3.301,-3.3084,-3.3219,-3.3448,-3.3356,-3.2947,-3.214,-3.2094,-3.1631,-3.077,-2.9843,-2.9355,-2.9217,-2.8256,-2.7835,-2.7857,-2.7701,-2.7063,-2.6114,-2.5923,-2.5245,-2.4375,-2.4337,-2.4392,-2.4465,-2.4373,-2.4318,-2.4318,0.0,0.0,0.0,0.0,0.0,0.0,0.0,0.0,0.0,-1.1061,-0.9704,-0.872,-0.8631,-0.8139,-0.7605,-0.7125,0.0,0.0,-0.9437,-1.1422,-1.2689,-1.2984,-1.2905,-1.2016,-1.012,-0.9856,-0.857,-0.6118,-0.5032,-0.3842,-0.2488,0.37,0.6424,0.6271,1.112,1.362,1.417,1.3421,1.3204,1.3409,1.3103,1.2973,1.2931,1.246,0.8875,0.3041,-0.4928,-0.8574,0.0,0.0,-1.8104,-2.0996,-2.2477,-2.4408,-2.5905,-2.4805,-2.5264,0.0,-2.7056,0.0,0.0,0.0,-3.1899,-3.2563,-3.4911,-3.422,-3.3682,-3.5962,-3.6259,-3.5954,-3.5465,-3.5893,-3.6198,0.0,-3.6058,-3.6048,-3.5359,-3.4122,-3.2967,-3.2107,-3.2883,-3.3212,-3.2487,-3.2083,-3.1747,-3.1421,-3.0996,-3.0646,-3.0445,-3.0579,-3.0741,-3.0911,-3.1024,-3.114,-3.1249,-3.0793,-3.0338,-2.9855,-2.8958,-2.821,-2.7659,-2.7708,-2.7516,-2.7121,-2.6488,-2.5979,-2.5538,-2.4869,-2.4346,-2.3915,-2.3276,-2.3042,-2.314,-2.3916,-2.419,-2.4135,0.0,0.0,0.0,0.0,0.0,0.0,0.0,0.0,0.0,0.0,-1.0688,-0.9761,-0.9034,-0.8362,-0.767,0.0,0.0,0.0,0.0,-1.02,-1.1223,-1.1778,-1.118,-0.9562,-0.6833,-0.5808,-0.3525,0.0045,0.1469,0.2881,0.4483,1.1388,1.4283,1.3979,1.9039,2.1532,2.1856,2.0407,1.9526,1.9091,1.9083,1.9121,1.9085,1.8383,1.7509,1.5305,0.4905,-0.1413,0.0,0.0,-1.4632,-1.8146,-1.9003,-2.1157,-2.3222,-2.256,-2.3221,-2.4783,-2.7707,0.0,0.0,-3.0874,-3.2249,-3.3083,-3.3223,-3.2797,-3.2912,-3.4776,-3.4865,-3.4599,-3.4621,-3.485,-3.4919,-3.4529,-3.4508,-3.4287,-3.3508,-3.2212,-3.118,-3.0774,-3.0428,-2.9983,-2.9341,-2.9651,-2.9623,-2.901,-2.8795,-2.8614,-2.8369,-2.8479,-2.8634,-2.8853,-2.9031,-2.94,-2.9994,-2.9472,-2.9164,-2.906,-2.8179,-2.7355,-2.6632,-2.7006,-2.6832,-2.6197,-2.5351,-2.4947,-2.48,-2.3831,-2.3419,-2.3284,-2.2507,-2.2195,-2.2318,-2.3295,-2.3656,-2.3563,0.0,0.0,0.0,0.0,0.0,0.0,0.0,0.0,0.0,0.0,0.0,0.0,0.0,0.0,0.0,0.0,0.0,0.0,0.0,-0.9275,-1.0084,-1.1729,-0.9857,-0.7437,-0.4491,-0.1139,0.2263,0.5751,1.0127,1.3284,1.5311,1.9267,2.141,2.2021,2.3761,2.4284,2.3822,2.4026,2.4106,2.4081,2.4091,2.3887,2.341,2.1576,1.9547,1.7084,1.2721,0.0,0.0,0.0,-1.2452,-1.6685,-1.7881,-1.9386,0.0,-2.0375,-1.9926,0.0,0.0,0.0,-2.6893,-2.9815,-3.189,-3.3229,-3.3355,-3.3379,-3.3335,-3.3287,-3.3072,-3.2941,-3.3127,-3.302,-3.2881,-3.2885,-3.3023,-3.2751,-3.1562,-3.0848,-3.0337,-3.0052,-2.9112,-2.8084,0.0,-2.8233,-2.8705,-2.7919,-2.7303,-2.7062,-2.7242,-2.749,-2.7746,-2.8028,-2.8119,-2.8188,-2.8279,-2.8257,-2.8232,-2.8229,-2.7279,-2.6799,-2.6668,-2.5784,-2.536,-2.5284,-2.4485,-2.4033,-2.3778,-2.2909,-2.2412,-2.2246,-2.2214,-2.2195,-2.2195,-2.2238,-2.2257,-2.2257,0.0,0.0,0.0,0.0,0.0,0.0,0.0,0.0,0.0,0.0,0.0,0.0,0.0,0.0,0.0,0.0,0.0,0.0,0.0,-0.8401,-0.9079,-0.9454,-0.8063,-0.5711,-0.2364,0.1463,0.5424,0.9508,1.331,1.6126,1.8017,2.1149,2.2769,2.3152,2.4555,2.5359,2.5707,2.5839,2.6113,2.644,2.5907,2.5047,2.3855,2.1972,1.8499,1.4154,0.0,0.0,0.0,0.0,-1.0164,-1.4015,-1.3605,0.0,0.0,-1.8228,-1.9352,-2.0933,0.0,0.0,-2.8213,-3.0636,-3.2213,-3.3234,-3.3376,-3.3398,-3.3199,-3.2469,-3.1456,-3.0465,-2.9719,-2.9642,-2.9693,-2.9741,-3.048,-3.0974,-3.0716,-2.9761,-2.9204,-2.955,-2.8765,0.0,0.0,0.0,0.0,-2.6284,-2.6016,-2.6061,-2.6384,-2.6477,-2.6702,-2.7065,-2.7137,-2.7484,-2.813,-2.7602,-2.7343,-2.7337,-2.6392,-2.5629,-2.5032,-2.4701,-2.425,-2.3694,-2.3366,-2.3198,-2.3074,-2.2202,-2.1817,-2.1739,-2.1178,-2.0947,-2.0943,-2.0948,-2.0929,-2.0985,0.0,0.0,0.0,0.0,0.0,0.0,0.0,0.0,0.0,0.0,0.0,0.0,0.0,0.0,0.0,0.0,0.0,0.0,0.0,0.0,-0.7052,-0.7257,-0.5808,-0.3464,-0.0048,0.3549,0.7503,1.1844,1.5311,1.8019,1.9908,2.2351,2.3865,2.4562,2.5387,2.6259,2.7058,2.6401,2.6275,2.6392,2.5149,2.4022,2.2839,2.0457,1.6435,0.0,0.0,0.0,0.0,0.0,0.0,0.0,-1.1454,-1.3469,-1.6236,-1.7089,-1.8813,-2.0927,-2.3125,-2.5669,-2.8196,-3.0191,-3.1239,-3.1753,-3.1582,-3.1562,-3.1344,-3.0565,-2.9158,-2.7799,-2.696,-2.7085,-2.7063,-2.6382,-2.7656,-2.8616,-2.8294,-2.7604,-2.7494,-2.8524,-2.8207,-2.7827,0.0,0.0,0.0,-2.5495,-2.5403,-2.543,-2.5461,-2.5458,-2.5655,-2.6017,-2.61,-2.644,-2.7136,-2.6665,-2.644,-2.6456,-2.5525,-2.4779,-2.4226,-2.3917,-2.3469,-2.2914,-2.2559,-2.2415,-2.2337,-2.1468,-2.1133,-2.1117,-2.0547,-2.0346,-2.0346,-2.0334,-2.0134,-1.9908,0.0,0.0,0.0,0.0,0.0,0.0,0.0,0.0,0.0,0.0,0.0,0.0,0.0,0.0,0.0,0.0,0.0,0.0,0.0,0.0,0.0,-0.5194,-0.3337,-0.0822,0.238,0.5131,0.8592,1.2812,1.6396,1.917,2.1114,2.2976,2.465,2.6135,2.613,2.6747,2.7609,2.577,2.4786,2.4282,2.2322,2.1308,2.0623,1.7394,0.0,0.0,0.0,0.0,0.0,0.0,0.0,0.0,0.0,-1.3277,-1.5327,-1.6919,-1.8279,-2.005,-2.3789,-2.5625,-2.6894,-2.8478,-2.9055,-2.9031,-2.8355,-2.8238,-2.814,-2.7615,-2.6246,-2.5027,0.0,0.0,-2.5026,-2.3038,-2.4903,-2.6126,-2.474,-2.4824,-2.5607,0.0,0.0,0.0,0.0,0.0,0.0,-2.5493,0.0,-2.5133,-2.4532,-2.4495,-2.4648,-2.4998,-2.5069,-2.5195,-2.5398,-2.5535,-2.5615,-2.5625,-2.4736,-2.4254,-2.4157,-2.333,-2.2907,-2.2829,-2.1997,-2.1628,-2.1554,-2.0741,-2.0395,-2.0383,-2.0395,-2.0395,-2.0398,-2.0391,-1.9881,-1.9141,0.0,0.0,0.0,0.0,0.0,0.0,0.0,0.0,0.0,0.0,0.0,0.0,0.0,0.0,0.0,0.0,0.0,0.0,0.0,0.0,0.0,0.0,0.0,0.0,0.0,0.0,0.0,0.0,0.0,1.8212,1.9431,2.0934,2.1897,2.2456,2.2665,2.3265,2.4109,2.3664,2.357,2.3657,0.0,2.0933,1.8805,0.0,0.0,0.0,0.0,0.0,0.0,0.0,0.0,0.0,0.0,-1.6018,-1.6774,-1.7121,-1.9158,-2.1349,-2.1815,-2.4177,-2.6636,-2.7285,-2.7769,-2.8115,-2.8125,-2.8144,-2.7531,-2.5383,-2.3736,-2.2063,0.0,0.0,0.0,-2.1775,-2.5268,0.0,-2.6836,-2.7408,0.0,-2.7772,0.0,-2.7002,-2.6985,-2.6473,0.0,0.0,-2.5262,-2.5133,-2.4532,-2.4495,-2.4648,-2.4998,-2.5027,-2.5138,-2.5398,-2.5535,-2.5273,-2.4655,-2.4453,-2.3729,-2.2498,-2.2227,-2.1742,-2.1116,-2.085,-2.0701,-2.0631,-2.0416,-2.0323,-2.0332,-2.0336,-2.0354,-2.0402,-2.0396,-2.0251,-1.9974,0.0,0.0,0.0,0.0,0.0,0.0,0.0,0.0,0.0,0.0,0.0,0.0,0.0,0.0,0.0,0.0,0.0,0.0,0.0,0.0,0.0,0.0,0.0,0.0,0.0,0.0,0.0,0.0,0.0,0.0,0.0,1.7861,1.8984,1.9895,2.0212,2.0883,2.1747,0.0,0.0,0.0,0.0,0.0,0.0,0.0,0.0,0.0,0.0,0.0,0.0,0.0,0.0,-1.3507,-1.4876,-1.557,-1.6048,-1.6698,0.0,-2.0752,-2.1196,-2.3519,-2.58,-2.5981,-2.6406,-2.6671,-2.6303,-2.5736,-2.4718,-2.2709,-2.0597,0.0,0.0,0.0,0.0,0.0,0.0,0.0,-2.5889,-2.6488,-2.7107,0.0,-2.7187,0.0,-2.656,-2.6286,-2.5725,0.0,-2.499,-2.4937,-2.4413,-2.4375,-2.4493,-2.4762,-2.4877,-2.5061,-2.5398,-2.5477,-2.5095,-2.4291,-2.3975,-2.3142,-2.1894,-2.1462,-2.0993,-2.0507,0.0,-2.0408,-2.035,-2.035,-2.0341,-2.0333,-2.0345,-2.0365,-2.0398,-2.0391,-2.0155,-1.9764,0.0,0.0,0.0,0.0,0.0,0.0,0.0,0.0,0.0,0.0,0.0,0.0,0.0,0.0,0.0,0.0,0.0,0.0,0.0,0.0,0.0,0.0,0.0,0.0,0.0,0.0,0.0,0.0,0.0,0.0,0.0,0.0,0.0,0.0,0.0,0.0,0.0,0.0,0.0,0.0,0.0,0.0,0.0,0.0,0.0,0.0,0.0,0.0,0.0,0.0,-1.1956,-1.3257,-1.3528,-1.3871,-1.4475,-1.5971,-1.739,-1.8944,-2.0935,-2.2815,-2.4296,-2.4595,-2.5057,-2.5113,-2.3898,-2.2689,-2.1385,-1.9814,0.0,-1.5552,-1.5344,-1.7116,-1.8272,-1.7142,0.0,-2.3718,-2.3884,-2.4403,-2.5273,-2.6716,-2.6979,-2.6792,-2.6048,-2.6195,-2.5747,-2.4272,-2.445,-2.4476,-2.415,-2.4113,-2.4266,-2.4495,-2.47,-2.4974,-2.534,-2.526,-2.4845,-2.4102,-2.3305,-2.2484,-2.1678,-2.0917,-2.054,-2.0482,-2.0482,-2.0444,-2.0398,-2.0398,-2.0394,-2.0385,-2.0394,-2.0398,-2.0398,-2.0406,-1.992,-1.927,0.0,0.0,0.0,0.0,0.0,0.0,0.0,0.0,0.0,0.0,-1.5138,-1.5135,0.0,0.0,0.0,0.0,0.0,0.0,0.0,0.0,0.0,0.0,0.0,0.0,0.0,0.0,0.0,0.0,0.0,0.0,0.0,0.0,0.0,0.0,0.0,0.0,0.0,0.0,0.0,0.0,0.0,0.0,0.0,0.0,0.0,0.0,0.0,0.0,0.0,0.0,-1.0231,-1.2429,-1.4287,-1.4769,-1.4757,-1.5593,-1.6098,-1.6811,-1.8656,-2.0164,-2.1545,-2.3084,-2.4009,-2.4213,-2.3003,-2.258,0.0,0.0,0.0,-1.4541,-1.2632,-1.4052,0.0,-1.7177,0.0,0.0,0.0,0.0,-2.6693,0.0,0.0,0.0,0.0,0.0,0.0,0.0,-2.304,-2.3283,-2.3753,-2.3795,-2.4001,-2.4495,-2.47,-2.4877,-2.5061,-2.4466,-2.3829,-2.3139,-2.2332,-2.1484,-2.0669,-2.0494,-2.0429,-2.0422,-2.0422,0.0,-2.033,-2.033,-2.0308,-2.0332,-2.0326,-2.033,-2.0316,-2.0374,-2.029,-2.0173,0.0,0.0,0.0,0.0,0.0,0.0,0.0,-1.5215,-1.5153,-1.5012,-1.4937,-1.4927,-1.4974,-1.4888,0.0,0.0,0.0,0.0,0.0,0.0,0.0,0.0,0.0,0.0,0.0,0.0,0.0,0.0,0.0,0.0,0.0,0.0,0.0,0.0,0.0,0.0,0.0,0.0,0.0,0.0,0.0,0.0,0.0,0.0,0.0,0.0,0.0,0.0,0.0,0.0,-0.7606,-0.9323,-1.2266,-1.3085,-1.3086,-1.3779,-1.4286,-1.4943,-1.6149,-1.7244,-1.8644,-2.1167,-2.224,-2.246,-2.1649,0.0,0.0,0.0,0.0,-1.2445,-1.1364,0.0,0.0,0.0,0.0,0.0,0.0,0.0,0.0,0.0,0.0,0.0,0.0,0.0,0.0,0.0,-2.25,-2.2755,-2.3414,-2.3628,-2.3961,-2.4495,-2.4591,-2.452,-2.422,-2.3965,-2.3275,-2.2115,-2.172,-2.1147,-2.0406,-2.0337,-2.0303,-2.0342,-2.0342,-2.0319,-2.0301,-2.0301,-2.0292,-2.0292,-2.0306,-2.0301,-2.0308,-2.0347,-2.0346,-2.0346,0.0,0.0,0.0,0.0,0.0,0.0,0.0,-1.5152,-1.5068,-1.4827,-1.4712,-1.4696,-1.4831,-1.4981,-1.4964,0.0,0.0,0.0,0.0,0.0,0.0,0.0,0.0,0.0,0.0,0.0,0.0,0.0,0.0,0.0,0.0,0.0,0.0,0.0,0.0,0.0,0.0,0.0,0.0,0.0,0.0,0.0,0.0,0.0,0.0,0.0,0.0,0.0,0.0,0.0,-0.5859,-0.6478,-0.9459,-1.0394,-1.0467,-1.1164,-1.1751,-1.2383,-1.334,-1.4216,-1.5499,-1.8097,-1.9707,-2.0339,-1.9173,-1.8868,0.0,0.0,-1.2064,-1.0866,-1.0585,0.0,0.0,0.0,0.0,0.0,0.0,0.0,0.0,0.0,0.0,0.0,0.0,0.0,0.0,0.0,-2.231,-2.2517,-2.3069,-2.3477,-2.3883,-2.432,-2.4242,-2.3948,-2.3465,-2.3259,-2.2536,-2.1339,-2.1147,-2.0789,-2.0266,-2.016,-2.0152,-2.019,-2.019,-2.0185,-2.018,-2.018,-2.018,-2.018,-2.018,-2.018,-2.0161,-1.9997,-1.9939,-1.9901,0.0,0.0,0.0,0.0,0.0,0.0,0.0,-1.5014,-1.4885,-1.45,-1.45,-1.4641,-1.4945,-1.542,-1.5762,0.0,0.0,0.0,0.0,0.0,0.0,0.0,0.0,0.0,0.0,0.0,0.0,0.0,0.0,0.0,0.0,0.0,0.0,0.0,0.0,0.0,0.0,0.0,0.0,0.0,0.0,0.0,0.0,0.0,0.0,0.0,0.0,0.0,0.0,0.0,0.0,-0.6107,-0.7143,-0.7366,-0.7298,-0.7878,0.0,0.0,-1.0246,-1.1122,-1.1711,-1.2879,-1.6014,-1.7937,-1.4557,0.0,0.0,-1.3094,-1.1882,-1.1249,-0.9725,-1.0287,0.0,0.0,0.0,0.0,0.0,0.0,0.0,0.0,0.0,0.0,0.0,0.0,0.0,-2.2383,-2.231,-2.2426,-2.2721,-2.3346,-2.3714,-2.3777,-2.3361,-2.3195,-2.3332,-2.182,-2.1089,-2.1107,-2.0339,-1.9904,-1.985,-1.9839,-1.9839,-1.9858,-1.9858,-1.9847,0.0,-1.9855,-1.9855,-1.9855,-1.9855,-1.9855,-1.976,-1.9033,-1.876,-1.8646,0.0,0.0,0.0,0.0,0.0,0.0,-1.4865,-1.4901,-1.4791,-1.4392,-1.4428,-1.4673,-1.5128,-1.5903,-1.6484,-1.6708,0.0,0.0,0.0,0.0,0.0,0.0,0.0,0.0,0.0,0.0,0.0,0.0,0.0,0.0,0.0,0.0,0.0,0.0,0.0,0.0,0.0,0.0,0.0,0.0,0.0,0.0,0.0,0.0,0.0,0.0,0.0,0.0,0.0,0.0,0.0,0.0,-0.7367,-0.7154,0.0,0.0,-0.6614,-0.6477,-0.6694,-0.6826,-0.7028,-0.7286,-1.1184,-1.417,-1.1249,0.0,-1.7475,-1.3443,-1.262,-1.2165,-1.0757,-1.0874,-1.1358,0.0,0.0,0.0,0.0,0.0,0.0,0.0,0.0,0.0,0.0,0.0,0.0,-2.2355,-2.231,-2.2349,-2.2436,-2.2883,-2.2994,-2.2736,-2.272,-2.2281,-2.1439,-2.1004,-2.0532,-1.9959,-1.9761,-1.9645,-1.9551,-1.9645,-1.9713,-1.979,-1.979,-1.979,0.0,-1.979,-1.979,-1.9752,-1.9273,-1.9084,-1.8971,-1.803,-1.77,-1.7632,0.0,0.0,0.0,0.0,0.0,-1.4699,-1.4794,-1.4793,-1.467,-1.4371,-1.4628,-1.4962,-1.5349,-1.6516,-1.738,-1.765,-1.7051,0.0,0.0,0.0,0.0,0.0,0.0,0.0,0.0,0.0,0.0,0.0,0.0,0.0,0.0,0.0,0.0,0.0,0.0,0.0,0.0,0.0,0.0,0.0,0.0,0.0,0.0,0.0,0.0,0.0,0.0,0.0,0.0,0.0,0.0,0.0,0.0,0.0,0.0,0.0,-0.5715,-0.5123,-0.4079,-0.338,-0.2781,-0.1852,-0.6665,-1.0922,0.0,0.0,-1.7571,-1.4501,-1.3813,-1.3454,-1.2472,-1.245,-1.2659,0.0,0.0,-1.7536,0.0,0.0,0.0,0.0,0.0,0.0,0.0,0.0,-2.2747,-2.1953,-2.2152,-2.2237,-2.2106,-2.2197,-2.2166,-2.196,-2.1996,-2.1391,-2.01,-2.0129,-1.9772,-1.9026,-1.9206,-1.9246,-1.9173,-1.9265,-1.9357,-1.9448,-1.9448,-1.9448,0.0,-1.9215,-1.9122,-1.9043,-1.8255,-1.7938,-1.7826,-1.6849,-1.6509,-1.646,0.0,0.0,0.0,0.0,0.0,0.0,-1.4775,-1.4626,-1.4492,-1.4404,-1.5098,-1.5599,-1.5602,-1.7264,-1.8497,-1.8751,-1.8103,0.0,0.0,0.0,0.0,0.0,0.0,0.0,0.0,0.0,0.0,0.0,0.0,0.0,0.0,0.0,0.0,0.0,0.0,0.0,0.0,0.0,0.0,0.0,0.0,0.0,0.0,0.0,0.0,0.0,0.0,0.0,0.0,0.0,0.0,0.0,0.0,0.0,0.0,0.0,-0.5079,-0.4055,-0.2852,-0.1284,0.0598,0.334,-0.2877,-0.8708,0.0,0.0,-1.8603,-1.6173,-1.5455,-1.5125,-1.4651,-1.4955,-1.5225,-1.5086,0.0,0.0,0.0,0.0,0.0,0.0,0.0,0.0,0.0,0.0,-2.1446,-2.1023,-2.1811,0.0,-2.1628,-2.1357,-2.1344,-2.1611,-2.1163,-2.0575,-1.9814,-1.9013,-1.8622,-1.8604,-1.8604,-1.8604,-1.8604,-1.8604,-1.8604,-1.8604,-1.8604,-1.8604,0.0,-1.7826,-1.7524,-1.7435,-1.6704,-1.6435,-1.6312,-1.5442,-1.5125,-1.5018,0.0,0.0,0.0,0.0,0.0,0.0,0.0,-1.4756,-1.4649,-1.4498,-1.5371,-1.601,-1.6016,-1.7072,-1.8119,-1.8923,-1.8742,0.0,0.0,0.0,0.0,0.0,0.0,0.0,0.0,0.0,0.0,0.0,0.0,0.0,0.0,0.0,0.0,0.0,0.0,0.0,0.0,0.0,0.0,0.0,0.0,0.0,0.0,0.0,0.0,0.0,0.0,0.0,0.0,0.0,0.0,0.0,0.0,0.0,0.0,-1.0267,-0.7769,-0.5237,-0.3825,-0.2965,-0.1991,0.0045,-0.5038,-0.996,-0.7755,0.0,-1.8025,-1.6661,-1.644,-1.638,-1.6144,-1.6448,-1.6661,-1.6457,-1.7001,0.0,0.0,0.0,0.0,0.0,0.0,0.0,0.0,0.0,-2.0781,-2.1007,-2.1507,-2.1444,-2.0548,-2.0673,-2.0686,-2.0517,-2.0056,-1.9447,-1.8717,-1.8632,-1.8508,-1.833,-1.8508,-1.8508,-1.833,-1.8508,-1.8321,-1.7879,-1.8374,-1.8174,-1.7478,-1.7289,-1.7092,-1.6786,-1.5714,-1.5308,-1.522,-1.4383,-1.3995,-1.3816,0.0,0.0,0.0,0.0,0.0,0.0,0.0,-1.4802,-1.4749,-1.4736,-1.56,-1.6113,-1.5919,-1.6961,-1.7949,-1.8552,-1.8846,0.0,0.0,0.0,0.0,0.0,0.0,0.0,0.0,0.0,0.0,0.0,0.0,0.0,0.0,0.0,0.0,0.0,0.0,0.0,0.0,0.0,0.0,0.0,0.0,0.0,-1.9522,0.0,0.0,0.0,0.0,0.0,0.0,0.0,0.0,0.0,0.0,0.0,0.0,0.0,-1.073,-0.802,0.0,-0.4581,-0.3614,-0.1787,-0.6272,0.0,0.0,0.0,-1.8126,-1.7536,-1.7603,-1.7815,-1.7946,-1.8013,-1.8146,-1.8475,-1.8418,0.0,0.0,0.0,0.0,0.0,0.0,0.0,0.0,-2.032,-2.0348,-2.0499,-2.1055,-2.0906,-1.9845,-1.9903,-1.9745,-1.9207,-1.8909,-1.8488,-1.7871,-1.7902,-1.7766,-1.7488,-1.7517,-1.7454,-1.7299,-1.7475,-1.7285,-1.6875,-1.7336,-1.7014,0.0,-1.5908,-1.5694,-1.5399,-1.4376,-1.3973,-1.3922,-1.3396,-1.3142,-1.3001,0.0,0.0,0.0,0.0,0.0,0.0,0.0,-1.4847,-1.4825,-1.5083,-1.5776,-1.6041,-1.5546,-1.6971,-1.7969,-1.7891,0.0,0.0,0.0,0.0,0.0,0.0,0.0,0.0,0.0,0.0,0.0,-1.8785,-1.9396,-1.9849,-2.0196,-2.0194,0.0,0.0,0.0,0.0,0.0,0.0,0.0,0.0,-1.8669,-1.8056,0.0,0.0,0.0,0.0,0.0,0.0,0.0,0.0,0.0,0.0,0.0,0.0,0.0,0.0,0.0,0.0,0.0,-0.6473,-0.4904,-0.3101,-0.7189,-1.1357,0.0,0.0,0.0,0.0,-1.8777,-1.9141,-1.9732,-1.9415,-1.9479,-2.0717,0.0,0.0,0.0,0.0,0.0,0.0,0.0,0.0,-1.8837,-1.9638,-2.0089,-1.9726,-2.0481,-2.0447,-1.9322,-1.9024,-1.8515,-1.7775,-1.7732,-1.7587,-1.7272,-1.6968,-1.6621,-1.6254,-1.594,-1.5799,-1.5799,-1.5799,-1.5767,0.0,-1.5783,-1.5365,-1.4626,-1.3962,-1.3647,-1.3542,-1.2824,-1.2517,-1.2498,-1.2498,-1.2482,-1.2423,0.0,0.0,0.0,0.0,0.0,0.0,0.0,0.0,0.0,0.0,-1.6038,-1.6516,-1.6345,-1.722,-1.8097,0.0,0.0,0.0,0.0,0.0,0.0,0.0,0.0,0.0,0.0,0.0,0.0,-1.8717,-1.9328,-2.0127,-2.1087,-2.039,-2.0439,-2.1092,0.0,0.0,0.0,0.0,0.0,0.0,-1.8608,-1.7997,0.0,0.0,0.0,0.0,-1.7872,-1.7884,0.0,0.0,0.0,0.0,0.0,0.0,0.0,0.0,-1.4734,-1.3947,-1.3048,0.0,-1.0934,-1.1559,-1.3473,-1.5359,0.0,0.0,0.0,0.0,0.0,-1.8559,-1.9188,-1.9099,-1.9202,0.0,0.0,0.0,0.0,0.0,0.0,0.0,0.0,0.0,-1.8882,-1.9391,-1.9818,-1.9726,-2.0158,-1.977,-1.8163,-1.8362,-1.7832,-1.6327,-1.6281,-1.6495,-1.6917,-1.6841,-1.6497,-1.5917,-1.5846,-1.5799,-1.5799,-1.5799,-1.5486,-1.4998,-1.555,-1.4954,-1.3562,-1.3455,-1.3098,-1.2588,-1.21,-1.1785,-1.1592,-1.1482,-1.1322,-1.1093,0.0,0.0,0.0,0.0,0.0,0.0,0.0,0.0,0.0,0.0,0.0,0.0,0.0,0.0,0.0,0.0,0.0,0.0,0.0,0.0,0.0,0.0,0.0,0.0,0.0,-1.843,-1.8625,-1.8789,-1.9337,-1.9973,-2.0692,-2.0215,-2.0235,-2.0641,-2.0028,0.0,0.0,0.0,0.0,0.0,-1.8435,0.0,0.0,0.0,0.0,0.0,-1.7462,-1.7572,0.0,-1.715,-1.6759,-1.6344,0.0,0.0,0.0,0.0,-1.5344,-1.4984,-1.4847,-1.4184,-1.3734,-1.4592,-1.5596,-1.655,0.0,0.0,0.0,0.0,0.0,0.0,-1.8826,0.0,0.0,0.0,0.0,0.0,0.0,0.0,0.0,0.0,0.0,0.0,0.0,-1.948,-1.969,-1.969,-1.9666,-1.9081,-1.7757,-1.7717,-1.7118,-1.5844,-1.5799,-1.6067,-1.6554,-1.6421,-1.6077,-1.5573,-1.5399,-1.5323,-1.5323,-1.5323,-1.4965,-1.4295,-1.4547,-1.3763,-1.2321,-1.2216,-1.2001,-1.1641,-1.1411,-1.1139,-1.0833,-1.0768,-1.0552,-1.0224,0.0,0.0,0.0,0.0,0.0,0.0,0.0,0.0,0.0,0.0,0.0,0.0,0.0,0.0,0.0,0.0,0.0,0.0,0.0,0.0,0.0,0.0,0.0,0.0,-1.8406,-1.8565,-1.8734,-1.8895,-1.9378,-1.9722,-1.9908,-1.9959,-1.9915,-1.9791,-1.9858,0.0,0.0,0.0,0.0,0.0,-1.8361,0.0,0.0,0.0,0.0,0.0,0.0,0.0,0.0,-1.7117,-1.6786,-1.6412,-1.6145,0.0,0.0,0.0,0.0,0.0,-1.5165,-1.4972,-1.4886,-1.4892,-1.5579,-1.6313,0.0,0.0,0.0,0.0,0.0,0.0,0.0,0.0,0.0,0.0,0.0,0.0,0.0,0.0,0.0,0.0,0.0,0.0,-1.9432,-1.9419,-1.9442,-1.9442,-1.9043,-1.8419,-1.7545,-1.7141,-1.6531,-1.5625,-1.5669,-1.5815,-1.6022,-1.5764,-1.5488,-1.5227,-1.4784,-1.4597,-1.4686,-1.4686,-1.4362,-1.3723,0.0,0.0,-1.1347,-1.1019,-1.0873,-1.0825,-1.0763,-1.0494,-1.0133,-1.0033,-0.978,-0.9329,0.0,0.0,0.0,0.0,0.0,0.0,0.0,0.0,0.0,0.0,0.0,0.0,0.0,0.0,0.0,0.0,0.0,0.0,0.0,0.0,0.0,0.0,0.0,-1.8642,-1.8406,-1.8698,-1.8878,-1.8895,-1.9423,-1.9758,-1.9908,-1.9913,-1.9847,-1.9745,-2.0489,0.0,0.0,0.0,0.0,-2.0336,-1.8895,0.0,0.0,0.0,0.0,0.0,0.0,0.0,0.0,-1.7344,-1.679,-1.6272,-1.6391,0.0,0.0,0.0,0.0,0.0,-1.5134,-1.5572,-1.5957,-1.558,-1.5764,-1.6188,0.0,0.0,0.0,0.0,0.0,0.0,0.0,0.0,0.0,0.0,0.0,0.0,0.0,0.0,0.0,0.0,0.0,-1.8903,-1.8238,-1.8262,-1.8341,-1.8341,-1.8263,-1.772,-1.6578,-1.6853,-1.634,-1.4746,-1.5129,-1.5175,-1.4769,-1.4905,-1.4914,-1.4863,-1.3909,-1.372,-1.4212,-1.4212,-1.397,-1.3555,0.0,-1.2673,-1.1589,-1.1104,-1.0739,-1.0445,-1.0108,-0.9791,-0.9463,-0.8844,-0.8333,-0.7751,0.0,0.0,0.0,0.0,0.0,0.0,0.0,0.0,0.0,0.0,0.0,0.0,0.0,0.0,0.0,0.0,0.0,0.0,0.0,0.0,0.0,0.0,-1.8699,-1.8399,-1.8249,-1.8452,-1.8586,-1.857,-1.9254,-1.9671,-1.9851,-1.9889,-1.9835,-1.972,-2.0168,-2.0728,-2.1359,-2.1405,-2.124,-2.0862,0.0,0.0,0.0,0.0,0.0,0.0,0.0,0.0,0.0,0.0,-1.6816,-1.6383,-1.6273,0.0,0.0,0.0,0.0,0.0,-1.4665,-1.4864,-1.5121,-1.5466,-1.6253,0.0,0.0,0.0,0.0,0.0,0.0,0.0,0.0,0.0,0.0,0.0,0.0,0.0,0.0,0.0,0.0,0.0,0.0,-1.8018,-1.8026,-1.8057,-1.8106,-1.8106,-1.7827,-1.7407,-1.6762,-1.668,-1.613,-1.4974,-1.5161,-1.5043,-1.4515,-1.4237,-1.427,-1.4629,-1.4138,-1.405,-1.4317,-1.4317,-1.3863,-1.3035,0.0,-1.2074,-1.0971,-1.0528,-1.016,-0.9855,-0.9649,-0.9266,-0.8717,-0.7935,-0.7266,-0.659,0.0,0.0,0.0,0.0,0.0,0.0,0.0,0.0,0.0,0.0,0.0,0.0,0.0,0.0,0.0,0.0,0.0,0.0,0.0,0.0,-1.931,-1.8803,-1.8259,-1.7952,-1.7907,-1.7971,-1.8038,-1.8066,-1.8861,-1.9443,-1.9825,-1.9883,-1.9873,-1.9801,-2.0058,-2.0725,-2.1696,-2.1855,-2.1818,-2.156,0.0,0.0,0.0,0.0,0.0,0.0,0.0,0.0,0.0,0.0,0.0,0.0,0.0,0.0,0.0,-1.5389,-1.4789,-1.4042,-1.4119,-1.4146,-1.4337,0.0,0.0,0.0,0.0,0.0,0.0,0.0,0.0,0.0,0.0,0.0,0.0,0.0,0.0,0.0,0.0,-1.754,-1.6631,-1.7246,-1.7109,-1.7207,-1.7853,-1.7787,-1.7747,-1.7747,-1.7353,-1.7021,-1.6779,-1.6284,-1.5685,-1.5031,-1.4921,-1.464,-1.4195,-1.3673,-1.3798,-1.4501,-1.4237,-1.4206,-1.4374,-1.4374,-1.3738,-1.2615,-1.2321,-1.1491,-1.0315,-0.9943,-0.9581,-0.9262,-0.9182,-0.8745,-0.807,-0.7252,-0.6511,-0.5799,0.0,0.0,0.0,0.0,0.0,0.0,0.0,0.0,0.0,0.0,0.0,0.0,0.0,0.0,0.0,0.0,0.0,0.0,0.0,0.0,-1.9057,-1.8461,-1.7693,-1.7294,-1.7363,-1.7243,-1.7256,-1.7372,-1.8132,-1.8955,-1.9886,-1.9959,-2.0029,-2.0119,-2.0925,-2.1838,-2.2787,-2.2878,-2.3178,-2.341,-2.1318,0.0,0.0,0.0,0.0,0.0,0.0,0.0,0.0,0.0,0.0,0.0,0.0,0.0,-1.5607,-1.5448,-1.4909,-1.4256,-1.3789,-1.4128,-1.4624,-1.4411,0.0,0.0,0.0,0.0,0.0,0.0,0.0,0.0,0.0,0.0,0.0,0.0,0.0,0.0,0.0,0.0,-1.7397,-1.7958,-1.7164,-1.6756,-1.7299,-1.6909,-1.6637,-1.6637,-1.6595,-1.6355,-1.584,-1.534,-1.4796,-1.4232,-1.3692,-1.3399,-1.3301,-1.3263,-1.363,-1.4501,-1.3503,-1.3353,-1.3934,-1.3934,-1.3376,-1.2412,-1.2259,-1.143,-1.0173,-0.9653,-0.9209,-0.8816,-0.8505,-0.8119,-0.7647,-0.6832,-0.6145,-0.5507,0.0,0.0,0.0,0.0,0.0,0.0,0.0,0.0,0.0,0.0,0.0,0.0,0.0,0.0,0.0,0.0,0.0,0.0,0.0,0.0,-1.8627,-1.811,-1.7054,-1.6114,-1.5384,-1.5624,-1.5716,-1.5676,-1.75,-1.9082,-2.0405,-2.0687,-2.0839,-2.0917,-2.125,-2.1679,-2.2145,-2.2139,-2.2241,-2.2335,-2.1202,-2.0111,0.0,0.0,0.0,0.0,0.0,0.0,0.0,0.0,-1.634,-1.6037,-1.5826,-1.5342,-1.4819,-1.4793,-1.4208,-1.3502,-1.3331,-1.3423,-1.3688,-1.4165,0.0,0.0,0.0,0.0,0.0,0.0,0.0,0.0,0.0,0.0,0.0,0.0,0.0,0.0,-1.7214,-1.6646,-1.6318,-1.6506,-1.584,-1.5599,-1.6188,-1.572,-1.5389,-1.5389,-1.5732,-1.5692,-1.5107,-1.5048,-1.4535,-1.3572,-1.3371,-1.2994,-1.233,-1.2615,-1.2766,-1.2834,-1.2697,-1.279,-1.2998,-1.2414,-1.2092,-1.1919,-1.0979,-1.0279,-0.9752,-0.954,-0.9079,-0.8449,-0.8091,-0.7841,-0.7618,-0.6781,-0.6248,-0.5775,0.0,0.0,0.0,0.0,0.0,0.0,0.0,0.0,0.0,0.0,0.0,0.0,0.0,0.0,0.0,0.0,0.0,0.0,0.0,0.0,-1.8336,-1.7829,-1.6734,-1.5538,-1.4249,-1.4322,-1.4297,-1.4176,-1.6641,-1.862,-2.0104,-2.0785,0.0,0.0,0.0,-2.1457,-2.1662,-2.1637,-2.1746,-2.1898,-2.1183,-2.0261,0.0,0.0,0.0,0.0,0.0,0.0,0.0,0.0,-1.5767,-1.533,-1.5043,-1.4562,-1.41,-1.4046,-1.3566,-1.299,-1.2948,-1.2773,-1.2777,0.0,0.0,0.0,0.0,0.0,0.0,0.0,0.0,0.0,0.0,0.0,0.0,0.0,0.0,-1.6501,-1.5629,-1.5372,-1.532,-1.532,-1.4971,-1.488,-1.5276,-1.4926,-1.4698,-1.4698,-1.5096,-1.5141,-1.4698,-1.4492,-1.4021,-1.3242,-1.2958,-1.2457,-1.1822,-1.2102,-1.2029,-1.1553,-1.1872,-1.2138,-1.227,-1.1593,-1.1388,-1.1397,-1.0434,-0.9833,-0.9515,-0.9382,-0.8837,-0.8062,-0.7676,-0.75,-0.7412,-0.6609,-0.6118,-0.5752,0.0,0.0,0.0,0.0,0.0,0.0,0.0,0.0,0.0,0.0,0.0,0.0,0.0,0.0,0.0,0.0,0.0,0.0,0.0,-1.8524,-1.8225,-1.7618,-1.6847,-1.5735,-1.4332,-1.3526,-1.3094,-1.304,-1.5483,-1.7408,-1.8826,-2.0098,0.0,0.0,0.0,0.0,-2.1584,-2.1656,-2.2072,-2.2566,-2.1362,-2.0644,-2.0111,0.0,0.0,0.0,0.0,0.0,0.0,0.0,-1.5106,-1.447,-1.4269,-1.3979,-1.363,-1.3361,-1.3131,-1.2904,-1.2646,-1.2178,0.0,0.0,0.0,0.0,0.0,0.0,0.0,0.0,0.0,0.0,0.0,0.0,0.0,-1.5095,-1.5313,-1.5474,-1.5474,-1.5012,-1.4698,-1.4698,-1.4698,-1.4698,-1.4709,-1.4709,-1.4698,-1.4698,-1.4709,-1.4709,-1.4698,-1.368,-1.3118,-1.3189,-1.2227,-1.1726,-1.1785,-1.1774,-1.1505,-1.0971,-1.0981,-1.1282,-1.1774,-1.1774,-1.1458,-1.0909,-1.0898,-1.0406,-0.9568,-0.9088,-0.844,-0.7676,-0.7246,-0.708,-0.699,-0.6183,-0.568,-0.534,0.0,0.0,0.0,0.0,0.0,0.0,0.0,0.0,0.0,0.0,0.0,0.0,0.0,0.0,0.0,0.0,0.0,0.0,0.0,0.0,-1.7986,-1.713,-1.6684,-1.5982,-1.4979,-1.4094,-1.3802,-1.4128,-1.5772,-1.7507,-1.9317,0.0,0.0,-2.0404,0.0,0.0,-2.0421,-2.0523,-2.0721,-2.0896,-2.0282,-1.9819,-1.936,0.0,0.0,0.0,0.0,0.0,0.0,0.0,0.0,0.0,-1.3795,-1.3357,-1.2904,-1.2349,-1.1792,-1.1249,-1.0694,-1.0762,0.0,0.0,0.0,0.0,0.0,0.0,0.0,0.0,0.0,0.0,0.0,0.0,0.0,-1.3725,-1.4358,-1.4479,-1.3106,-1.319,-1.3348,-1.3348,-1.2966,-1.3024,-1.4003,-1.3695,-1.343,-1.343,-1.3836,-1.3873,-1.3478,-1.2944,-1.2497,-1.2105,-1.1518,-1.1051,-1.0736,-1.1057,-1.0981,-1.0495,-1.0137,-1.0399,-1.1196,-1.0536,-1.0531,-1.0914,-0.9963,-0.9591,-0.9561,-0.8825,-0.8403,-0.8131,-0.7375,-0.694,-0.6601,-0.6091,-0.5822,-0.5673,0.0,0.0,0.0,0.0,0.0,0.0,0.0,0.0,0.0,0.0,-1.7486,-1.8352,0.0,0.0,0.0,0.0,0.0,0.0,0.0,0.0,-1.8148,-1.7561,-1.7335,-1.6694,-1.5622,-1.5138,-1.4906,-1.4948,-1.591,0.0,0.0,0.0,-1.9831,-1.987,0.0,-2.0394,-1.9831,-1.9941,-2.0041,-2.0106,-1.9836,-1.9543,-1.9191,0.0,0.0,0.0,0.0,0.0,0.0,0.0,0.0,0.0,-1.3285,0.0,0.0,-1.1648,-1.0957,-1.033,-1.0273,0.0,0.0,0.0,0.0,0.0,0.0,0.0,0.0,0.0,0.0,0.0,0.0,0.0,0.0,-1.2253,-1.2693,-1.2764,-1.1557,-1.1747,-1.1994,-1.1994,-1.1657,-1.1706,-1.2541,-1.2276,-1.2058,-1.2058,-1.2414,-1.2453,-1.2098,-1.1826,-1.1423,-1.0873,-1.052,-1.0222,-1.0,-1.0254,-1.0254,-0.9961,-0.9637,-0.9707,-1.0079,-0.9496,-0.9552,-1.0041,-0.9096,-0.872,-0.8748,-0.813,-0.7779,-0.7569,-0.6879,-0.6488,-0.6213,-0.5797,-0.5672,-0.5588,0.0,0.0,-1.3726,-1.3856,0.0,0.0,0.0,0.0,0.0,0.0,-1.7433,-1.8229,0.0,0.0,0.0,0.0,0.0,0.0,0.0,0.0,0.0,-1.8466,-1.8373,-1.7714,-1.6371,-1.6427,-1.6188,-1.5634,-1.6026,0.0,0.0,0.0,-1.9038,-1.8717,0.0,-1.9994,-1.9638,-1.9731,-1.9824,-1.9931,-1.979,-1.9632,-1.9382,-1.8803,0.0,0.0,0.0,0.0,0.0,0.0,0.0,0.0,-1.2791,-1.1995,-1.1244,-1.1131,-1.038,-0.9749,0.0,0.0,0.0,0.0,0.0,0.0,0.0,0.0,0.0,0.0,0.0,0.0,0.0,0.0,-1.0813,-1.0813,-1.0813,-1.0762,-1.0712,-1.072,-1.072,-1.072,-1.072,-1.0712,-1.0813,-1.0813,-1.0813,-1.0813,-1.0813,-1.0813,-1.0813,-1.049,-1.0126,-0.9703,-0.9404,-0.9299,-0.9448,-0.9439,-0.9439,-0.9439,-0.9359,-0.9119,-0.8643,-0.8675,-0.8716,-0.8699,-0.8367,-0.8019,-0.7619,-0.7298,-0.6891,-0.6468,-0.6044,-0.5882,-0.5797,-0.5428,-0.5309,-0.5277,0.0,0.0,-1.3619,-1.3663,0.0,0.0,0.0,0.0,0.0,0.0,0.0,0.0,0.0,0.0,0.0,0.0,0.0,0.0,0.0,0.0,0.0,-1.8123,-1.8324,-1.8151,-1.7466,-1.7223,-1.6919,-1.6507,-1.657,0.0,0.0,0.0,0.0,-1.8413,0.0,-1.9259,-1.9237,-1.9419,-1.9504,-1.9518,-1.9387,-1.9237,-1.9061,-1.8664,-1.8342,0.0,0.0,0.0,0.0,0.0,0.0,0.0,-1.2591,-1.1708,-1.0764,-0.9682,-0.8756,-0.7977,0.0,0.0,0.0,0.0,0.0,0.0,0.0,0.0,0.0,0.0,0.0,0.0,0.0,-1.13,-1.0813,-1.0813,-1.0813,-1.0618,-1.0064,-1.0012,-1.0012,-1.0012,-1.0012,-1.0218,-1.0771,-1.0813,-1.0813,-1.0813,-1.0813,-1.0813,-1.0813,-1.0202,-0.9814,-0.9694,-0.9121,-0.8831,-0.8878,-0.8878,-0.8878,-0.8878,-0.8439,-0.8201,-0.8077,-0.8521,-0.8716,-0.8716,-0.8633,-0.8392,-0.8019,-0.7663,-0.7111,-0.6463,-0.6042,-0.5703,-0.5435,-0.534,-0.5309,-0.5246,0.0,0.0,0.0,0.0,0.0,0.0,0.0,0.0,0.0,0.0,0.0,0.0,0.0,0.0,0.0,0.0,-1.8304,-1.8216,-1.8039,-1.861,-1.8851,-1.8636,-1.8677,-1.8401,-1.7815,-1.7539,-1.7035,0.0,0.0,0.0,0.0,0.0,0.0,-1.8125,0.0,-1.8753,-1.8998,-1.9148,-1.9243,-1.9301,-1.9253,-1.9193,-1.9066,-1.8876,-1.8645,-1.8358,-1.7783,0.0,0.0,0.0,0.0,0.0,0.0,0.0,-1.0938,-0.9703,-0.8265,-0.7048,0.0,0.0,0.0,0.0,0.0,0.0,0.0,0.0,0.0,0.0,0.0,0.0,0.0,-0.914,-0.8783,-0.8783,-0.8783,-0.8685,-0.833,-0.8283,-0.8283,-0.8283,-0.8283,-0.8383,-0.8731,-0.8783,-0.8783,-0.8783,-0.8783,-0.894,-0.9325,-0.8672,-0.8479,-0.8835,-0.8235,-0.8021,-0.8316,-0.8316,-0.8316,-0.8316,-0.8036,-0.7746,-0.7489,-0.7773,-0.7807,-0.7689,-0.7569,-0.7198,-0.6717,-0.6574,-0.6135,-0.5595,-0.561,-0.5491,-0.5309,-0.5309,-0.5309,-0.5246,0.0,0.0,0.0,0.0,0.0,0.0,0.0,0.0,0.0,0.0,0.0,0.0,0.0,0.0,-1.8133,0.0,0.0,0.0,-1.843,-1.877,-1.9064,-1.9268,-1.8996,-1.8514,-1.7795,-1.7442,-1.6735,0.0,0.0,0.0,0.0,0.0,0.0,-1.7738,0.0,-1.8353,-1.8717,-1.8789,-1.8877,-1.8995,-1.9075,-1.9061,-1.9017,-1.898,-1.886,-1.8643,-1.8364,-1.7868,-1.7279,-1.6609,0.0,0.0,0.0,0.0,-1.1505,-1.0272,-0.8339,-0.6707,0.0,0.0,0.0,0.0,0.0,0.0,0.0,0.0,0.0,0.0,0.0,0.0,-0.7177,-0.6819,-0.6588,-0.6588,-0.6588,-0.6588,-0.6588,-0.6588,-0.6588,-0.6588,-0.6588,-0.6588,-0.6588,-0.6588,-0.6588,-0.6588,-0.6588,-0.6858,-0.745,-0.6968,-0.6936,-0.7541,-0.7026,-0.6979,-0.7621,-0.7621,-0.7663,-0.7746,-0.7746,-0.7447,-0.6852,-0.6937,-0.686,-0.6573,-0.6295,-0.5742,-0.5108,-0.5123,-0.4901,-0.4538,-0.4922,-0.5087,-0.5087,-0.5087,-0.5087,-0.5023,0.0,0.0,0.0,0.0,0.0,0.0,0.0,0.0,0.0,0.0,-1.873,-1.9063,0.0,-1.7948,-1.7352,-1.7093,-1.7072,-1.7159,-1.7469,0.0,0.0,-1.9209,-1.8842,-1.8342,-1.772,-1.6715,-1.5811,0.0,0.0,0.0,0.0,0.0,0.0,-1.7069,0.0,0.0,-1.8035,-1.8035,-1.8056,-1.808,-1.82,-1.8258,-1.8258,-1.8417,-1.8395,-1.829,-1.8338,-1.8059,-1.7592,-1.7212,-1.6699,0.0,0.0,0.0,-1.2426,-1.0481,-0.861,0.0,0.0,0.0,0.0,0.0,0.0,0.0,0.0,0.0,0.0,0.0,0.0,-0.7279,-0.7254,-0.6915,-0.6588,-0.6588,-0.6588,-0.6588,-0.6588,-0.6588,-0.6588,-0.6588,-0.6588,-0.6588,-0.6588,-0.6588,-0.6588,-0.6588,-0.6588,-0.6642,-0.675,-0.6319,-0.6169,-0.6266,-0.5766,-0.5825,-0.6435,-0.6435,-0.6647,-0.7105,-0.7105,-0.6816,-0.6307,-0.6768,-0.686,-0.6587,-0.6146,-0.5613,-0.505,-0.4669,-0.4335,-0.4091,-0.4151,-0.4188,-0.4188,-0.4188,-0.4188,-0.4118,0.0,0.0,0.0,0.0,0.0,0.0,0.0,0.0,0.0,0.0,0.0,-1.903,-1.8789,-1.7914,-1.7254,-1.7043,-1.6624,-1.6725,-1.7539,-1.8661,-1.9259,-1.9146,-1.8717,-1.8052,-1.7107,0.0,0.0,0.0,0.0,0.0,0.0,-1.3875,-1.4979,0.0,0.0,0.0,0.0,0.0,-1.7687,-1.7915,-1.7945,-1.8267,0.0,0.0,-1.8612,-1.8944,-1.863,-1.8275,-1.7945,-1.7759,-1.7339,-1.6747,-1.5808,0.0,0.0,0.0,0.0,0.0,0.0,0.0,0.0,0.0,0.0,0.0,0.0,0.0,0.0,0.0,-0.4296,-0.5344,-0.5793,-0.5619,-0.5445,-0.5445,-0.5445,-0.5445,-0.5445,-0.5445,-0.5445,-0.5445,-0.5445,-0.5445,-0.5445,-0.5445,-0.5445,-0.5445,-0.5445,-0.5605,-0.5982,-0.5657,-0.5653,-0.598,-0.5616,-0.5523,-0.5701,-0.5696,-0.5825,-0.6033,-0.6033,-0.591,-0.5701,-0.5953,-0.5895,-0.5653,-0.5671,-0.5133,-0.4272,-0.4186,-0.3942,-0.3626,-0.3891,-0.3993,-0.3993,-0.3993,-0.3993,-0.3928,0.0,0.0,0.0,0.0,0.0,0.0,0.0,0.0,0.0,0.0,0.0,-1.8799,-1.8825,0.0,0.0,0.0,-1.6376,-1.6553,-1.7752,-1.8587,-1.9054,-1.913,-1.8627,-1.7834,-1.6642,0.0,0.0,0.0,0.0,0.0,-1.1435,-1.1648,-1.2684,0.0,-1.5443,0.0,0.0,0.0,0.0,0.0,0.0,0.0,0.0,0.0,0.0,0.0,0.0,-1.8627,-1.8429,-1.8218,-1.7876,-1.7452,-1.6813,-1.5652,0.0,0.0,0.0,0.0,0.0,0.0,0.0,0.0,0.0,0.0,0.0,0.0,0.0,0.0,-0.2704,-0.3202,-0.3997,-0.4188,-0.4125,-0.3959,-0.3901,-0.3901,-0.3901,-0.3901,-0.3901,-0.3901,-0.407,-0.4239,-0.4239,-0.4405,-0.4519,-0.4519,-0.4519,-0.4732,-0.5218,-0.4959,-0.5035,-0.5492,-0.5194,-0.5032,-0.5087,-0.5216,-0.5303,-0.5303,-0.5303,-0.5216,-0.5087,-0.5204,-0.4964,-0.4518,-0.4934,-0.452,-0.353,-0.3628,-0.3467,-0.32,-0.3532,-0.3667,-0.3667,-0.3667,-0.3667,-0.363,0.0,0.0,0.0,0.0,0.0,0.0,0.0,0.0,0.0,0.0,0.0,-1.8203,-1.8825,-1.816,-1.7305,-1.6325,-1.622,-1.6671,-1.7812,-1.8111,-1.8536,-1.9172,-1.8628,0.0,-1.6616,0.0,0.0,0.0,0.0,0.0,-0.9266,-0.9993,-1.0532,-1.1073,-1.3642,-1.5021,-1.5418,0.0,0.0,0.0,0.0,-1.7709,0.0,0.0,0.0,0.0,0.0,0.0,-1.9139,-1.8429,-1.8266,-1.8246,0.0,0.0,0.0,0.0,0.0,0.0,0.0,0.0,0.0,0.0,0.0,0.0,0.0,0.0,0.0,0.0,-0.131,-0.1527,-0.2467,-0.3029,-0.3121,-0.2454,-0.2341,-0.2341,-0.2341,-0.2341,-0.2341,-0.2341,-0.301,-0.3456,-0.3456,-0.407,-0.4519,-0.4519,-0.4519,-0.4519,-0.457,-0.424,-0.4076,-0.4118,-0.3833,-0.3932,-0.443,-0.5,-0.5303,-0.5303,-0.5303,-0.5,-0.447,-0.4915,-0.4496,-0.342,-0.3891,-0.3786,-0.3274,-0.2911,-0.2746,-0.2746,-0.2746,-0.2779,-0.2779,-0.2779,-0.2779,-0.2779,0.0,0.0,0.0,0.0,0.0,0.0,0.0,0.0,0.0,0.0,0.0,0.0,0.0,-1.7763,-1.6877,-1.6433,-1.6043,-1.6064,-1.6633,-1.7708,-1.84,-1.8554,-1.8517,-1.7869,-1.6554,0.0,0.0,0.0,0.0,-0.9394,-0.8893,-0.8787,-0.9129,-0.9896,-1.2107,-1.3422,-1.3997,-1.4762,0.0,0.0,-1.6841,-1.776,0.0,0.0,0.0,0.0,0.0,0.0,0.0,0.0,0.0,0.0,0.0,0.0,0.0,0.0,0.0,0.0,0.0,0.0,0.0,0.0,0.0,0.0,0.0,0.0,0.0,0.0534,0.0,-0.0382,-0.0805,-0.184,-0.2514,-0.2238,-0.2174,-0.2174,-0.2174,-0.2174,-0.2174,-0.2174,-0.2454,-0.2619,-0.2619,-0.2843,-0.301,-0.301,-0.3511,-0.379,-0.379,-0.4142,-0.4216,-0.4026,-0.3917,-0.3861,-0.388,-0.4096,-0.4228,-0.4228,-0.4228,-0.41,-0.3877,-0.4077,-0.3799,-0.3198,-0.3335,-0.3265,-0.3024,-0.2787,-0.2712,-0.2712,-0.2712,-0.2513,-0.2247,-0.2247,-0.2075,-0.1807,0.0,0.0,0.0,0.0,0.0,0.0,0.0,0.0,0.0,0.0,0.0,0.0,0.0,0.0,-1.7318,-1.7092,-1.647,-1.6306,-1.681,-1.7884,-1.8541,-1.8655,-1.8681,-1.8093,-1.6799,0.0,0.0,0.0,0.0,0.0,0.0,-0.839,-0.8553,-0.9332,-1.0781,-1.1953,0.0,0.0,0.0,-1.524,0.0,-1.7593,-1.8313,0.0,0.0,0.0,0.0,0.0,0.0,0.0,0.0,0.0,0.0,0.0,0.0,0.0,0.0,0.0,0.0,0.0,0.0,0.0,0.0,0.0,0.0,0.0,0.0,0.1381,0.0852,0.0452,0.0063,-0.08,-0.1488,-0.1465,-0.1452,-0.1452,-0.1452,-0.1452,-0.1452,-0.1452,-0.1675,-0.184,-0.184,-0.2063,-0.2174,-0.2174,-0.2676,0.0,-0.301,-0.3421,-0.3635,-0.3624,-0.3821,-0.3849,-0.3653,-0.3602,-0.3581,-0.3581,-0.3581,-0.3581,-0.3578,-0.3571,-0.3392,-0.3152,-0.3055,-0.2857,-0.2577,-0.2484,-0.2377,-0.2242,-0.2242,-0.2042,-0.1778,-0.1778,-0.1573,-0.1305,0.0,0.0,0.0,0.0,0.0,0.0,0.0,0.0,0.0,0.0,0.0,0.0,0.0,0.0,0.0,-1.8204,-1.7503,-1.7498,-1.8409,-1.861,-1.8957,-1.955,-1.9158,-1.8395,-1.7344,-1.5377,0.0,0.0,0.0,0.0,0.0,0.0,-0.8926,0.0,-0.9737,-1.0692,-1.2033,0.0,-1.3643,-1.4516,0.0,-1.7119,-1.7684,0.0,0.0,0.0,-2.0787,-2.1396,0.0,-2.1884,0.0,0.0,0.0,0.0,0.0,0.0,0.0,0.0,0.0,0.0,0.0,0.0,0.0,0.0,0.1738,0.0,0.1612,0.1214,0.125,0.113,0.0259,0.0065,0.0063,0.0057,0.0,0.0,0.0,0.0,0.0,0.0,-0.0615,-0.1062,-0.1062,-0.173,-0.212,-0.212,-0.2174,-0.2174,-0.2174,-0.2056,-0.2247,-0.2871,-0.3438,-0.3792,-0.3792,-0.3649,-0.3581,-0.3581,-0.3581,-0.3581,-0.3575,-0.3468,-0.3354,-0.3293,-0.3008,-0.2554,-0.1991,-0.1983,-0.1709,-0.1305,-0.1305,-0.1305,-0.1271,-0.1271,-0.1271,-0.1271,0.0,0.0,0.0,0.0,0.0,0.0,0.0,0.0,0.0,0.0,0.0,0.0,0.0,0.0,0.0,-1.7453,-1.7262,-1.7349,-1.7763,-1.8371,-1.8755,-1.8868,-1.9082,-1.8799,-1.7962,-1.6633,0.0,0.0,0.0,0.0,0.0,0.0,0.0,0.0,-1.0397,-1.0939,-1.174,-1.233,0.0,0.0,-1.55,-1.6972,0.0,0.0,0.0,0.0,0.0,-2.1678,-2.1285,0.0,-2.213,-1.9351,0.0,0.0,0.0,0.0,0.0,0.0,-0.9113,0.0,0.0,0.0,0.0,0.0,0.0709,0.1995,0.2809,0.2532,0.2912,0.2986,0.213,0.1415,0.0952,0.0969,0.0413,0.0,0.0,0.0,0.0,0.0,-0.0168,-0.028,-0.028,-0.0504,-0.0615,0.0,-0.1118,-0.1396,-0.1396,-0.1786,-0.2063,-0.225,-0.2749,-0.2984,-0.2984,-0.3423,-0.3581,-0.3581,-0.3581,-0.3581,-0.3578,-0.3581,-0.3456,-0.3303,-0.3222,-0.2631,-0.172,-0.1908,-0.1709,-0.1305,-0.1305,-0.1106,-0.0873,-0.0873,-0.0638,-0.0369,0.0,0.0,0.0,0.0,0.0,0.0,0.0,0.0,0.0,0.0,0.0,0.0,0.0,0.0,0.0,-1.8079,-1.8111,-1.8235,-1.8443,-1.8939,-1.9212,-1.9103,-1.9285,-1.9084,-1.8466,-1.7228,0.0,0.0,0.0,0.0,0.0,0.0,0.0,0.0,0.0,0.0,0.0,0.0,0.0,0.0,-1.5409,0.0,0.0,-1.8731,-1.9794,0.0,0.0,0.0,-2.167,-2.4338,-2.2851,0.0,0.0,0.0,0.0,0.0,0.0,0.0,0.0,0.0,0.0,0.0,0.0,0.0,-0.0621,0.1148,0.2561,0.0,0.3375,0.3675,0.2875,0.2223,0.1879,0.1888,0.1481,0.0846,0.0117,0.0288,0.0345,0.0058,0.0285,0.0338,0.0057,0.0,0.0,0.0,-0.0392,-0.0615,-0.0615,-0.1262,-0.1629,-0.1629,-0.2157,-0.2419,-0.243,-0.2711,-0.2863,-0.286,-0.3126,-0.3214,-0.3214,-0.349,-0.3396,-0.3049,-0.3207,-0.268,-0.1678,-0.1776,-0.1422,-0.0761,-0.0744,-0.0604,-0.0403,-0.0403,-0.0235,0.0,0.0,0.0,-1.6114,-1.6336,-1.6246,0.0,0.0,0.0,0.0,0.0,0.0,0.0,0.0,0.0,0.0,0.0,-1.9438,-1.9572,-1.9744,-1.9884,-1.9896,-1.9775,-1.9572,-1.928,-1.884,-1.7489,0.0,0.0,0.0,0.0,0.0,0.0,0.0,0.0,-1.192,-1.1957,0.0,0.0,0.0,-1.361,-1.5462,-1.6447,0.0,0.0,-1.9405,-1.9246,-2.1698,-2.2312,-2.2264,-2.4051,-2.3549,0.0,0.0,0.0,0.0,0.0,-1.5756,0.0,0.0,0.0,0.0,0.0,0.0,0.0,-0.2318,-0.0294,0.1339,0.2186,0.309,0.3566,0.2877,0.2694,0.2671,0.2666,0.2605,0.2026,0.0495,0.0842,0.1015,0.0369,0.0762,0.0857,0.0235,0.0057,0.0,0.0,0.0,0.0,0.0,-0.0615,-0.095,-0.095,-0.157,-0.188,-0.1863,-0.1839,-0.1813,-0.1786,-0.2361,-0.2583,-0.2627,-0.317,-0.3126,-0.2622,-0.2955,-0.2605,-0.1703,-0.1562,-0.0949,-0.0109,-0.0034,0.0,0.0,0.0,0.0,0.0,-1.6533,-1.6028,-1.5677,-1.5549,0.0,0.0,0.0,0.0,0.0,0.0,0.0,0.0,0.0,0.0,0.0,0.0,0.0,-1.9456,-1.9559,-1.9585,-1.9585,-1.9572,-1.9376,-1.9175,-1.903,-1.8222,-1.7647,0.0,0.0,0.0,0.0,0.0,0.0,0.0,-1.2756,-1.2685,0.0,0.0,0.0,-1.3838,-1.4225,0.0,-1.7929,-1.7636,-1.9007,-2.1116,-2.1098,-2.0875,-2.0606,-2.0665,-2.1824,-2.2789,0.0,0.0,0.0,-1.7933,0.0,0.0,0.0,0.0,0.0,0.0,0.0,0.0,-0.4559,-0.2242,-0.0151,0.1353,0.2646,0.3459,0.3307,0.2673,0.2318,0.2588,0.2222,0.1982,0.2154,0.2324,0.2321,0.2213,0.1643,0.12,0.106,0.041,0.0,0.0,0.0,0.0,0.0,-0.0112,-0.0224,-0.0224,-0.0813,-0.1098,-0.1109,-0.1549,-0.1813,-0.1786,-0.1919,-0.1962,-0.1962,-0.2097,-0.2097,-0.1962,-0.2079,-0.1686,-0.1084,-0.1066,-0.0904,-0.0686,-0.0206,0.0,0.0,0.0,0.0,0.0,-1.6744,-1.604,-1.5561,-1.5891,0.0,0.0,0.0,0.0,0.0,0.0,0.0,0.0,0.0,0.0,0.0,0.0,0.0,0.0,0.0,0.0,-1.9419,-1.9343,-1.9237,-1.9148,-1.9,-1.8415,-1.7805,0.0,0.0,0.0,0.0,0.0,0.0,0.0,0.0,0.0,0.0,0.0,-1.3131,-1.3592,-1.4732,0.0,-1.7591,-1.8219,-1.9076,-2.0031,-2.0582,-2.0986,-2.1241,-2.0752,-2.1269,0.0,0.0,-2.0438,-1.9965,0.0,-1.7805,-1.7027,0.0,0.0,0.0,-1.1771,0.0,0.0,0.0,-0.4549,-0.2533,-0.0704,0.0723,0.1805,0.2096,0.2254,0.2464,0.2726,0.3294,0.3698,0.3767,0.3479,0.3093,0.2755,0.2629,0.2397,0.2026,0.1153,0.0476,0.0058,0.0,0.0,0.0,0.0,0.0,0.0,-0.0276,-0.043,-0.0467,-0.0749,-0.0913,-0.0923,-0.1219,-0.134,-0.134,-0.1652,-0.1652,-0.1385,-0.165,-0.1456,-0.0905,-0.0886,-0.0886,-0.0823,-0.0242,0.0,0.0,0.0,0.0,0.0,-1.6949,-1.621,-1.5662,-1.6284,0.0,0.0,0.0,0.0,0.0,0.0,0.0,0.0,0.0,0.0,0.0,0.0,0.0,0.0,0.0,0.0,-1.9815,-1.957,-1.9406,-1.9251,-1.9038,-1.842,-1.7704,-1.6876,0.0,0.0,0.0,0.0,0.0,0.0,0.0,0.0,0.0,0.0,0.0,-1.3371,0.0,-1.6231,-1.6613,-1.8377,-1.8613,-1.8318,-1.9934,-2.1099,-2.1792,-2.1407,-2.1032,-2.082,-2.116,-2.057,0.0,0.0,0.0,0.0,0.0,0.0,0.0,0.0,0.0,-1.0126,0.0,0.0,0.0,-0.3329,-0.1847,0.0,0.0,0.0,0.0,0.0,0.0,0.0,0.0,0.4435,0.0,0.3253,0.3563,0.3578,0.2985,0.1913,0.102,0.0295,0.0114,0.0,0.0,0.0,0.0,0.0,0.0,0.0,0.0,0.0,0.0,0.0,-0.0507,-0.0722,-0.0761,-0.1251,-0.1207,-0.0761,-0.1251,-0.1196,-0.0739,-0.0727,-0.0735,-0.0679,-0.0174,0.0,0.0,0.0,0.0,0.0,-1.6224,-1.6101,-1.587,-1.5755,0.0,0.0,0.0,0.0,0.0,0.0,0.0,0.0,0.0,0.0,0.0,0.0,0.0,0.0,-2.0865,0.0,0.0,-2.0815,-2.0235,-1.9783,-1.9521,-1.8596,-1.7895,-1.7492,0.0,0.0,0.0,0.0,0.0,0.0,-1.2321,0.0,0.0,0.0,-1.3144,0.0,-1.4412,-1.5004,0.0,-1.5555,-1.6426,-1.7787,-1.8786,-1.9457,-1.994,0.0,-2.0471,-2.0788,0.0,-2.0239,-2.0746,-1.8152,0.0,0.0,0.0,0.0,0.0,0.0,-1.2365,0.0,-0.9905,0.0,-0.7426,-0.5978,0.0,0.0,0.0,0.0,0.0,0.0,0.0,0.0,0.4407,0.5075,0.5317,0.4793,0.4316,0.3906,0.3722,0.2225,0.1258,0.1173,0.0444,0.0,0.0,0.0,0.0,0.0,0.0,0.0,0.0,0.0,0.0,0.0,-0.0048,-0.0093,-0.009,-0.018,-0.018,-0.009,-0.018,-0.0172,-0.012,-0.0118,-0.0112,-0.0103,-0.0034,0.0,0.0,0.0,0.0,0.0,-1.6812,-1.6424,-1.6291,-1.6869,0.0,0.0,0.0,0.0,0.0,0.0,0.0,0.0,0.0,0.0,0.0,0.0,0.0,-2.1457,0.0,0.0,0.0,0.0,-2.0374,-1.9905,-1.9726,-1.8635,-1.7743,-1.6961,-1.5722,0.0,0.0,0.0,0.0,0.0,-1.2305,0.0,-1.3022,0.0,-1.329,0.0,0.0,0.0,0.0,-1.4849,-1.5948,-1.6995,-1.7693,-1.8521,-1.9266,0.0,-1.9673,0.0,0.0,0.0,0.0,0.0,0.0,0.0,0.0,0.0,0.0,0.0,0.0,0.0,-1.2142,0.0,-1.0274,0.0,0.0,0.0,0.0,0.0,0.0,0.0,0.1117,0.0,0.0,0.0,0.5905,0.0,0.0,0.0,0.4091,0.3808,0.2957,0.1389,0.0984,0.0507,0.0,0.0,0.0,0.0,0.0,0.0,0.0,0.0,0.0,0.0,0.0,0.0,0.0,0.0,0.0,0.0,0.0,0.0,0.0,0.0,0.0,0.0,0.0,0.0,0.0,0.0,0.0,0.0,-1.7337,0.0,0.0,0.0,0.0,0.0,0.0,0.0,0.0,0.0,0.0,0.0,-1.8286,-1.8864,0.0,0.0,-2.1261,-2.1847,0.0,0.0,-2.2422,0.0,0.0,0.0,0.0,-1.9048,-1.7794,-1.6614,0.0,0.0,0.0,0.0,0.0,0.0,0.0,-1.2361,-1.3063,0.0,-1.3131,-1.317,-1.3196,-1.302,-1.2883,-1.4495,-1.5462,-1.6046,-1.6786,-1.7558,-1.831,-1.8877,-1.8725,0.0,-2.0061,-1.9495,-1.8302,0.0,0.0,0.0,-1.5657,0.0,0.0,0.0,0.0,0.0,0.0,0.0,0.0,0.0,0.0,0.0,0.0,0.0,0.0,0.0,0.0,0.1948,0.0,0.4847,0.0,0.0,0.0,0.0,0.0,0.483,0.4081,0.1824,0.1417,0.0918,0.0056,0.0,0.0,0.0,0.0,0.0,0.0,0.0,0.0,0.0,0.0,0.0,0.0,0.0,0.0,0.0,0.0,0.0,0.0,0.0,0.0,0.0,0.0,0.0,0.0,0.0,0.0,0.0,-1.7297,-1.7691,0.0,0.0,0.0,0.0,0.0,0.0,0.0,0.0,0.0,0.0,0.0,0.0,0.0,0.0,0.0,-2.4547,-2.3317,0.0,-2.4127,0.0,0.0,-2.1993,0.0,0.0,-1.842,-1.6905,0.0,0.0,0.0,0.0,0.0,0.0,0.0,-1.0471,-1.0919,-1.1389,-1.2539,-1.3961,-1.3058,-1.3001,-1.3531,0.0,-1.4417,-1.4915,-1.6046,0.0,0.0,-1.7408,-1.7662,-1.7712,-1.8031,0.0,0.0,0.0,0.0,0.0,0.0,0.0,0.0,-1.4501,0.0,0.0,0.0,0.0,-1.3271,0.0,0.0,0.0,0.0,0.0,0.0,0.0,0.0,0.0,0.0,0.0,0.0,0.0,0.0,0.0,0.0,0.4664,0.3754,0.0,0.1767,0.0896,0.0056,0.0,0.0,0.0,0.0,0.0,0.0,0.0,0.0,0.0,0.0,0.0,0.0,0.0,0.0,0.0,0.0,0.0,0.0,0.0,0.0,0.0,0.0,0.0,0.0,0.0,0.0,0.0,-1.8009,0.0,0.0,0.0,0.0,0.0,0.0,-1.7638,0.0,0.0,0.0,0.0,0.0,-2.0139,-2.1149,0.0,0.0,-2.3734,-2.4029,-2.4001,0.0,0.0,0.0,-2.213,0.0,0.0,0.0,0.0,0.0,0.0,0.0,0.0,0.0,0.0,0.0,-1.0686,0.0,0.0,0.0,0.0,0.0,-1.278,-1.2805,0.0,-1.4003,-1.419,-1.4994,-1.5508,-1.5917,-1.6574,-1.6836,-1.7009,-1.7794,-1.7648,-1.719,-1.7405,-1.7078,-1.6631,-1.6459,-1.6556,-1.6548,-1.5679,0.0,0.0,0.0,0.0,0.0,0.0,0.0,0.0,0.0,0.0,0.0,0.0,0.0,0.0,0.0,0.0,0.0,0.0,0.0,0.0,0.0,0.0,0.0,0.0,0.2264,0.0,0.0056,0.0,0.0,0.0,0.0,0.0,0.0,0.0,0.0,0.0,0.0,0.0,0.0,0.0,0.0,0.0,0.0,0.0,0.0,0.0,0.0,0.0,0.0,0.0,0.0,0.0,0.0,0.0,-1.8344,0.0,0.0,0.0,0.0,0.0,0.0,0.0,0.0,0.0,-1.8461,0.0,-1.8947,0.0,-2.0337,0.0,-2.2139,-2.2994,-2.3544,-2.3667,0.0,-2.4116,-2.303,0.0,0.0,0.0,0.0,0.0,0.0,-1.605,0.0,0.0,0.0,0.0,0.0,-1.0329,-1.0736,0.0,-1.1947,0.0,0.0,-1.2366,0.0,0.0,-1.2944,-1.3336,-1.4089,-1.4619,-1.4993,-1.5596,-1.5837,-1.6021,-1.6883,-1.6692,-1.6279,-1.6938,-1.674,-1.6342,-1.6601,-1.7056,-1.7222,-1.6406,-1.6818,-1.7158,-1.6203,0.0,-1.5165,0.0,0.0,0.0,0.0,0.0,0.0,0.0,0.0,0.0,0.0,0.1764,0.0,0.0,0.0,0.0,0.0,0.0,0.0,0.0,0.0,0.0,0.0,0.0,0.0,0.0,0.0,0.0,0.0,0.0,0.0,0.0,0.0,0.0,0.0,0.0,0.0,0.0,0.0,0.0,0.0,0.0,0.0,0.0,0.0,0.0,0.0,0.0,0.0,0.0,-1.8319,-1.7828,0.0,0.0,-1.8055,0.0,0.0,0.0,-1.7901,0.0,-1.8681,-1.8661,-1.8767,-2.0237,-2.0887,-2.0213,-2.1664,-2.251,-2.216,-2.3004,0.0,0.0,-2.367,-2.3437,-2.3176,0.0,0.0,0.0,0.0,0.0,0.0,0.0,0.0,0.0,-0.945,0.0,-1.0454,-1.0205,-1.1202,-1.2821,-1.2134,-1.1878,-1.1732,-1.1085,-1.1345,-1.2229,-1.334,-1.3721,-1.3815,-1.4422,-1.4663,-1.4732,-1.5306,-1.546,-1.5668,-1.6751,-1.7096,-1.7032,-1.6797,-1.6883,-1.6985,-1.6639,-1.6754,-1.6891,-1.6734,-1.6264,-1.6038,0.0,0.0,0.0,0.0,0.0,0.0,0.0,0.0,0.0,0.0,0.0,0.0,0.0,0.0,0.0,0.0,0.0,0.0,0.0,0.0,0.0,0.0,0.0,0.0,0.0,0.0,0.0,0.0,0.0,0.0,0.0,0.0,0.0,0.0,0.0,0.0,0.0,0.0,0.0,0.0,0.0,0.0,0.0,0.0,0.0,0.0,0.0,0.0,0.0,-1.7882,-1.738,-1.7005,0.0,-1.7393,-1.7652,0.0,0.0,0.0,0.0,-1.8447,-1.8753,-1.8935,-2.0136,-2.0831,-2.0636,-2.145,0.0,0.0,0.0,0.0,-2.4175,-2.3533,-2.3439,-2.4003,-2.27,-2.168,-2.097,0.0,0.0,-1.637,0.0,0.0,0.0,0.0,0.0,-1.0087,-1.0249,-1.0644,-1.1238,-1.1733,-1.1352,-1.06,0.0,-1.0747,-1.0863,-1.1914,-1.2307,-1.2502,-1.3663,-1.405,-1.4143,-1.4721,-1.4903,-1.4949,-1.5252,-1.533,-1.5428,-1.5752,-1.6195,-1.6484,-1.6101,-1.6844,-1.7504,-1.692,-1.6623,-1.6713,-1.7513,-1.7,-1.6562,-1.7015,0.0,0.0,0.0,0.0,0.0,0.0,0.0,0.0,-0.0172,0.0,0.0,0.0,0.0,0.0,0.0,0.0,0.0,0.0,0.0,0.0,0.0,0.0,0.0,0.0,0.0,0.0,0.0,0.0,0.0,0.0,0.0,0.0,0.0,0.0,0.0,0.0,0.0,0.0,0.0,0.0,0.0,0.0,0.0,0.0,0.0,-1.7366,-1.6824,0.0,-1.6349,0.0,0.0,-1.7041,-1.7136,0.0,-1.7571,-1.7798,0.0,-1.8423,-1.9213,-1.9788,-1.9984,-2.0593,0.0,-2.1587,0.0,0.0,-2.3338,-2.3071,-2.3209,-2.3983,-2.3064,0.0,-2.1476,0.0,0.0,-1.6738,0.0,0.0,0.0,0.0,-1.0508,0.0,-1.045,-1.0393,-1.0258,-1.0718,-1.0431,0.0,-0.9888,-0.9804,-0.9718,-1.0596,-1.1116,-1.1466,-1.2239,-1.2492,-1.2531,-1.2908,-1.3195,-1.3501,-1.3784,-1.4086,-1.4411,-1.5016,-1.5596,-1.6059,-1.6048,-1.6837,-1.7594,-1.7356,-1.7253,-1.7423,-1.8155,-1.7785,-1.753,-1.8089,-1.7547,0.0,0.0,0.0,0.0,0.0,0.0,0.0,0.0,-0.2794,0.0,0.0,0.0,0.0,0.0,0.0,0.0,0.0,0.0,-0.0215,-0.0219,-0.0056,0.0,0.0,0.0,0.0,0.0,0.0,0.0,0.0,0.0,0.0,0.0,0.0,0.0,0.0,0.0,0.0,0.0,0.0,0.0,0.0,0.0,0.0,0.0,-1.6931,-1.6435,0.0,0.0,0.0,0.0,0.0,-1.6405,0.0,-1.686,0.0,-1.6961,-1.7542,-1.7904,-1.8296,-1.8833,0.0,-1.9879,-2.0174,-2.1002,-2.1657,-2.2033,-2.2363,-2.2875,-2.3465,-2.305,-2.2364,0.0,0.0,0.0,0.0,0.0,0.0,0.0,0.0,0.0,0.0,-1.066,-1.0305,-0.9702,-0.9694,-0.9506,-0.915,-0.8918,-0.8804,-0.8857,-0.9465,-1.0115,-1.0661,-1.0762,-1.0813,-1.0813,-1.0813,-1.1216,-1.1805,-1.2483,-1.3072,-1.3653,-1.4207,-1.4869,-1.5481,-1.5979,-1.6629,-1.733,-1.7731,-1.7927,-1.8144,-1.8649,-1.8306,-1.8298,-1.9431,-1.8336,0.0,0.0,0.0,0.0,0.0,0.0,0.0,0.0,0.0,0.0,0.0,0.0,0.0,0.0,0.0,0.0,0.0,0.0,-0.0427,-0.0429,-0.0166,0.0,0.0,0.0,0.0,0.0,0.0,0.0,0.0,0.0,0.0,0.0,0.0,0.0,0.0,0.0,0.0,0.0,0.0081,0.0079,0.0,0.0197,0.0186,0.0103,-1.7111,0.0,0.0,0.0,0.0,-1.5483,-1.5616,-1.5773,-1.5812,-1.5649,-1.569,-1.5986,-1.6585,-1.7111,-1.7678,-1.8282,-1.8437,0.0,0.0,0.0,0.0,-2.1704,-2.1829,-2.2193,-2.283,-2.2439,-2.196,0.0,0.0,0.0,0.0,0.0,0.0,0.0,0.0,0.0,-1.08,-1.0755,0.0,-0.9728,-0.9717,-0.9506,-0.915,-0.8918,-0.8804,-0.8804,-0.8956,-0.9413,-1.0064,-1.061,-1.0813,-1.0813,-1.0813,-1.0864,-1.1116,-1.1756,-1.2052,-1.2231,-1.2553,-1.3393,-1.4268,-1.4442,-1.5562,-1.6771,-1.7304,-1.8096,-1.8757,-1.8846,-1.9104,-1.9346,-1.9321,-1.8765,-1.7971,0.0,0.0,0.0,0.0,0.0,0.0,0.0,0.0,-0.8208,0.0,0.0,0.0,0.0,0.0,0.0,0.0,0.0,-0.0485,0.0,-0.0056,0.0,0.0,0.0,0.0,0.0,0.0,0.0,0.0,0.0,0.0,0.0,0.0,0.0,0.0,0.0,0.0,0.0044,0.0549,0.0456,0.0124,0.111,0.1159,0.072,0.0,0.0,0.0,0.0,0.0,0.0,0.0,-1.4799,-1.4722,-1.4978,-1.5033,-1.515,-1.5279,-1.5963,-1.6654,-1.7237,-1.7567,-1.8143,-1.9008,-1.933,-1.9865,-2.0786,-2.1083,-2.1534,-2.2146,-2.2005,-2.1497,-2.0739,0.0,0.0,0.0,0.0,0.0,0.0,0.0,-1.1866,0.0,0.0,-1.0226,-0.9529,-0.9616,-0.9419,-0.9005,-0.8858,-0.8804,-0.8804,-0.8804,-0.9008,-0.9309,-0.9666,-0.965,-0.9567,-0.9567,-0.9886,-1.0308,-1.0634,-1.1163,-1.1741,-1.1843,-1.2521,-1.3303,-1.3957,-1.4899,-1.5985,-1.7057,-1.7907,-1.8574,-1.8855,-1.9332,-1.9587,-1.9165,-1.8764,-1.8222,-1.7425,-1.6539,0.0,0.0,0.0,-1.3161,0.0,0.0,0.0,0.0,0.0,0.0,0.0,0.0,0.0,0.0,0.0,-0.1763,0.0,0.0,0.0,-0.056,0.0,-0.0392,0.0,0.0,0.0,0.0,0.0,0.0,0.0,0.0,0.0,0.0,0.0,0.0,0.0045,0.0657,0.0738,0.0563,0.1479,0.1635,0.1371,0.0,-1.6117,0.0,0.0,-1.5213,-1.4704,-1.4599,-1.3991,-1.376,-1.4355,-1.4391,-1.4294,-1.4201,-1.4824,-1.5427,-1.5986,-1.6517,-1.7048,-1.7589,-1.8019,-1.8585,-1.9323,-1.9759,-2.0377,-2.1253,-2.1253,-2.0893,0.0,0.0,0.0,0.0,0.0,0.0,0.0,0.0,0.0,0.0,-1.0805,-1.0143,-0.9312,-0.9586,-0.9332,-0.8804,-0.8804,-0.8804,-0.8804,-0.8804,-0.8804,-0.8804,-0.8804,-0.8657,-0.8508,-0.8591,-0.9104,-0.9768,-0.9964,-1.0723,-1.1518,-1.1465,-1.1877,-1.2552,-1.3408,-1.4048,-1.4909,-1.6466,-1.7223,-1.7809,-1.8584,-1.9244,-1.9551,-1.9079,-1.8803,-1.8449,-1.77,-1.6785,0.0,0.0,0.0,0.0,0.0,0.0,0.0,-1.0377,0.0,0.0,0.0,0.0,0.0,-0.26,0.0,0.0,0.0,0.0,-0.1842,-0.1228,0.0,-0.056,0.0,0.0,0.0,0.0,0.0,0.0,0.0,0.0,0.0,0.0,0.0,0.009,0.0269,0.0851,0.1073,0.1163,0.1919,0.2097,0.2031,0.0,0.0,0.0,0.0,0.0,-1.4672,-1.4237,-1.3922,-1.3731,-1.3608,-1.3303,-1.3286,-1.3779,-1.3909,-1.4212,-1.4811,-1.4914,-1.5175,-1.5711,-1.5791,-1.6272,-1.7226,-1.7317,-1.8152,-1.9851,-1.9915,-2.007,0.0,0.0,-1.8768,-1.7032,0.0,0.0,0.0,0.0,-1.2122,-1.0726,-1.071,-1.0096,-0.9225,-0.9552,-0.9332,-0.8804,-0.8804,-0.8804,-0.8804,-0.8804,-0.8804,-0.8804,-0.8804,-0.8791,-0.8822,-0.9184,-0.9515,-0.9961,-1.0807,-1.1127,-1.1214,-1.1012,-1.1368,-1.1836,-1.205,-1.245,-1.3242,-1.4838,-1.5611,-1.6427,-1.7903,-1.9006,-1.9551,-1.9079,-1.931,-1.9129,-1.7726,-1.7265,-1.6561,-1.5012,0.0,-1.3453,-1.2489,0.0,0.0,-1.0214,-0.8931,0.0,0.0,-0.5312,0.0,0.0,0.0,0.0,-0.306,-0.2259,-0.1783,-0.1728,-0.0671,-0.0056,0.0,0.0,0.0,0.0,0.0,0.0,0.0,0.0,0.0,0.0,0.0,0.0314,0.0895,0.1474,0.1697,0.1875,0.2993,0.3081,0.2716,0.0,0.0,-1.6123,-1.5239,-1.4695,-1.4265,-1.3799,-1.3492,-1.3212,-1.3155,-1.33,-1.3372,-1.3286,-1.36,-1.392,-1.4143,-1.4468,-1.4787,-1.5025,-1.5317,-1.5665,-1.6058,-1.6706,-1.7363,-1.8059,-1.8313,-1.851,0.0,0.0,0.0,0.0,0.0,-1.5145,-1.3442,-1.3086,-1.2172,-1.0916,-1.0527,-0.9991,-0.9499,-0.9439,-0.9172,-0.8804,-0.8804,-0.8804,-0.8804,-0.8804,-0.8804,-0.8784,-0.8604,-0.855,-0.8677,-0.9232,-0.9568,-0.9866,-1.0373,-1.0754,-1.0937,-1.0612,-1.0686,-1.1023,-1.1739,-1.2206,-1.2872,-1.4167,-1.5338,-1.6325,-1.6959,-1.8221,-1.9244,-1.9401,-1.9355,-1.8966,-1.8026,-1.6969,-1.5865,-1.4858,0.0,0.0,-1.2683,0.0,-1.1978,0.0,-1.0285,0.0,0.0,0.0,0.0,0.0,0.0,0.0,-0.368,0.0,-0.2413,-0.138,-0.0903,-0.0448,0.0,0.0,0.0,0.0,0.0,0.0,0.0,0.0404,0.0538,0.0583,0.094,0.1206,0.1518,0.2095,0.2361,0.2453,0.3306,0.3442,0.3262,-1.6497,-1.6108,-1.5605,-1.4746,-1.4336,-1.3902,-1.3408,-1.3204,-1.3104,-1.2929,-1.342,-1.3552,-1.2978,-1.3286,-1.3552,-1.3552,-1.3931,-1.4154,-1.4154,-1.4525,-1.4812,-1.4904,-1.5604,0.0,-1.6693,-1.6971,-1.7189,-1.7379,-1.7155,-1.6749,-1.6158,-1.5913,-1.4911,-1.3286,-1.3051,-1.2131,-1.0749,-1.0288,-0.99,-0.9532,-0.9269,-0.901,-0.8804,-0.8804,-0.8804,-0.8804,-0.8804,-0.8804,-0.8778,-0.8571,-0.8504,-0.8636,-0.9456,-0.9707,-0.98,-1.0295,-1.049,-1.0442,-1.0043,-0.9888,-1.0028,-1.0755,-1.1398,-1.2098,-1.3162,-1.4442,-1.561,-1.6268,-1.7491,-1.8584,-1.9132,-1.8971,-1.8528,-1.7944,-1.6703,-1.5499,-1.4563,-1.3684,0.0,-1.2194,-1.2263,-1.21,-1.1453,-1.0751,0.0,0.0,0.0,0.0,0.0,0.0,0.0,0.0,0.0,0.0,-0.129,-0.0967,-0.0504,0.0,0.0,0.0,0.0,0.0,0.0095,0.0269,0.0716,0.0984,0.1207,0.1607,0.1919,0.2097,0.2539,0.2807,0.3034,0.3442,0.3581,0.3581,-1.5508,-1.542,-1.5146,-1.4233,-1.4087,-1.3857,-1.3018,-1.342,-1.36,-1.2968,-1.342,-1.3552,-1.2978,-1.2929,-1.2929,-1.2929,-1.2929,-1.2929,-1.2929,-1.2929,-1.3126,-1.3486,-1.3516,-1.4314,-1.5858,-1.5944,-1.6493,-1.7622,-1.7075,-1.6693,-1.6492,-1.5658,-1.4478,-1.2935,-1.2877,-1.1846,-1.0114,-1.0114,-0.978,-0.919,-0.9183,-0.901,-0.8804,-0.8804,-0.8804,-0.8804,-0.8804,-0.8804,-0.8804,-0.8804,-0.8804,-0.9006,-1.0059,-1.0137,-0.9987,-1.0898,-1.0478,-0.9604,-0.9215,-0.8906,-0.8716,-0.8724,-0.9447,-1.0419,-1.1492,-1.2467,-1.3762,-1.5967,-1.686,-1.7396,-1.8013,-1.8131,-1.7933,-1.7394,-1.6773,-1.578,-1.3964,-1.3747,0.0,-1.0519,-1.1345,-1.1621,-1.0318,-0.9591,0.0,0.0,0.0,0.0,0.0,-0.4706,-0.4218,-0.4215,-0.2672,0.0,-0.1815,-0.0626,0.0,0.0,0.0,0.0,0.0,0.0,0.0314,0.0895,0.0895,0.1251,0.1784,0.1786,0.214,0.2672,0.2716,0.3078,0.3578,0.3581,0.3581,0.3581,-1.5937,-1.5859,-1.5488,-1.4282,-1.4077,-1.3848,-1.3008,-1.3055,-1.3104,-1.2929,-1.3065,-1.3104,-1.2929,-1.2881,-1.2881,-1.2881,-1.2881,-1.2881,-1.2881,-1.2881,-1.2939,-1.3076,-1.335,-1.3736,-1.4252,-1.4543,-1.4871,-1.5219,-1.5029,-1.508,-1.5289,-1.5326,-1.4495,-1.2998,-1.2998,-1.191,-1.01,-0.9907,-0.9599,-0.9163,-0.9025,-0.8891,-0.8804,-0.8804,-0.8804,-0.8804,-0.8804,-0.8804,-0.8804,-0.8804,-0.8804,-0.8942,-0.9745,-0.9877,-0.99,-1.0392,-1.0298,-0.9943,-0.9493,-0.918,-0.8954,-0.8954,-0.9389,-1.0046,-1.0881,-1.2398,-1.3984,-1.5481,-1.5941,-1.6358,-1.7301,-1.7152,-1.6809,-1.6718,-1.5811,-1.4677,-1.328,-1.2725,-1.2006,-1.0756,-1.165,-1.2202,-1.1822,-1.1325,0.0,0.0,0.0,0.0,0.0,-0.4584,-0.3843,-0.3325,-0.2119,0.0,-0.0588,-0.0171,0.0,0.0,0.0,0.0,0.0,0.0436,0.0701,0.0932,0.1763,0.2228,0.245,0.2857,0.3129,0.3306,0.3306,0.3442,0.3581,0.3581,0.3581,0.3581,-1.5703,-1.5713,-1.541,-1.4121,-1.398,-1.3848,-1.3008,-1.2881,-1.2881,-1.2881,-1.2881,-1.2881,-1.2881,-1.2881,-1.2881,-1.2881,-1.2881,-1.2881,-1.2881,-1.2881,-1.2881,-1.2881,-1.3135,-1.335,-1.3506,-1.3769,-1.3975,-1.4077,-1.3857,-1.3936,-1.4301,-1.4305,-1.3638,-1.2374,-1.2374,-1.1398,-0.978,-0.9593,-0.9345,-0.901,-0.8878,-0.8804,-0.8804,-0.8804,-0.8804,-0.8804,-0.8804,-0.8804,-0.8804,-0.8804,-0.8804,-0.8857,-0.9309,-0.9413,-0.9526,-0.9911,-0.9813,-0.9478,-0.9177,-0.8875,-0.867,-0.867,-0.9143,-0.9792,-1.0591,-1.1988,-1.3301,-1.4277,-1.4699,-1.5161,-1.6083,-1.5929,-1.5612,-1.5416,-1.454,-1.3476,-1.2201,-1.1688,-1.1115,-1.029,-1.1251,-1.1894,-1.18,-1.1472,-1.067,0.0,0.0,0.0,0.0,-0.4008,-0.3384,-0.2745,-0.1494,-0.0536,0.0,0.0,0.0,0.0,0.0,0.0163,0.0424,0.08,0.1265,0.1745,0.2503,0.2987,0.3222,0.3602,0.371,0.3663,0.3724,0.371,0.3659,0.3659,0.3697,0.3731,-1.499,-1.5146,-1.5019,-1.3769,-1.3877,-1.3848,-1.3008,-1.2881,-1.2891,-1.292,-1.293,-1.2939,-1.2969,-1.2939,-1.293,-1.293,-1.2842,-1.2832,-1.2881,-1.2832,-1.2774,-1.2881,-1.2832,-1.3007,-1.3457,-1.3467,-1.3601,-1.3937,-1.3303,-1.3121,-1.3432,-1.2828,-1.2081,-1.13,-1.13,-1.0494,-0.9183,-0.9183,-0.9017,-0.8804,-0.8804,-0.8804,-0.8804,-0.8804,-0.8804,-0.8804,-0.8804,-0.8804,-0.8804,-0.8804,-0.8804,-0.8804,-0.8804,-0.8804,-0.891,-0.9562,-0.911,-0.8404,-0.8404,-0.819,-0.7915,-0.7915,-0.8685,-0.9608,-1.0537,-1.1266,-1.1904,-1.2522,-1.3168,-1.3862,-1.4468,-1.4514,-1.4307,-1.3705,-1.3042,-1.2113,-1.0814,-1.0637,-1.0295,-0.9303,-1.0282,-1.0939,-1.06,-1.0293,-0.9552,-0.822,0.0,0.0,0.0,-0.3145,-0.2829,-0.2392,-0.0858,0.0,0.0,0.0,0.0,0.0,0.0054,0.0427,0.1117,0.1182,0.192,0.3079,0.3118,0.3468,0.4019,0.4019,0.3934,0.3822,0.3965,0.3931,0.3805,0.3795,0.3887,0.3978,-1.5303,-1.5342,-1.5107,-1.415,-1.4009,-1.3848,-1.3008,-1.2881,-1.2998,-1.332,-1.3359,-1.3477,-1.3799,-1.3555,-1.3359,-1.3359,-1.2572,-1.2295,-1.2871,-1.1891,-1.1792,-1.2832,-1.2344,-1.2391,-1.3027,-1.3027,-1.2809,-1.2356,-1.2044,-1.1916,-1.201,-1.2142,-1.1769,-1.1012,-1.1012,-1.035,-0.9183,-0.9183,-0.9017,-0.8804,-0.8804,-0.8804,-0.8804,-0.8804,-0.8804,-0.8804,-0.8804,-0.8804,-0.8804,-0.8804,-0.8804,-0.8804,-0.8804,-0.8804,-0.8857,-0.9008,-0.8856,-0.8704,-0.8704,-0.849,-0.827,-0.827,-0.8848,-0.9517,-0.9944,-1.0568,-1.1057,-1.1258,-1.1805,-1.2492,-1.311,-1.2822,-1.258,-1.2956,-1.1545,-1.0351,-1.0049,-0.9518,-0.9134,-0.8906,-0.994,-1.0607,-1.0508,-1.0447,-0.9877,-0.8566,0.0,-0.5584,-0.3884,-0.2693,-0.191,-0.1425,-0.0523,0.0,0.0,0.0,0.0,0.0,0.0555,0.0939,0.1158,0.2184,0.2778,0.3141,0.361,0.387,0.4019,0.4019,0.3999,0.3968,0.4005,0.3995,0.3951,0.3836,0.3887,0.3978,-1.5156,-1.5283,-1.5137,-1.4233,-1.4297,-1.4209,-1.3555,-1.3457,-1.3535,-1.3769,-1.3789,-1.3887,-1.4058,-1.3609,-1.3203,-1.3203,-1.2369,-1.1972,-1.2344,-1.1375,-1.1124,-1.19,-1.1575,-1.1525,-1.194,-1.195,-1.1733,-1.1366,-1.0916,-1.078,-1.0947,-1.0817,-1.052,-1.0136,-1.0136,-0.9688,-0.9038,-0.9038,-0.8951,-0.8804,-0.8804,-0.8804,-0.8804,-0.8804,-0.8804,-0.8804,-0.8804,-0.8804,-0.8804,-0.8804,-0.8804,-0.8804,-0.8804,-0.8804,-0.8804,-0.8804,-0.8804,-0.8804,-0.8804,-0.8691,-0.8571,-0.8571,-0.8864,-0.9154,-0.9325,-0.9865,-1.0364,-1.0364,-1.0864,-1.1458,-1.1846,-1.1607,-1.1358,-1.144,-1.029,-0.9351,-0.934,-0.8813,-0.8359,-0.8302,-0.8984,-0.9315,-0.8971,-0.8971,-0.8515,-0.7488,-0.6164,-0.4728,-0.3187,-0.2058,-0.1386,-0.1174,-0.0405,0.0,0.0,0.0,0.0168,0.0504,0.0895,0.1452,0.2174,0.2902,0.342,0.3743,0.4098,0.4222,0.4222,0.4222,0.4185,0.408,0.4195,0.4182,0.4063,0.4029,0.4094,0.4178,-1.4951,-1.5166,-1.5166,-1.4365,-1.4541,-1.4639,-1.4145,-1.4077,-1.4107,-1.4228,-1.4238,-1.4204,-1.4262,-1.3606,-1.3122,-1.3012,-1.2271,-1.1793,-1.1793,-1.1031,-1.0648,-1.0853,-1.0744,-1.0712,-1.0813,-1.0712,-1.0669,-1.0669,-0.9961,-0.9806,-1.0078,-0.9439,-0.9117,-0.9117,-0.9117,-0.9038,-0.8804,-0.8804,-0.8804,-0.8804,-0.8804,-0.8804,-0.8804,-0.8804,-0.8804,-0.8804,-0.8804,-0.8804,-0.8804,-0.8646,-0.8646,-0.8593,-0.848,-0.848,-0.848,-0.848,-0.848,-0.8533,-0.8752,-0.8804,-0.8804,-0.8804,-0.8804,-0.8804,-0.8804,-0.9263,-0.9666,-0.9666,-1.0167,-1.0669,-1.0669,-1.0669,-1.0466,-0.9917,-0.9213,-0.8788,-0.8823,-0.8223,-0.7792,-0.77,-0.7862,-0.7711,-0.7094,-0.7038,-0.6695,-0.5844,-0.4786,-0.3593,-0.2092,-0.1362,-0.0963,-0.1107,-0.0409,0.0,0.0,0.0112,0.0504,0.1118,0.134,0.212,0.34,0.3511,0.3901,0.4519,0.4519,0.4519,0.4519,0.4519,0.4392,0.4241,0.4412,0.4389,0.4224,0.4204,0.4338,0.4474,-1.5322,-1.5371,-1.5254,-1.4766,-1.4736,-1.4639,-1.4145,-1.4077,-1.4268,-1.4639,-1.4687,-1.4824,-1.5176,-1.478,-1.4222,-1.3537,-1.2479,-1.1831,-1.1729,-1.0265,-0.9962,-1.1178,-1.0418,-1.0218,-1.0762,-1.0269,-0.9961,-0.9961,-0.9263,-0.8983,-0.903,-0.8924,-0.8878,-0.8878,-0.8878,-0.8851,-0.8804,-0.8804,-0.8804,-0.8804,-0.8804,-0.8804,-0.8804,-0.8804,-0.8804,-0.8804,-0.8804,-0.8804,-0.8699,-0.8103,-0.7883,-0.7777,-0.7128,-0.6966,-0.6966,-0.6966,-0.6966,-0.7235,-0.848,-0.8804,-0.8804,-0.8804,-0.8804,-0.8804,-0.8804,-0.8857,-0.8956,-0.8956,-0.9465,-0.9961,-0.9961,-0.9961,-0.9917,-0.9814,-0.8731,-0.81,-0.8692,-0.7635,-0.7036,-0.761,-0.7214,-0.6802,-0.6693,-0.6693,-0.6132,-0.4739,-0.3938,-0.2832,-0.135,-0.0561,-0.0168,-0.0226,-0.0057,0.0,0.0,0.0615,0.1006,0.1118,0.2343,0.3065,0.3345,0.4015,0.4405,0.4519,0.4519,0.4519,0.4519,0.4519,0.4505,0.4433,0.4508,0.4501,0.4412,0.4241,0.4338,0.4474,-1.541,-1.541,-1.5352,-1.5156,-1.5117,-1.5059,-1.4853,-1.4824,-1.4893,-1.5098,-1.5117,-1.5195,-1.5391,-1.4461,-1.3708,-1.3296,-1.2004,-1.1144,-1.1085,-1.0068,-0.9756,-1.0409,-1.0,-0.9781,-0.9923,-0.9499,-0.9263,-0.9263,-0.8956,-0.8804,-0.8804,-0.8804,-0.8804,-0.8804,-0.8804,-0.8804,-0.8804,-0.8804,-0.8804,-0.8752,-0.8374,-0.8209,-0.8209,-0.8209,-0.8209,-0.8262,-0.8646,-0.8533,-0.8156,-0.783,-0.745,-0.7074,-0.6696,-0.6588,-0.6588,-0.6588,-0.6588,-0.675,-0.745,-0.7616,-0.7616,-0.7616,-0.7616,-0.7616,-0.7616,-0.7616,-0.7616,-0.7616,-0.7871,-0.8178,-0.8606,-0.8666,-0.8778,-0.9204,-0.8495,-0.7936,-0.819,-0.7389,-0.6717,-0.6563,-0.6199,-0.5873,-0.55,-0.5105,-0.4604,-0.3886,-0.2777,-0.1836,-0.1117,-0.0392,0.0,0.0,0.0392,0.0616,0.0616,0.134,0.1898,0.2286,0.301,0.3566,0.3959,0.4349,0.4519,0.4519,0.4519,0.4519,0.4519,0.4519,0.4519,0.4519,0.4519,0.4519,0.4512,0.4389,0.4406,0.4498,-1.541,-1.541,-1.541,-1.541,-1.541,-1.541,-1.541,-1.541,-1.541,-1.541,-1.541,-1.541,-1.541,-1.4332,-1.3433,-1.3009,-1.1849,-1.0989,-1.0624,-1.0201,-0.9853,-0.9786,-0.9719,-0.9546,-0.919,-0.9092,-0.8978,-0.8911,-0.8978,-0.8978,-0.8911,-0.8911,-0.8871,-0.8804,-0.8646,-0.8533,-0.8533,-0.8374,-0.8374,-0.848,-0.7723,-0.7563,-0.767,-0.7503,-0.7563,-0.7777,-0.8156,-0.8049,-0.767,-0.7283,-0.6799,-0.6312,-0.615,-0.61,-0.61,-0.61,-0.61,-0.6209,-0.6534,-0.6588,-0.6588,-0.6588,-0.6588,-0.6588,-0.6588,-0.6588,-0.6588,-0.6588,-0.6588,-0.675,-0.7343,-0.745,-0.7616,-0.8209,-0.793,-0.7604,-0.7481,-0.697,-0.6283,-0.5579,-0.5378,-0.4999,-0.4294,-0.3735,-0.3231,-0.2899,-0.1786,-0.1006,-0.0838,-0.028,0.0,0.0,0.0727,0.1118,0.1118,0.2009,0.2732,0.3345,0.3566,0.3959,0.4519,0.4519,0.4519,0.4519,0.4519,0.4519,0.4519,0.4519,0.4519,0.4519,0.4519,0.4519,0.4519,0.4519,0.4519,0.4519,-1.541,-1.541,-1.541,-1.541,-1.541,-1.541,-1.541,-1.541,-1.541,-1.541,-1.541,-1.541,-1.541,-1.5294,-1.4628,-1.313,-1.2887,-1.2212,-1.0688,-1.0584,-1.0374,-1.0094,-0.9826,-0.9546,-0.919,-0.9486,-0.9486,-0.915,-0.9486,-0.9479,-0.915,-0.915,-0.9065,-0.8752,-0.8103,-0.7777,-0.7723,-0.7074,-0.7182,-0.7723,-0.6966,-0.7074,-0.7616,-0.6966,-0.7128,-0.7616,-0.6966,-0.7182,-0.7503,-0.614,-0.5651,-0.5487,-0.4842,-0.468,-0.468,-0.468,-0.468,-0.4956,-0.6258,-0.6588,-0.6588,-0.6588,-0.6588,-0.6588,-0.6588,-0.6588,-0.6588,-0.6588,-0.6588,-0.6642,-0.6696,-0.6696,-0.6696,-0.675,-0.6735,-0.6676,-0.6696,-0.6077,-0.5579,-0.5483,-0.4948,-0.4291,-0.3569,-0.34,-0.2732,-0.1397,-0.1174,-0.0783,-0.0112,-0.0056,0.0,0.0,0.0727,0.1118,0.1118,0.2508,0.3287,0.34,0.407,0.446,0.4519,0.4519,0.4519,0.4519,0.4519,0.4519,0.4519,0.4519,0.4519,0.4519,0.4519,0.4519,0.4519,0.4519,0.4519,0.4519,-1.541,-1.541,-1.541,-1.541,-1.541,-1.5225,-1.4746,-1.4688,-1.451,-1.3965,-1.3906,-1.4085,-1.4628,-1.3777,-1.3105,-1.3009,-1.2097,-1.1233,-1.0624,-1.0624,-1.0571,-1.0401,-1.0107,-0.99,-0.9786,-0.9719,-0.9539,-0.9183,-0.9539,-0.9532,-0.9183,-0.9183,-0.913,-0.901,-0.8123,-0.7723,-0.767,-0.6912,-0.675,-0.6966,-0.6199,-0.6086,-0.6303,-0.6032,-0.6086,-0.6357,-0.6529,-0.647,-0.6249,-0.5706,-0.5218,-0.4842,-0.457,-0.4519,-0.4519,-0.4519,-0.4519,-0.4625,-0.5171,-0.5281,-0.5281,-0.5281,-0.5281,-0.5281,-0.5281,-0.5281,-0.5281,-0.5281,-0.5281,-0.5441,-0.5819,-0.5923,-0.6091,-0.6529,-0.6588,-0.6308,-0.5366,-0.498,-0.4484,-0.3555,-0.3229,-0.2954,-0.2676,-0.2232,-0.173,-0.1118,-0.0671,-0.028,0.0,0.0,0.0,0.0,0.1174,0.1786,0.1786,0.2843,0.3622,0.407,0.4349,0.4519,0.4519,0.4519,0.4519,0.4519,0.4519,0.4519,0.4519,0.4519,0.4519,0.4519,0.4519,0.4519,0.4519,0.4519,0.4519,0.4519,-1.541,-1.541,-1.541,-1.541,-1.541,-1.5118,-1.4332,-1.4213,-1.3906,-1.313,-1.3009,-1.3183,-1.3786,-1.281,-1.2328,-1.2573,-1.16,-1.0863,-1.0624,-1.0624,-1.0624,-1.0624,-1.0367,-1.0214,-1.012,-1.0013,-0.9813,-0.9455,-0.9813,-0.9806,-0.9455,-0.9426,-0.9325,-0.917,-0.7895,-0.7343,-0.7289,-0.6367,-0.6041,-0.6204,-0.5492,-0.5328,-0.5487,-0.5273,-0.5324,-0.5542,-0.5823,-0.5764,-0.5487,-0.5273,-0.4897,-0.4519,-0.4519,-0.4519,-0.4519,-0.4519,-0.4519,-0.4519,-0.4519,-0.4519,-0.4519,-0.4519,-0.4519,-0.4519,-0.4519,-0.4294,-0.4125,-0.4125,-0.3956,-0.3898,-0.4385,-0.4436,-0.4601,-0.5148,-0.5206,-0.4875,-0.3825,-0.3715,-0.3329,-0.2341,-0.2174,-0.212,-0.1898,-0.1396,-0.1006,-0.0783,-0.028,0.0,0.0,0.0,0.0112,0.0336,0.134,0.2063,0.2565,0.3345,0.4015,0.4519,0.4519,0.4519,0.4519,0.4519,0.4519,0.4519,0.4519,0.4519,0.4519,0.4519,0.4519,0.4519,0.4519,0.4519,0.4519,0.4519,0.4519,0.4519,-1.541,-1.541,-1.541,-1.541,-1.541,-1.5108,-1.4323,-1.4213,-1.3914,-1.307,-1.3017,-1.3017,-1.3017,-1.3017,-1.2642,-1.1896,-1.1772,-1.1469,-1.0618,-1.0624,-1.0624,-1.0624,-1.0624,-1.0421,-1.0127,-1.0408,-1.0414,-1.0114,-1.0414,-1.0408,-1.0107,-0.982,-0.9526,-0.9121,-0.74,-0.6588,-0.6485,-0.5117,-0.4897,-0.5433,-0.4787,-0.4893,-0.5433,-0.4732,-0.4897,-0.5378,-0.4732,-0.4948,-0.5378,-0.4732,-0.4519,-0.4519,-0.4519,-0.4519,-0.4519,-0.4519,-0.4519,-0.4519,-0.4519,-0.4519,-0.4519,-0.4519,-0.4519,-0.4519,-0.4463,-0.3846,-0.3287,-0.3287,-0.273,-0.2174,-0.2174,-0.2174,-0.2174,-0.2174,-0.2174,-0.2174,-0.2174,-0.2174,-0.2174,-0.2174,-0.2174,-0.1898,-0.1174,-0.1118,-0.0783,-0.0056,0.0,0.0,0.0,0.0,0.0336,0.1062,0.1118,0.184,0.3287,0.407,0.4519,0.4519,0.4519,0.4519,0.4519,0.4519,0.4519,0.4519,0.4519,0.4519,0.4519,0.4519,0.4519,0.4519,0.4519,0.4519,0.4519,0.4519,0.4519,0.4519,-1.541,-1.541,-1.541,-1.541,-1.4932,-1.4273,-1.3485,-1.3021,-1.249,-1.1682,-1.1746,-1.2079,-1.2745,-1.2211,-1.192,-1.2067,-1.1546,-1.109,-1.0638,-1.0755,-1.0775,-1.0631,-1.0624,-1.0521,-1.0428,-1.0577,-1.0414,-1.0114,-1.0414,-1.0408,-1.0114,-1.0027,-0.9628,-0.8854,-0.7556,-0.6677,-0.6102,-0.4998,-0.4689,-0.489,-0.4615,-0.4625,-0.4787,-0.457,-0.4625,-0.4787,-0.457,-0.4625,-0.4787,-0.457,-0.4519,-0.4519,-0.4519,-0.4519,-0.4519,-0.4519,-0.4519,-0.4349,-0.379,-0.368,-0.3735,-0.3677,-0.368,-0.3566,-0.301,-0.2676,-0.2508,-0.2508,-0.2343,-0.2174,-0.2174,-0.2174,-0.2174,-0.2174,-0.2174,-0.2009,-0.1507,-0.1452,-0.1229,-0.0727,-0.0671,-0.056,-0.0336,-0.0336,-0.0224,0.0,0.0,0.0,0.0,0.0504,0.0895,0.1118,0.212,0.2899,0.3345,0.3566,0.3959,0.4519,0.4519,0.4519,0.4519,0.4519,0.4519,0.4519,0.4519,0.4519,0.4519,0.4519,0.4519,0.4519,0.4519,0.4519,0.4519,0.4519,0.4519,0.4519,-1.541,-1.541,-1.541,-1.541,-1.4991,-1.4318,-1.3314,-1.2893,-1.231,-1.1276,-1.1316,-1.1628,-1.2105,-1.1696,-1.1553,-1.1888,-1.1313,-1.0915,-1.0742,-1.0895,-1.0962,-1.0909,-1.0902,-1.0795,-1.0624,-1.0624,-1.0474,-1.0294,-1.0474,-1.053,-1.0287,-1.0174,-0.9614,-0.8772,-0.7667,-0.6763,-0.5916,-0.5067,-0.4697,-0.4772,-0.468,-0.4643,-0.4643,-0.4643,-0.4606,-0.4551,-0.4551,-0.457,-0.4519,-0.4519,-0.4519,-0.4519,-0.4519,-0.4519,-0.4463,-0.4125,-0.407,-0.3901,-0.3065,-0.2899,-0.2843,-0.2508,-0.2676,-0.2788,-0.2286,-0.1953,-0.1786,-0.1786,-0.1507,-0.134,-0.134,-0.134,-0.134,-0.134,-0.134,-0.1174,-0.0727,-0.0671,-0.0504,-0.0056,0.0,0.0,0.0,0.0,0.0,0.0,0.0,0.0,0.0,0.0671,0.1229,0.1507,0.2732,0.3511,0.3846,0.379,0.4015,0.4519,0.4519,0.4519,0.4519,0.4519,0.4519,0.4519,0.4519,0.4519,0.4519,0.4519,0.4519,0.4519,0.4519,0.4519,0.4519,0.4519,0.4519,0.4519,-1.5303,-1.5294,-1.5303,-1.5225,-1.5166,-1.4694,-1.3537,-1.33,-1.2852,-1.1628,-1.149,-1.1503,-1.1503,-1.1503,-1.1496,-1.147,-1.1196,-1.1035,-1.1035,-1.1056,-1.1176,-1.1416,-1.145,-1.1209,-1.0648,-1.0672,-1.0672,-1.0698,-1.0651,-1.0575,-1.0531,-1.017,-0.9524,-0.8567,-0.7657,-0.6736,-0.5921,-0.5172,-0.4925,-0.4938,-0.4925,-0.4918,-0.4918,-0.4918,-0.4833,-0.4711,-0.4697,-0.4602,-0.4536,-0.4522,-0.4519,-0.4519,-0.4519,-0.446,-0.4239,-0.3566,-0.3345,-0.3121,-0.2341,-0.212,-0.1898,-0.1174,-0.1507,-0.2009,-0.2009,-0.1507,-0.1006,-0.1006,-0.0448,0.0,0.0,0.0,0.0,0.0,0.0,0.0,0.0,0.0,0.0,0.0,0.0,0.0,0.0,0.0,0.0,0.0112,0.0112,0.0112,0.0168,0.0895,0.1619,0.2286,0.3067,0.3846,0.4519,0.4519,0.4519,0.4519,0.4519,0.4519,0.4519,0.4519,0.4519,0.4519,0.4519,0.4519,0.4519,0.4519,0.4519,0.4519,0.4519,0.4519,0.4519,0.4519,0.4519,0.4519,-1.4634,-1.4451,-1.4303,-1.3932,-1.3279,-1.29,-1.2882,-1.2477,-1.211,-1.1834,-1.1971,-1.2111,-1.2111,-1.2111,-1.2024,-1.179,-1.1503,-1.1329,-1.1329,-1.155,-1.1603,-1.143,-1.165,-1.1603,-1.1243,-1.1015,-1.1009,-1.1236,-1.0782,-1.0348,-0.9898,-0.963,-0.8659,-0.7159,-0.6778,-0.6219,-0.5506,-0.5078,-0.4982,-0.5074,-0.4962,-0.4918,-0.4918,-0.4918,-0.4897,-0.4853,-0.4735,-0.467,-0.4623,-0.456,-0.4519,-0.4519,-0.4519,-0.407,-0.3511,-0.3345,-0.2899,-0.2286,-0.1563,-0.134,-0.1174,-0.0448,-0.0336,-0.0504,-0.0504,-0.0336,-0.0224,-0.0224,-0.0112,0.0,0.0,0.0,0.0,0.0,0.0,0.0,0.0,0.0,0.0,0.0,0.0,0.0,0.0,0.0,0.0224,0.0839,0.0838,0.1118,0.1675,0.2397,0.2899,0.3121,0.3846,0.4349,0.4519,0.4519,0.4519,0.4519,0.4519,0.4519,0.4519,0.4519,0.4519,0.4519,0.4519,0.4519,0.4519,0.4519,0.4519,0.4519,0.4519,0.4519,0.4519,0.4519,0.4519,0.4519,-1.4696,-1.4585,-1.4524,-1.3768,-1.3139,-1.2814,-1.287,-1.2546,-1.2249,-1.211,-1.2204,-1.2305,-1.2305,-1.2305,-1.2184,-1.1897,-1.173,-1.1637,-1.1637,-1.1784,-1.1864,-1.1844,-1.1991,-1.2004,-1.1844,-1.1563,-1.1416,-1.1423,-1.1122,-1.0578,-0.982,-0.9573,-0.852,-0.6781,-0.6595,-0.6124,-0.5418,-0.5196,-0.5172,-0.5233,-0.5159,-0.5128,-0.5128,-0.5128,-0.5084,-0.5009,-0.4931,-0.4809,-0.4677,-0.4599,-0.4297,-0.3956,-0.3959,-0.34,-0.273,-0.2343,-0.1953,-0.1507,-0.0783,-0.056,-0.0504,-0.0112,0.0,0.0,0.0,0.0,0.0,0.0,0.0,0.0,0.0,0.0,0.0,0.0,0.0,0.0,0.0,0.0,0.0,0.0,0.0,0.0,0.0,0.0,0.028,0.1062,0.1118,0.1396,0.2174,0.2899,0.3345,0.34,0.4125,0.4519,0.4519,0.4519,0.4519,0.4519,0.4519,0.4519,0.4519,0.4519,0.4519,0.4519,0.4519,0.4519,0.4519,0.4519,0.4519,0.4519,0.4519,0.4519,0.4519,0.4519,0.4519,0.4519,-1.4863,-1.4722,-1.4558,-1.3699,-1.3336,-1.3103,-1.2972,-1.2771,-1.2514,-1.2311,-1.2305,-1.2305,-1.2305,-1.2305,-1.2204,-1.1964,-1.1944,-1.1944,-1.1944,-1.1944,-1.2051,-1.2291,-1.2305,-1.2305,-1.2305,-1.2064,-1.1824,-1.1577,-1.1263,-1.0679,-0.9729,-0.9417,-0.8331,-0.6664,-0.6576,-0.6102,-0.5428,-0.5428,-0.5428,-0.5428,-0.5428,-0.5428,-0.5428,-0.5428,-0.5281,-0.5165,-0.5138,-0.4958,-0.4728,-0.4728,-0.4122,-0.3342,-0.3436,-0.2755,-0.1914,-0.1296,-0.1015,-0.0791,-0.0171,0.0,0.0,0.0,0.0,0.0,0.0,0.0,0.0,0.0,0.0,0.0,0.0,0.0,0.0,0.0,0.0,0.0,0.0,0.0,0.0,0.0,0.0,0.0,0.0,0.0112,0.0504,0.1229,0.1396,0.1786,0.2565,0.3176,0.3511,0.3566,0.4181,0.4519,0.4519,0.4519,0.4519,0.4519,0.4519,0.4519,0.4519,0.4519,0.4519,0.4519,0.4519,0.4519,0.4519,0.4519,0.4519,0.4519,0.4519,0.4519,0.4519,0.4519,0.4519,0.4519,-1.441,-1.3603,-1.2863,-1.2249,-1.2122,-1.2134,-1.241,-1.2357,-1.2357,-1.2291,-1.2305,-1.2305,-1.2305,-1.2305,-1.2285,-1.2245,-1.2245,-1.2245,-1.2245,-1.2245,-1.2265,-1.2305,-1.2305,-1.2305,-1.2305,-1.2265,-1.2225,-1.2184,-1.0808,-0.978,-0.9197,-0.798,-0.6822,-0.5793,-0.5772,-0.562,-0.5428,-0.5428,-0.5428,-0.5428,-0.5428,-0.5428,-0.5428,-0.5428,-0.5415,-0.5315,-0.5179,-0.5026,-0.4887,-0.4887,-0.4264,-0.3563,-0.3582,-0.2503,-0.1225,-0.1108,-0.0643,-0.0118,0.0,0.0,0.0,0.0,0.0,0.0,0.0,0.0,0.0,0.0,0.0,0.0,0.0,0.0,0.0,0.0,0.0,0.0,0.0,0.0,0.0,0.0,0.0,0.0,0.0,0.056,0.1229,0.2009,0.2621,0.3345,0.4125,0.4294,0.4349,0.4349,0.446,0.4519,0.4519,0.4519,0.4519,0.4519,0.4519,0.4519,0.4519,0.4519,0.4519,0.4519,0.4519,0.4519,0.4519,0.4519,0.4519,0.4519,0.4519,0.4519,0.4519,0.4519,0.4519,0.4519,-1.3918,-1.34,-1.3011,-1.2229,-1.1977,-1.1964,-1.2258,-1.2164,-1.2118,-1.2278,-1.2305,-1.2305,-1.2305,-1.2305,-1.2305,-1.2305,-1.2305,-1.2305,-1.2305,-1.2305,-1.2305,-1.2305,-1.2305,-1.2305,-1.2305,-1.1768,-1.1768,-1.2305,-1.1004,-0.9704,-0.8323,-0.7681,-0.6756,-0.583,-0.5664,-0.5552,-0.5484,-0.5466,-0.5428,-0.5428,-0.5428,-0.5428,-0.5428,-0.5428,-0.5428,-0.5418,-0.5284,-0.5165,-0.4912,-0.4466,-0.3735,-0.2881,-0.2359,-0.1386,-0.0483,-0.0483,-0.0242,0.0,0.0,0.0,0.0,0.0,0.0,0.0,0.0,0.0,0.0,0.0,0.0,0.0,0.0,0.0,0.0,0.0,0.0,0.0,0.0,0.0,0.0,0.0,0.0,0.0174,0.0708,0.1004,0.1698,0.2871,0.3268,0.3753,0.4467,0.4519,0.4519,0.4519,0.4519,0.4519,0.4519,0.4519,0.4519,0.4519,0.4519,0.4519,0.4519,0.4519,0.4519,0.4519,0.4519,0.4519,0.4519,0.4519,0.4519,0.4519,0.4519,0.4519,0.4519,0.4519,0.4519,0.4519]},{"header":{"parameterUnit":"m.s-1","parameterCategory":1,"la1":30.6,"la2":28.766,"lo1":-90.7593,"lo2":-88.6598,"dy":0.0162,"dx":0.0183,"nx":116,"ny":114,"refTime":"2024-03-19T18:00:00:Z","depth":0,"parameterNumber":3,"parameterNumberName":"V-component_of_WINDS"},"data":[0.0,0.0,0.0,0.0,0.0,0.0,0.0,0.0,0.0,0.0,0.0,0.0,0.0,0.0,0.0,0.0,0.0,0.0,0.0,0.0,0.0,0.0,0.0,0.0,0.0,0.0,0.0,0.0,0.0,0.0,0.0,0.0,0.0,0.0,0.0,0.0,0.0,0.0,0.0,0.0,0.0,0.0,0.0,0.0,0.0,0.0,0.0,0.0,0.0,0.0,0.0,0.0,0.0,0.0,0.0,0.0,0.0,0.0,0.0,0.0,0.0,0.0,0.0,0.0,0.0,0.0,0.0,0.0,0.0,0.0,0.0,0.0,0.0,0.0,0.0,0.0,0.0,0.0,0.0,0.0,0.0,0.0,0.0,0.0,0.0,0.0,0.0,0.0,0.0,0.0,0.0,0.0,0.0,0.0,0.0,0.0,0.0,0.0,0.0,0.0,0.0,0.0,0.0,0.0,0.0,0.0,0.0,0.0,0.0,0.0,0.0,0.0,0.0,0.0,0.0,0.0,0.0,0.0,0.0,0.0,0.0,0.0,0.0,0.0,0.0,0.0,0.0,0.0,0.0,0.0,0.0,0.0,0.0,0.0,0.0,0.0,0.0,0.0,0.0,0.0,0.0,0.0,0.0,0.0,0.0,0.0,0.0,0.0,0.0,0.0,0.0,0.0,0.0,0.0,0.0,0.0,0.0,0.0,0.0,0.0,0.0,0.0,0.0,0.0,0.0,0.0,0.0,0.0,0.0,0.0,0.0,0.0,0.0,0.0,0.0,0.0,0.0,0.0,0.0,0.0,0.0,0.0,0.0,0.0,0.0,0.0,0.0,0.0,0.0,0.0,0.0,0.0,0.0,0.0,0.0,0.0,0.0,0.0,0.0,0.0,0.0,0.0,0.0,0.0,0.0,0.0,0.0,0.0,0.0,0.0,0.0,0.0,0.0,0.0,0.0,0.0,0.0,0.0,0.0,0.0,0.0,0.0,0.0,0.0,0.0,0.0,0.0,0.0,0.0,0.0,0.0,0.0,0.0,0.0,0.0,0.0,0.0,0.0,0.0,0.0,0.0,0.0,0.0,0.0,0.0,0.0,0.0,0.0,0.0,0.0,0.0,0.0,0.0,0.0,0.0,0.0,0.0,0.0,0.0,0.0,0.0,0.0,0.0,0.0,0.0,0.0,0.0,0.0,0.0,0.0,0.0,0.0,0.0,0.0,0.0,0.0,0.0,0.0,0.0,0.0,0.0,0.0,0.0,0.0,0.0,0.0,0.0,0.0,0.0,0.0,0.0,0.0,0.0,0.0,0.0,0.0,0.0,0.0,0.0,0.0,0.0,0.0,0.0,0.0,0.0,0.0,0.0,0.0,0.0,0.0,0.0,0.0,0.0,0.0,0.0,0.0,0.0,0.0,0.0,0.0,0.0,0.0,0.0,0.0,0.0,0.0,0.0,0.0,0.0,0.0,0.0,0.0,0.0,0.0,0.0,0.0,0.0,0.0,0.0,0.0,0.0,0.0,0.0,0.0,0.0,0.0,0.0,0.0,0.0,0.0,0.0,0.0,0.0,0.0,0.0,0.0,0.0,0.0,0.0,0.0,0.0,0.0,0.0,0.0,0.0,0.0,0.0,0.0,0.0,0.0,0.0,0.0,0.0,0.0,0.0,0.0,0.0,0.0,0.0,0.0,0.0,0.0,0.0,0.0,0.0,0.0,0.0,0.0,0.0,0.0,0.0,0.0,0.0,0.0,0.0,0.0,0.0,0.0,0.0,0.0,0.0,0.0,0.0,0.0,0.0,0.0,0.0,0.0,0.0,0.0,0.0,0.0,0.0,0.0,0.0,0.0,0.0,0.0,0.0,0.0,0.0,0.0,0.0,0.0,0.0,0.0,0.0,0.0,0.0,0.0,0.0,0.0,0.0,0.0,0.0,0.0,0.0,0.0,0.0,0.0,0.0,0.0,0.0,0.0,0.0,0.0,0.0,0.0,0.0,0.0,0.0,0.0,0.0,0.0,0.0,0.0,0.0,0.0,0.0,0.0,0.0,0.0,0.0,0.0,0.0,0.0,0.0,0.0,0.0,0.0,0.0,0.0,0.0,0.0,0.0,0.0,0.0,0.0,0.0,0.0,0.0,0.0,0.0,0.0,0.0,0.0,0.0,0.0,0.0,0.0,0.0,0.0,0.0,0.0,0.0,0.0,0.0,0.0,0.0,0.0,0.0,0.0,0.0,0.0,0.0,0.0,0.0,0.0,0.0,0.0,0.0,0.0,0.0,0.0,0.0,0.0,0.0,0.0,0.0,0.0,0.0,0.0,0.0,0.0,0.0,0.0,0.0,0.0,0.0,0.0,0.0,0.0,0.0,0.0,0.0,0.0,0.0,0.0,0.0,0.0,0.0,0.0,0.0,0.0,0.0,0.0,0.0,0.0,0.0,0.0,0.0,0.0,0.0,0.0,0.0,0.0,0.0,0.0,0.0,0.0,0.0,0.0,0.0,0.0,0.0,0.0,0.0,0.0,0.0,0.0,0.0,0.0,0.0,0.0,0.0,0.0,0.0,0.0,0.0,0.0,0.0,0.0,0.0,0.0,0.0,0.0,0.0,0.0,0.0,0.0,0.0,0.0,0.0,0.0,0.0,0.0,0.0,0.0,0.0,0.0,0.0,0.0,0.0,0.0,0.0,0.0,0.0,0.0,0.0,0.0,0.0,0.0,0.0,0.0,0.0,0.0,0.0,0.0,0.0,0.0,0.0,0.0,0.0,0.0,0.0,0.0,0.0,0.0,0.0,0.0,0.0,0.0,0.0,0.0,0.0,0.0,0.0,0.0,0.0,0.0,0.0,0.0,0.0,0.0,0.0,0.0,0.0,0.0,0.0,0.0,0.0,0.0,0.0,0.0,0.0,0.0,0.0,0.0,0.0,0.0,0.0,0.0,0.0,0.0,0.0,0.0,0.0,0.0,0.0,0.0,0.0,0.0,0.0,0.0,0.0,0.0,0.0,0.0,0.0,0.0,0.0,0.0,0.0,0.0,0.0,0.0,0.0,0.0,0.0,0.0,0.0,0.0,0.0,0.0,0.0,0.0,0.0,0.0,0.0,0.0,0.0,0.0,0.0,0.0,0.0,0.0,0.0,0.0,0.0,0.0,0.0,0.0,0.0,0.0,0.0,0.0,0.0,0.0,0.0,0.0,0.0,0.0,0.0,0.0,0.0,0.0,0.0,0.0,0.0,0.0,0.0,0.0,0.0,0.0,0.0,0.0,0.0,0.0,0.0,0.0,0.0,0.0,0.0,0.0,0.0,0.0,0.0,0.0,0.0,0.0,0.0,0.0,0.0,0.0,0.0,0.0,0.0,0.0,0.0,0.0,0.0,0.0,0.0,0.0,0.0,0.0,0.0,0.0,0.0,0.0,0.0,0.0,0.0,0.0,0.0,0.0,0.0,0.0,0.0,0.0,0.0,0.0,0.0,0.0,0.0,0.0,0.0,0.0,0.0,0.0,0.0,0.0,0.0,0.0,0.0,0.0,0.0,0.0,0.0,0.0,0.0,0.0,0.0,0.0,0.0,0.0,0.0,0.0,0.0,0.0,0.0,0.0,0.0,0.0,0.0,0.0,0.0,0.0,0.0,0.0,0.0,0.0,0.0,0.0,0.0,0.0,0.0,0.0,0.0,0.0,0.0,0.0,0.0,0.0,0.0,0.0,0.0,0.0,0.0,0.0,0.0,0.0,0.0,0.0,0.0,0.0,0.0,0.0,0.0,0.0,0.0,0.0,0.0,0.0,0.0,0.0,0.0,0.0,0.0,0.0,0.0,0.0,0.0,0.0,0.0,0.0,0.0,0.0,0.0,0.0,0.0,0.0,0.0,0.0,0.0,0.0,0.0,0.0,0.0,0.0,0.0,0.0,0.0,0.0,0.0,0.0,0.0,0.0,0.0,0.0,0.0,0.0,0.0,0.0,0.0,0.0,0.0,0.0,0.0,0.0,0.0,0.0,0.0,0.0,0.0,0.0,0.0,0.0,0.0,0.0,0.0,0.0,0.0,0.0,0.0,0.0,0.0,0.0,0.0,0.0,0.0,0.0,0.0,0.0,0.0,0.0,0.0,0.0,0.0,0.0,0.0,0.0,0.0,0.0,0.0,0.0,0.0,0.0,0.0,0.0,0.0,0.0,0.0,0.0,0.0,0.0,0.0,0.0,0.0,0.0,0.0,0.0,0.0,0.0,0.0,0.0,0.0,0.0,0.0,0.0,0.0,0.0,0.0,0.0,0.0,0.0,0.0,0.0,0.0,0.0,0.0,0.0,0.0,0.0,0.0,0.0,0.0,0.0,0.0,0.0,0.0,0.0,0.0,0.0,0.0,0.0,0.0,0.0,0.0,0.0,0.0,0.0,0.0,0.0,0.0,0.0,0.0,0.0,0.0,0.0,0.0,0.0,0.0,0.0,0.0,0.0,0.0,0.0,0.0,0.0,0.0,0.0,0.0,0.0,0.0,0.0,0.0,0.0,0.0,0.0,0.0,0.0,0.0,0.0,0.0,0.0,0.0,0.0,0.0,0.0,0.0,0.0,0.0,0.0,0.0,0.0,0.0,0.0,0.0,0.0,0.0,0.0,0.0,0.0,0.0,0.0,0.0,0.0,0.0,0.0,0.0,0.0,0.0,0.0,0.0,0.0,0.0,0.0,0.0,0.0,0.0,0.0,0.0,0.0,0.0,0.0,0.0,0.0,0.0,0.0,0.0,0.0,0.0,0.0,0.0,0.0,0.0,0.0,0.0,0.0,0.0,0.0,0.0,0.0,0.0,0.0,0.0,0.0,0.0,0.0,0.0,0.0,0.0,0.0,0.0,0.0,0.0,0.0,0.0,0.0,0.0,0.0,0.0,0.0,0.0,0.0,0.0,0.0,0.0,0.0,0.0,0.0,0.0,0.0,0.0,0.0,0.0,0.0,0.0,0.0,0.0,0.0,0.0,0.0,0.0,0.0,0.0,0.0,0.0,0.0,0.0,0.0,0.0,0.0,0.0,0.0,0.0,0.0,0.0,0.0,0.0,0.0,0.0,0.0,0.0,0.0,0.0,0.0,0.0,0.0,0.0,0.0,0.0,0.0,0.0,0.0,0.0,0.0,0.0,0.0,0.0,0.0,0.0,0.0,0.0,0.0,0.0,0.0,0.0,0.0,0.0,0.0,0.0,0.0,0.0,0.0,0.0,0.0,0.0,0.0,0.0,0.0,0.0,0.0,0.0,0.0,0.0,0.0,0.0,0.0,0.0,0.0,0.0,0.0,0.0,0.0,0.0,0.0,0.0,0.0,0.0,0.0,0.0,0.0,0.0,0.0,0.0,0.0,0.0,0.0,0.0,0.0,0.0,0.0,0.0,0.0,0.0,0.0,0.0,0.0,0.0,0.0,0.0,0.0,0.0,0.0,0.0,0.0,0.0,0.0,0.0,0.0,0.0,0.0,0.0,0.0,0.0,0.0,0.0,0.0,0.0,0.0,0.0,0.0,0.0,0.0,0.0,0.0,0.0,0.0,0.0,0.0,0.0,0.0,0.0,0.0,0.0,0.0,0.0,0.0,0.0,0.0,0.0,0.0,0.0,0.0,0.0,0.0,0.0,0.0,0.0,0.0,0.0,0.0,0.0,0.0,0.0,0.0,0.0,0.0,0.0,0.0,0.0,0.0,0.0,0.0,0.0,0.0,0.0,0.0,0.0,0.0,0.0,0.0,0.0,0.0,0.0,0.0,0.0,0.0,0.0,0.0,0.0,0.0,0.0,0.0,0.0,0.0,0.0,0.0,0.0,0.0,0.0,0.0,0.0,0.0,0.0,0.0,0.0,0.0,0.0,0.0,0.0,0.0,0.0,0.0,0.0,0.0,0.0,0.0,0.0,0.0,0.0,0.0,0.0,0.0,0.0,0.0,0.0,0.0,0.0,0.0,0.0,0.0,0.0,0.0,0.0,0.0,0.0,0.0,0.0,0.0,0.0,0.0,0.0,0.0,0.0,0.0,0.0,0.0,0.0,0.0,0.0,0.0,0.0,0.0,0.0,0.0,0.0,0.0,0.0,0.0,0.0,0.0,0.0,0.0,0.0,0.0,0.0,0.0,-0.9427,0.0,0.0,0.0,0.0,0.0,0.0,0.0,0.0,0.0,0.0,0.0,0.0,0.0,0.0,0.0,0.0,0.0,0.0,0.0,0.0,0.0,0.0,0.0,0.0,0.0,0.0,0.0,-0.1037,-0.1642,-0.1579,-0.1911,-0.1945,-0.1579,-0.111,-0.0672,-0.0269,0.0703,0.1106,0.0942,0.1197,0.0687,-0.055,-0.1406,-0.2449,-0.3647,0.0,0.0,0.0,0.0,0.0,0.0,0.0,0.0,0.0,0.0,0.0,0.0,0.0,0.0,0.0,0.0,0.0,0.0,0.0,0.0,0.0,0.0,0.0,0.0,0.0,0.0,0.0,0.0,0.0,0.0,0.0,0.0,0.0,0.0,0.0,0.0,0.0,0.0,0.0,0.0,0.0,0.0,0.0,0.0,0.0,0.0,0.0,0.0,0.0,0.0,0.0,0.0,0.0,0.0,0.0,0.0,0.0,0.0,0.0,0.0,0.0,0.0,0.0,0.0,0.0,0.0,0.0,0.0,0.0,0.0,0.0,-1.065,0.0,0.0,0.0,0.0,0.0,0.0,0.0,0.0,0.0,0.0,0.0,0.0,0.0,0.0,0.0,0.0,0.0,0.0,0.0,0.0,0.0,0.0,0.0,0.1375,0.0839,0.0504,-0.0535,-0.1173,-0.1145,-0.1613,-0.168,-0.1145,-0.0672,-0.0134,0.0403,0.1072,0.1326,0.1088,0.1126,0.0047,-0.2102,-0.2012,-0.2791,0.0,0.0,0.0,0.0,0.0,0.0,0.0,0.0,0.0,0.0,0.0,0.0,0.0,0.0,0.0,0.0,0.0,0.0,0.0,0.0,0.0,0.0,0.0,0.0,0.0,0.0,0.0,0.0,0.0,0.0,0.0,0.0,0.0,0.0,0.0,0.0,0.0,0.0,0.0,0.0,0.0,0.0,0.0,0.0,0.0,0.0,0.0,0.0,0.0,0.0,0.0,0.0,0.0,0.0,0.0,0.0,0.0,0.0,0.0,0.0,0.0,0.0,0.0,0.0,0.0,-1.0284,-1.1421,-1.2234,-1.2103,-1.2896,-1.4342,-1.2757,-1.2202,-1.2282,-1.2214,0.0,0.0,0.0,0.0,0.0,0.0,0.0,0.0,0.0,0.0,0.0,0.0,0.0,0.0,0.0,0.0,0.0,0.0,0.0,0.0,0.0,0.2474,0.1804,0.0836,-0.02,-0.0803,-0.0841,-0.151,-0.1577,-0.0875,-0.0303,0.0134,0.0403,0.1375,0.1653,0.1103,0.0721,-0.0505,-0.2426,-0.2156,-0.336,-0.5715,0.0,0.0,0.0,0.0,0.0,0.0,0.0,0.0,0.0,0.0,0.0,0.0,0.0,0.0,0.0,0.0,0.0,0.0,0.0,0.0,0.0,0.0,0.0,0.0,0.0,0.0,0.0,0.0,0.0,0.0,0.0,0.0,0.0,0.0,0.0,0.0,0.0,0.0,0.0,0.0,0.0,0.0,0.0,0.0,0.2753,0.1894,0.0,0.0,0.0,0.0,0.0,0.0,0.0,0.0,0.0,0.0,0.0,0.0,0.0,-0.6271,-0.6471,-0.7163,-0.8074,-0.9074,-1.0915,-1.2307,-1.3531,-1.4417,-1.5159,-1.5565,-1.4847,0.0,-1.382,-1.3499,0.0,0.0,0.0,0.0,0.0,0.0,0.0,0.0,0.0,0.0,0.0,0.0,0.0,0.0,0.0,0.0,0.0,0.0,0.0,0.0,0.0,0.3381,0.2756,0.2629,0.059,-0.058,-0.0257,-0.1426,-0.1677,-0.0671,-0.0168,0.0436,0.1106,0.1886,0.2009,0.1495,0.0615,-0.0779,-0.2607,-0.2453,-0.4063,-0.7125,-0.712,-0.7235,-0.7502,-0.886,0.0,0.0,0.0,0.0,0.0,0.0,0.0,0.0,0.0,0.0,0.0,0.0,0.0,0.0,0.0,0.0,0.0,0.0,0.0,0.0,0.0,0.0,0.0,0.0,0.0,0.0,0.0,0.0,0.0,0.0,0.0,0.0,0.0,0.0,0.0,0.0,0.0,0.0,0.0,0.3799,0.2639,0.2587,0.077,-0.0468,0.0,0.0,0.0,0.0,0.0,0.0,0.0,0.0,0.0,-0.6435,-0.66,-0.6827,-0.7221,-0.8217,-0.9023,-0.9605,-1.1944,-1.3171,-1.359,-1.4823,-1.5378,-1.5331,-1.5077,-1.4816,-1.4529,-1.3901,-1.3166,-1.2365,0.0,0.0,0.0,0.0,-1.2387,-1.3002,0.0,0.0,0.0,0.0,0.0,0.0,0.0,0.0,0.0,0.0,0.0,0.0,0.5554,0.4711,0.4145,0.425,0.1671,0.0043,0.0081,-0.1211,-0.149,-0.0509,0.0142,0.0954,0.1997,0.2389,0.2339,0.1822,0.0581,-0.0923,-0.2621,-0.2818,-0.469,-0.7853,-0.7914,-0.811,-0.8541,-0.9753,-0.97,0.0,0.0,0.0,0.0,0.0,0.0,0.0,0.0,0.0,0.0,0.0,0.0,0.0,0.0,0.0,0.0,0.0,0.0,0.0,0.0,0.0,0.0,0.0,0.0,0.0,0.0,0.0,0.0,0.0,0.0,0.0,0.0,0.0,0.0,0.0,0.0,0.0,0.0,0.4174,0.3161,0.3197,0.1612,0.0357,0.0,0.0,0.0,0.0,0.0,0.0,-0.3253,-0.4288,-0.5537,-0.6994,-0.7136,-0.7366,-0.7807,-0.8806,-0.9567,-0.9998,-1.2266,-1.3288,-1.3485,-1.4746,-1.5124,-1.485,-1.485,-1.4763,-1.4589,-1.4075,-1.3607,-1.3133,-1.2385,-1.2044,-1.2009,-1.2702,-1.3271,-1.3923,0.0,0.0,0.0,0.0,0.0,0.0,0.0,0.0,0.0,0.0,0.0,0.7249,0.7016,0.6934,0.6372,0.5066,0.3156,0.141,-0.0177,-0.071,-0.0753,-0.0308,0.081,0.1855,0.2813,0.2869,0.2527,0.1811,0.0586,-0.0859,-0.2532,-0.3208,-0.4908,-0.733,-0.7598,-0.8408,-0.9677,-1.0222,-1.0364,-1.0097,0.0,0.0,0.0,0.0,0.0,0.0,0.0,0.0,0.0,0.0,0.0,0.0,0.0,0.0,0.0,0.0,0.0,0.0,0.0,0.0,0.0,0.0,0.0,0.0,0.0,0.0,0.0,0.0,0.0,0.0,0.0,0.0,0.0,0.0,0.0,0.0,0.0,0.0,0.0,0.3478,0.2469,0.0,0.0,0.0,0.0,0.0,-0.0668,-0.1942,-0.3658,-0.4502,-0.5753,-0.755,-0.7695,-0.778,-0.7811,-0.7953,-0.8718,-0.9998,-1.1144,-1.2272,-1.3479,-1.4546,-1.4823,-1.4543,-1.4543,-1.4222,-1.3748,-1.4262,-1.3975,-1.318,-1.2832,-1.2031,-1.1156,-1.2036,-1.3164,-1.4397,0.0,0.0,0.0,0.0,0.0,0.0,0.0,0.0,0.6634,0.7729,0.8394,0.9146,1.0135,0.9418,0.861,0.8017,0.5269,0.2983,0.1673,0.0718,0.0275,0.0411,0.2001,0.3346,0.4313,0.3834,0.3079,0.204,0.1137,-0.0368,-0.2519,-0.2766,-0.446,-0.7289,-0.737,-0.8551,-1.043,-1.1603,-1.1591,-1.0902,-1.2301,-1.1796,0.0,0.0,0.0,0.0,0.0,0.0,0.0,0.0,0.0,0.0,0.0,0.0,0.0,0.0,0.0,0.0,0.0,0.0,0.0,0.0,0.0,0.0,0.0,0.0,0.0,0.0,0.0,0.0,0.0,0.0,0.0,0.0,0.0,0.0,0.0,0.0,0.0,0.3265,0.258,0.0,0.1299,0.126,0.0968,0.008,-0.0924,-0.1853,-0.2592,-0.4477,-0.5803,-0.6594,-0.7435,-0.796,-0.796,-0.7916,-0.8084,-0.8564,-0.9712,-1.0687,-1.1504,-1.2744,-1.343,-1.3674,-1.3674,-1.3561,-1.338,-1.3594,-1.3494,-1.318,-1.2866,-1.2612,-1.2506,-1.3354,-1.4471,-1.563,0.0,0.0,0.0,0.0,0.0,0.0,0.0,0.0,0.792,0.9499,1.0234,1.1224,1.2832,1.2017,1.1186,1.0656,0.762,0.5056,0.3515,0.2337,0.1696,0.1703,0.3497,0.4857,0.5571,0.4861,0.389,0.2586,0.1588,-0.0119,-0.2381,-0.2911,-0.4552,-0.7072,-0.7659,-0.8902,-1.0666,-1.2472,-1.2885,-1.2439,-1.3678,-1.3445,-1.2192,0.0,0.0,0.0,0.0,0.0,0.0,0.0,0.0,0.0,0.0,0.0,0.0,0.0,0.0,0.0,0.0,0.0,0.0,0.0,0.0,0.0,0.0,0.0,0.0,0.0,0.0,0.0,0.0,0.0,0.0,0.0,0.0,0.0,0.0,0.0,0.288,0.3265,0.3351,0.3123,0.2692,0.2266,0.157,0.0689,-0.054,-0.1401,-0.2013,-0.3569,-0.4977,-0.5968,-0.6825,-0.7514,-0.7963,-0.7814,-0.774,-0.7736,-0.8818,-0.9477,-0.9923,-1.1393,-1.2261,-1.2582,-1.3002,-1.3093,-1.2906,-1.2906,-1.2846,-1.2766,-1.2866,-1.2966,-1.3104,-1.3646,-1.459,-1.578,0.0,0.0,0.0,0.0,0.0,0.0,0.0,0.7712,0.9114,1.0943,1.2172,1.3468,1.4938,1.4839,1.4102,1.2715,1.0188,0.7658,0.5266,0.42,0.3637,0.3664,0.532,0.6353,0.667,0.593,0.4812,0.3317,0.188,0.0,-0.2171,-0.3652,-0.5136,-0.6691,-0.8433,-0.961,-1.0524,-1.2797,-1.4175,-1.4725,-1.3915,-1.4803,-1.6371,0.0,0.0,0.0,0.0,0.0,0.0,0.0,0.0,0.0,0.0,0.0,0.0,0.0,0.0,0.0,0.0,0.0,0.0,0.0,0.0,0.0,0.0,0.0,0.0,0.0,0.0,0.0,0.0,0.0,0.0,0.0,0.0,0.0,0.4525,0.4984,0.4899,0.3613,0.5005,0.5477,0.4002,0.2813,0.2058,0.1798,0.0731,-0.0555,-0.1849,-0.1978,-0.3164,-0.5754,-0.5841,-0.6409,-0.7704,-0.7658,-0.7587,-0.758,-0.8434,-0.8869,-0.8939,-1.0805,-1.1508,-1.1272,-1.2576,-1.2846,-1.2305,-1.2291,-1.2124,-1.1957,-1.2819,-1.2973,-1.2782,-1.2782,-1.3484,-1.4672,0.0,0.0,0.0,0.0,0.0,0.0,0.0,0.8671,1.0296,1.2539,1.4126,1.5651,1.7217,1.7588,1.7007,1.521,1.3066,1.0603,0.7775,0.7018,0.6941,0.7472,0.8272,0.8537,0.8133,0.7384,0.6044,0.4094,0.2599,0.0803,-0.1287,-0.2886,-0.4636,-0.6509,-0.8153,-0.9784,-1.1429,-1.2969,-1.4784,-1.6574,-1.7156,-1.6953,-1.6385,0.0,0.0,0.0,0.0,0.0,0.0,0.0,0.0,0.0,0.0,0.0,0.0,0.0,0.0,0.0,0.0,0.0,0.0,0.0,0.0,0.0,0.0,0.0,0.0,0.0,0.0,0.0,0.0,0.0,0.0,0.0,0.4944,0.4542,0.4801,0.4489,0.4477,0.5025,0.558,0.5674,0.5153,0.4771,0.3795,0.1924,0.1473,0.0744,-0.0472,-0.1519,-0.2385,-0.3065,-0.4851,-0.5989,-0.6309,-0.6933,-0.7265,-0.7261,-0.7304,-0.7673,-0.8273,-0.9523,-1.0362,-1.0976,-1.2054,-1.2458,-1.2285,-1.2078,-1.1944,-1.187,-1.1904,-1.1864,-1.179,-1.179,-1.2218,-1.2933,0.0,0.0,0.0,0.0,0.0,0.0,0.0,0.9541,1.1336,1.3882,1.5526,1.7247,1.9204,1.9327,1.8646,1.7126,1.4834,1.2498,1.0193,0.9474,0.0,0.0,0.0,1.0216,0.998,0.8704,0.7114,0.521,0.3503,0.1413,-0.1033,-0.2778,-0.4665,-0.6657,-0.8561,-1.0467,-1.2318,-1.3793,-1.5466,-1.7316,-1.895,-1.8821,-1.7765,-1.8411,-1.7717,-1.6355,-1.5683,-1.4147,-1.2341,-1.1998,0.0,0.0,0.0,0.0,0.0,0.0,0.0,0.0,0.0,0.0,0.0,0.0,0.0,0.0,0.0,0.0,0.0,0.0,0.0,0.0,0.0,0.0,0.0,0.0,0.5647,0.5522,0.5897,0.5132,0.4817,0.558,0.6176,0.6484,0.6379,0.5899,0.4959,0.3461,0.235,0.1453,0.0835,-0.0457,-0.146,-0.1948,-0.3369,-0.4617,-0.5663,-0.6008,-0.6516,-0.6953,-0.6658,-0.6784,-0.7309,-0.8147,-0.905,-0.9958,-1.0912,-1.1572,-1.1911,-1.1623,-1.1503,0.0,0.0,0.0,0.0,0.0,-1.1689,-1.1934,0.0,0.0,0.0,0.0,0.0,0.0,0.0,1.0362,1.2254,1.4955,1.6492,1.8263,2.0707,2.0234,1.937,1.8479,1.5841,1.3684,1.2394,1.1628,0.0,1.2173,1.186,1.1798,1.2009,1.0081,0.8294,0.6784,0.4576,0.2102,-0.0647,-0.2862,-0.4908,-0.6807,-0.9344,-1.1444,-1.3227,-1.5045,-1.653,-1.7848,-1.9827,-2.0357,-1.9763,-1.893,-1.8544,-1.8294,-1.6927,-1.5738,-1.4665,-1.41,0.0,0.0,0.0,0.0,0.0,0.0,0.0,0.0,0.0,0.0,0.0,0.0,0.0,0.0,0.0,0.0,0.0,0.0,0.0,0.0,0.0,0.0,0.0,0.0,0.6512,0.6868,0.7265,0.6406,0.5721,0.5842,0.6995,0.7698,0.7542,0.6593,0.5809,0.5612,0.3403,0.2002,0.1775,0.0,0.0,0.0,0.0,-0.287,-0.515,-0.5121,-0.5556,-0.662,-0.6342,-0.621,-0.6276,-0.7078,-0.7845,-0.8483,-0.9608,-1.0516,-1.1259,-1.0943,-1.0843,-1.0875,-1.1162,-1.1102,-1.0938,-1.1406,-1.1352,-1.1219,0.0,0.0,0.0,0.0,0.0,0.0,0.0,1.0915,1.2778,1.5616,1.6904,1.8351,2.0521,2.0673,2.0039,1.8524,1.7035,1.5459,1.3821,0.0,1.3978,1.4752,1.4696,1.4451,1.3995,1.2089,1.0689,0.9853,0.6487,0.4049,0.2437,-0.1466,-0.4218,-0.6048,-0.9473,-1.2277,-1.4654,-1.6725,-1.8761,-2.0665,-2.1348,-2.1112,-2.0445,-2.1186,-2.1203,-2.0738,-2.0599,-1.8707,-1.6121,-1.5754,-1.3601,-1.0905,-0.9984,0.0,0.0,0.0,0.0,0.0,0.0,0.0,0.0,0.0,0.0,0.0,0.0,0.0,0.0,0.0,0.0,0.0,0.0,0.0,0.0,0.5823,0.6532,0.6915,0.7,0.684,0.6757,0.7011,0.8128,0.8783,0.8613,0.8285,0.7658,0.6672,0.5196,0.3547,0.1698,0.1432,0.0759,-0.0341,-0.1265,-0.233,-0.3526,-0.4327,-0.5254,-0.6156,0.0,0.0,-0.5961,-0.7602,-0.8061,-0.7633,-0.9329,-1.017,-1.0341,-0.9802,-0.9731,-0.9967,-1.0254,-1.0194,-0.9993,-1.0044,-1.0041,-1.001,0.0,0.0,0.0,0.0,0.0,0.0,0.0,1.0844,1.2643,1.5048,1.6463,1.7888,1.9522,1.9552,1.9058,1.8074,1.6725,1.5718,0.0,1.5651,1.6336,1.7383,1.6956,1.66,1.6496,1.4518,1.3299,1.2934,0.9489,0.7372,0.6443,0.1707,-0.2391,-0.5944,-1.0447,-1.4227,-1.7274,-1.8455,-1.9994,-2.1624,-2.1986,-2.2054,-2.1933,-2.2247,-2.2094,-2.1747,-2.1924,-2.0694,-1.8849,-1.7946,-1.5983,-1.3599,-1.1825,-1.0602,-0.9219,0.0,0.0,0.0,0.0,0.0,0.0,0.0,0.0,0.0,0.0,0.0,0.0,0.0,0.0,0.235,0.3218,0.0,0.5092,0.606,0.6569,0.6814,0.6814,0.6814,0.7038,0.7699,0.8315,0.879,0.9288,0.9271,0.8748,0.7577,0.6283,0.4844,0.3155,0.206,0.1181,0.0638,-0.0394,-0.1401,-0.2304,-0.2882,-0.3891,-0.5246,-0.5114,-0.5227,-0.5648,-0.6603,-0.6903,-0.6793,-0.7815,-0.8456,-0.879,-0.8924,-0.8956,-0.901,-0.9446,-0.9679,-0.9666,-0.9519,-0.9459,-0.9439,0.0,0.0,0.0,0.0,0.0,0.0,0.0,1.0404,1.2173,1.4115,1.554,1.6857,1.8125,1.7831,1.7394,1.7064,1.6019,0.0,0.0,1.747,1.8454,1.9656,1.8848,1.8563,1.8995,1.7122,1.6074,1.5895,1.2804,1.0814,0.9805,0.4924,-0.0045,-0.5109,-1.1313,-1.5526,-1.8028,-1.866,-1.9744,-2.1039,-2.1335,-2.1797,-2.2275,-2.1754,-2.1851,-2.2279,-2.2501,-2.207,-2.1138,-1.9556,-1.7751,-1.5667,-1.3118,-1.1095,-0.8983,-0.549,-0.4858,0.0,0.0,0.0,0.0,0.0,0.0,0.0,0.0,0.0,0.2204,0.1403,0.1961,0.2872,0.3763,0.4745,0.5604,0.6413,0.66,0.6692,0.6661,0.663,0.7004,0.8167,0.8423,0.8878,0.9888,0.9927,0.9508,0.8627,0.723,0.5901,0.4765,0.2893,0.1687,0.1348,0.0589,-0.029,-0.1515,-0.1731,-0.2658,-0.4422,-0.4381,-0.4684,-0.5315,-0.548,-0.5706,-0.5932,-0.6265,-0.6773,-0.7469,-0.8183,-0.8441,-0.8373,-0.8932,-0.9299,-0.9486,-0.9245,-0.9103,-0.9103,0.0,0.0,0.0,0.0,0.0,0.0,0.0,0.0,1.1411,1.359,1.4245,1.5053,1.651,1.6195,1.5641,1.5072,0.0,0.0,1.7445,1.8882,2.0048,2.0798,2.0542,2.048,2.0736,1.9782,1.901,1.8394,1.5768,1.3206,1.0671,0.6459,0.237,-0.1851,-1.097,-1.4116,-1.2723,-1.4953,-1.6793,-1.8243,-1.8103,-1.8367,-1.882,-1.8587,-2.0469,-2.327,-2.3453,-2.2545,-2.0933,-1.9105,-1.6074,-1.2715,-1.1092,-0.816,-0.5167,-0.4293,0.0,-0.1937,0.0879,0.2413,0.0,0.2487,0.3105,0.3239,0.0,0.0,0.1715,0.157,0.1666,0.2287,0.426,0.4805,0.5294,0.6301,0.66,0.6654,0.6515,0.639,0.6942,0.856,0.934,1.0023,1.0774,1.0778,1.0634,1.0524,0.8344,0.655,0.545,0.4429,0.3052,0.1387,0.1238,0.0359,-0.1333,-0.2174,-0.3046,-0.4051,-0.4727,-0.5044,-0.5152,-0.5813,-0.5726,-0.51,-0.5888,-0.6497,-0.7058,-0.7864,-0.8447,-0.8751,-0.8798,-0.8878,-0.8905,-0.8871,-0.8851,-0.8851,0.0,0.0,0.0,0.0,0.0,0.0,0.0,0.0,0.0,1.087,1.1668,1.2396,1.3165,1.368,1.4006,1.4059,0.0,0.0,1.8031,1.9294,2.0606,2.1933,2.1799,2.1678,2.1702,2.0898,2.019,1.9553,1.672,1.4722,1.3424,0.9332,0.4272,-0.1651,-0.8154,-1.184,-1.3214,-1.4082,-1.5666,-1.7554,-1.7468,-1.683,-1.5968,-1.646,-1.6094,-1.5286,-1.5054,-1.4851,0.0,0.0,-0.5449,-0.4367,-0.3409,-0.2458,-0.1641,-0.0975,-0.1214,0.0,0.0886,0.0,0.0,0.0,0.3494,0.371,0.1448,0.112,0.1397,0.157,0.2535,0.3779,0.53,0.6652,0.7529,0.0,0.7336,0.7089,0.6314,0.6017,0.6558,0.8229,0.8811,0.9523,1.087,1.0969,1.0622,0.9982,0.8961,0.7712,0.6125,0.5186,0.4115,0.2772,0.1762,0.0883,0.0205,-0.0672,-0.1789,-0.3138,-0.3427,-0.4027,-0.4877,-0.5261,-0.5224,-0.4782,-0.5089,-0.5345,-0.5545,-0.6258,-0.6637,-0.6801,-0.7172,-0.7265,-0.7407,-0.841,-0.8804,-0.8784,0.0,0.0,0.0,0.0,0.0,0.0,0.0,0.0,0.0,0.0,0.9169,0.9933,1.0624,1.1669,1.264,0.0,0.0,0.0,0.0,1.9594,2.0997,2.2626,2.2797,2.2803,2.2705,2.2061,2.1352,2.0547,1.7673,1.5735,1.4662,1.1094,0.5989,-0.0397,-0.5012,-0.8699,-1.1438,-1.1487,-1.2499,-1.4062,-1.3675,-1.2656,-1.1468,-1.1711,-0.9906,-0.7382,-0.8625,-0.8556,0.0,0.0,0.1829,0.1867,0.2291,0.2364,0.2338,0.2471,0.1675,0.1028,0.2181,0.0,0.0,0.3518,0.3532,0.3623,0.1596,0.1002,0.1077,0.1823,0.328,0.5017,0.6651,0.8447,0.9438,0.8609,0.8285,0.768,0.6438,0.5825,0.6131,0.7602,0.8011,0.8739,1.0174,1.0646,1.049,0.9566,0.9217,0.834,0.6745,0.5794,0.4856,0.3799,0.2285,0.1412,0.1244,0.0193,-0.0955,-0.216,-0.2403,-0.3177,-0.4397,-0.4641,-0.4731,-0.4619,-0.447,-0.4511,-0.4765,-0.512,-0.5353,-0.559,-0.6031,-0.6207,-0.6347,-0.7625,-0.8088,-0.8056,0.0,0.0,0.0,0.0,0.0,0.0,0.0,0.0,0.0,0.0,0.0,0.0,0.0,0.0,0.0,0.0,0.0,0.0,0.0,2.0005,2.1503,2.2651,2.3505,2.395,2.3938,2.3723,2.2975,2.1652,1.9147,1.6259,1.3019,1.0845,0.7529,0.3291,-0.2027,-0.4446,-0.4577,-0.5326,-0.5676,-0.5615,-0.4194,-0.3997,-0.4339,-0.2649,-0.1796,-0.2211,-0.7911,0.0,0.0,0.0,0.1474,0.3319,0.3193,0.5149,0.0,0.5459,0.562,0.0,0.0,0.0,0.5839,0.3661,0.3,0.2469,0.0509,0.0073,0.0582,0.2474,0.3549,0.5144,0.8336,0.9625,1.0289,1.0211,0.9547,0.847,0.7069,0.5996,0.576,0.6662,0.7326,0.7921,0.0,0.979,1.0448,1.0093,0.9069,0.808,0.7299,0.6473,0.5268,0.3628,0.2831,0.2033,0.1111,-0.0493,-0.1294,-0.1356,-0.2147,-0.2876,-0.3629,-0.4257,-0.4529,-0.4515,-0.4317,-0.4617,-0.5271,-0.5131,-0.5536,-0.6169,-0.6213,-0.6207,-0.6207,-0.6272,-0.6277,-0.6277,0.0,0.0,0.0,0.0,0.0,0.0,0.0,0.0,0.0,0.0,0.0,0.0,0.0,0.0,0.0,0.0,0.0,0.0,0.0,1.9093,2.0757,2.1872,2.3416,2.4018,2.3475,2.3098,2.1957,2.0047,1.7113,1.452,1.2267,0.9306,0.6475,0.3771,0.0857,-0.0775,-0.1347,-0.2261,-0.1426,0.0519,0.0735,0.1587,0.2665,0.3088,0.4914,0.698,0.0,0.0,0.0,0.0,1.2276,1.14,1.063,0.0,0.0,0.7644,0.7574,0.8035,0.0,0.0,0.6643,0.4306,0.3315,0.2397,0.0437,0.0,0.0507,0.2413,0.4072,0.5922,0.8382,1.0497,1.1697,1.1194,1.0644,0.9841,0.8735,0.7627,0.7281,0.8334,0.852,0.0,0.0,0.0,0.0,0.9502,0.9149,0.8405,0.7255,0.6909,0.5981,0.4408,0.3512,0.2707,0.2029,0.0904,-0.0179,-0.1194,-0.1961,-0.2411,-0.2686,-0.3307,-0.357,-0.3594,-0.391,-0.4195,-0.4433,-0.4316,-0.4142,-0.4029,-0.4357,-0.4214,-0.3929,-0.431,-0.4496,-0.4604,0.0,0.0,0.0,0.0,0.0,0.0,0.0,0.0,0.0,0.0,0.0,0.0,0.0,0.0,0.0,0.0,0.0,0.0,0.0,0.0,1.9507,2.0636,2.2061,2.2508,2.1855,2.1209,2.0069,1.8414,1.5513,1.3212,1.1494,0.8861,0.6395,0.422,0.2668,0.1606,0.0827,0.0518,0.1665,0.3768,0.4265,0.5436,0.6928,0.7802,0.9924,0.0,0.0,0.0,0.0,0.0,0.0,0.0,1.359,1.2128,1.0645,0.9376,0.9278,0.9372,0.8474,0.8155,0.7358,0.4647,0.3421,0.229,0.0069,-0.0207,0.0479,0.2204,0.4293,0.661,0.9349,1.2059,1.3567,1.2513,1.2313,1.1707,1.0089,0.8902,0.8603,0.9544,0.9506,0.965,0.0,0.0,0.0,0.9216,0.9183,0.8632,0.7361,0.73,0.6575,0.5057,0.4134,0.3422,0.2852,0.1689,0.0519,-0.0693,-0.1449,-0.1787,-0.1853,-0.2461,-0.2778,-0.2813,-0.312,-0.33,-0.3289,-0.3161,-0.2876,-0.2546,-0.2842,-0.2724,-0.2408,-0.2812,-0.2964,-0.3153,0.0,0.0,0.0,0.0,0.0,0.0,0.0,0.0,0.0,0.0,0.0,0.0,0.0,0.0,0.0,0.0,0.0,0.0,0.0,0.0,0.0,1.9051,1.968,1.9807,1.9386,1.8501,1.7714,1.7002,1.4569,1.2509,1.0874,0.94,0.7419,0.4962,0.3672,0.2811,0.2416,0.3107,0.3815,0.4665,0.6612,0.7756,0.8648,1.1513,0.0,0.0,0.0,0.0,0.0,0.0,0.0,0.0,0.0,1.119,1.0387,1.0883,1.0875,1.0549,0.9732,0.92,0.8094,0.4957,0.3439,0.203,-0.0495,-0.0493,0.0491,0.2113,0.4333,0.7176,0.0,0.0,1.5714,1.4326,1.4523,1.3892,1.1274,1.0092,0.9701,0.0,0.0,0.0,0.0,0.0,0.0,0.9279,0.0,0.8777,0.7735,0.7723,0.7009,0.5542,0.4816,0.4103,0.34,0.1898,0.0727,0.0056,-0.0702,-0.1059,-0.1055,-0.1785,-0.2155,-0.2148,-0.2021,-0.1987,-0.1933,-0.1815,-0.1739,-0.1649,-0.1739,-0.1739,-0.1695,-0.1784,-0.1783,-0.1927,0.0,0.0,0.0,0.0,0.0,0.0,0.0,0.0,0.0,0.0,0.0,0.0,0.0,0.0,0.0,0.0,0.0,0.0,0.0,0.0,0.0,0.0,0.0,0.0,0.0,0.0,0.0,0.0,0.0,1.3476,1.232,1.0097,0.8626,0.7732,0.6339,0.5909,0.6235,0.6897,0.7602,0.8262,0.0,0.9873,1.1922,0.0,0.0,0.0,0.0,0.0,0.0,0.0,0.0,0.0,0.0,1.5069,1.3889,1.4051,1.3228,1.2202,1.1599,1.0325,0.8783,0.674,0.4336,0.1966,0.0123,-0.0123,0.0661,0.2892,0.5371,0.8304,0.0,0.0,0.0,1.686,1.6567,0.0,1.4876,1.3442,0.0,1.2292,0.0,1.1811,1.1803,1.1511,0.0,0.0,0.9508,0.8777,0.7735,0.7723,0.7009,0.5542,0.532,0.4659,0.34,0.1898,0.0993,0.0807,0.0053,-0.0259,-0.0295,-0.0922,-0.1235,-0.1245,-0.1687,-0.1584,-0.1172,-0.1159,-0.0621,0.0133,-0.0799,-0.0844,-0.0579,-0.1471,-0.1816,-0.1835,0.0,0.0,0.0,0.0,0.0,0.0,0.0,0.0,0.0,0.0,0.0,0.0,0.0,0.0,0.0,0.0,0.0,0.0,0.0,0.0,0.0,0.0,0.0,0.0,0.0,0.0,0.0,0.0,0.0,0.0,0.0,1.2391,1.1294,1.0467,0.9479,0.9134,0.9399,0.0,0.0,0.0,0.0,0.0,0.0,0.0,0.0,0.0,0.0,0.0,0.0,0.0,0.0,1.7057,1.7807,1.6992,1.577,1.6055,0.0,1.3801,1.3439,1.2048,1.0228,0.7943,0.4894,0.2158,0.1148,0.0562,0.1187,0.4569,0.7193,0.0,0.0,0.0,0.0,0.0,0.0,0.0,1.6973,1.568,1.4871,0.0,1.3927,0.0,1.2954,1.2397,1.1656,0.0,1.0097,0.9262,0.8228,0.8156,0.7664,0.6519,0.6145,0.5156,0.34,0.2565,0.1755,0.1114,0.068,0.0303,0.0,-0.0328,-0.0366,-0.0134,0.0,-0.0267,0.0266,0.0266,0.0666,0.1244,0.0533,0.0489,0.0712,0.0044,-0.022,-0.0216,0.0,0.0,0.0,0.0,0.0,0.0,0.0,0.0,0.0,0.0,0.0,0.0,0.0,0.0,0.0,0.0,0.0,0.0,0.0,0.0,0.0,0.0,0.0,0.0,0.0,0.0,0.0,0.0,0.0,0.0,0.0,0.0,0.0,0.0,0.0,0.0,0.0,0.0,0.0,0.0,0.0,0.0,0.0,0.0,0.0,0.0,0.0,0.0,0.0,0.0,2.1241,1.947,1.9592,1.8576,1.7404,1.7894,1.694,1.5616,1.528,1.3981,1.1982,0.8891,0.5269,0.2473,0.2249,0.1437,0.2059,0.6582,0.0,1.188,1.5344,1.8275,1.9681,1.8143,0.0,2.0527,1.841,1.7247,1.6807,1.735,1.5576,1.4096,1.3705,1.2989,1.2212,1.1447,1.0822,1.0013,0.8969,0.8956,0.8533,0.7723,0.6966,0.5651,0.3674,0.355,0.2776,0.1369,0.1272,0.0834,0.0236,0.0228,0.0538,0.1029,0.1029,0.134,0.1919,0.1919,0.1964,0.2053,0.1964,0.1919,0.1919,0.183,0.1787,0.1813,0.0,0.0,0.0,0.0,0.0,0.0,0.0,0.0,0.0,0.0,-0.2027,-0.2194,0.0,0.0,0.0,0.0,0.0,0.0,0.0,0.0,0.0,0.0,0.0,0.0,0.0,0.0,0.0,0.0,0.0,0.0,0.0,0.0,0.0,0.0,0.0,0.0,0.0,0.0,0.0,0.0,0.0,0.0,0.0,0.0,0.0,0.0,0.0,0.0,0.0,0.0,2.3813,2.4004,2.4746,2.3636,2.2086,2.1961,2.0238,1.8106,1.7021,1.5333,1.3138,1.0097,0.6153,0.2973,0.2723,0.2473,0.0,0.0,0.0,1.4042,1.7306,1.8563,0.0,2.0745,0.0,0.0,0.0,0.0,1.717,0.0,0.0,0.0,0.0,0.0,0.0,0.0,1.1613,1.0981,0.9718,0.9614,0.9033,0.7723,0.6966,0.6145,0.5156,0.4424,0.3614,0.2739,0.2003,0.1597,0.1491,0.1478,0.1563,0.1652,0.1652,0.0,0.2541,0.2541,0.2854,0.322,0.2721,0.2541,0.2495,0.1962,0.182,0.1809,0.0,0.0,0.0,0.0,0.0,0.0,0.0,0.1331,0.0298,-0.1412,-0.2567,-0.3139,-0.2911,-0.1828,0.0,0.0,0.0,0.0,0.0,0.0,0.0,0.0,0.0,0.0,0.0,0.0,0.0,0.0,0.0,0.0,0.0,0.0,0.0,0.0,0.0,0.0,0.0,0.0,0.0,0.0,0.0,0.0,0.0,0.0,0.0,0.0,0.0,0.0,0.0,0.0,2.4307,2.5788,2.6455,2.527,2.3608,2.3392,2.1789,1.992,1.9161,1.7857,1.5853,1.2283,0.7876,0.4519,0.4948,0.0,0.0,0.0,0.0,1.5506,1.8187,0.0,0.0,0.0,0.0,0.0,0.0,0.0,0.0,0.0,0.0,0.0,0.0,0.0,0.0,0.0,1.2344,1.1783,1.0364,0.9969,0.9138,0.7723,0.7343,0.6742,0.5871,0.5149,0.4314,0.3453,0.3053,0.2456,0.183,0.2138,0.2268,0.2273,0.2273,0.263,0.317,0.317,0.335,0.3578,0.3262,0.317,0.3126,0.286,0.2724,0.2724,0.0,0.0,0.0,0.0,0.0,0.0,0.0,0.176,0.0559,-0.1493,-0.2926,-0.3938,-0.4464,-0.3528,-0.2003,0.0,0.0,0.0,0.0,0.0,0.0,0.0,0.0,0.0,0.0,0.0,0.0,0.0,0.0,0.0,0.0,0.0,0.0,0.0,0.0,0.0,0.0,0.0,0.0,0.0,0.0,0.0,0.0,0.0,0.0,0.0,0.0,0.0,0.0,0.0,2.3721,2.5277,2.5988,2.5249,2.4073,2.3671,2.2574,2.1448,2.1143,2.0303,1.8635,1.4985,0.9718,0.588,0.7601,0.541,0.0,0.0,1.4251,1.6417,1.8426,0.0,0.0,0.0,0.0,0.0,0.0,0.0,0.0,0.0,0.0,0.0,0.0,0.0,0.0,0.0,1.2881,1.2353,1.1065,1.0269,0.9287,0.8196,0.7935,0.7379,0.6452,0.5853,0.5099,0.4148,0.4111,0.3572,0.2578,0.3058,0.3237,0.3243,0.3243,0.3514,0.3968,0.3968,0.3968,0.3968,0.3968,0.3968,0.3965,0.3887,0.3876,0.3868,0.0,0.0,0.0,0.0,0.0,0.0,0.0,0.258,0.1041,-0.162,-0.3082,-0.4616,-0.6576,-0.531,-0.353,0.0,0.0,0.0,0.0,0.0,0.0,0.0,0.0,0.0,0.0,0.0,0.0,0.0,0.0,0.0,0.0,0.0,0.0,0.0,0.0,0.0,0.0,0.0,0.0,0.0,0.0,0.0,0.0,0.0,0.0,0.0,0.0,0.0,0.0,0.0,0.0,2.1655,2.3182,2.4094,2.4441,2.3376,0.0,0.0,2.2353,2.1711,2.0594,1.8139,1.1317,0.622,0.9958,0.0,0.0,1.1134,1.4479,1.6678,1.81,1.875,0.0,0.0,0.0,0.0,0.0,0.0,0.0,0.0,0.0,0.0,0.0,0.0,0.0,1.2988,1.2881,1.2559,1.1765,1.0517,0.9762,0.9607,0.8792,0.7987,0.7189,0.6723,0.6097,0.5361,0.5213,0.5101,0.4995,0.5038,0.5038,0.5043,0.5043,0.5087,0.0,0.5135,0.5135,0.5135,0.5135,0.5135,0.511,0.4878,0.4764,0.4736,0.0,0.0,0.0,0.0,0.0,0.0,0.3914,0.3167,0.1653,-0.1101,-0.2642,-0.4311,-0.6499,-0.5985,-0.4727,-0.2871,0.0,0.0,0.0,0.0,0.0,0.0,0.0,0.0,0.0,0.0,0.0,0.0,0.0,0.0,0.0,0.0,0.0,0.0,0.0,0.0,0.0,0.0,0.0,0.0,0.0,0.0,0.0,0.0,0.0,0.0,0.0,0.0,0.0,0.0,0.0,0.0,1.9703,2.0776,0.0,0.0,2.3257,2.3357,2.3539,2.342,2.2461,1.9358,1.451,1.0533,1.0675,0.0,0.7418,1.1082,1.3894,1.6071,1.7299,1.8098,1.8626,0.0,0.0,0.0,0.0,0.0,0.0,0.0,0.0,0.0,0.0,0.0,0.0,1.3037,1.2881,1.2774,1.2501,1.1534,1.0722,1.0063,0.9353,0.8665,0.7909,0.7028,0.6523,0.6389,0.6042,0.5819,0.5791,0.5819,0.5653,0.5303,0.5303,0.5303,0.0,0.5303,0.5303,0.5293,0.5119,0.5069,0.5039,0.5,0.495,0.4973,0.0,0.0,0.0,0.0,0.0,0.4494,0.4242,0.3723,0.2389,-0.0345,-0.1861,-0.3523,-0.5739,-0.5727,-0.4861,-0.3152,-0.183,0.0,0.0,0.0,0.0,0.0,0.0,0.0,0.0,0.0,0.0,0.0,0.0,0.0,0.0,0.0,0.0,0.0,0.0,0.0,0.0,0.0,0.0,0.0,0.0,0.0,0.0,0.0,0.0,0.0,0.0,0.0,0.0,0.0,0.0,0.0,0.0,0.0,0.0,0.0,2.271,2.3351,2.4051,2.4435,2.3941,2.1169,1.6497,1.2399,0.0,0.0,0.764,1.0344,1.2881,1.5008,1.6254,1.7293,1.7912,0.0,0.0,1.9137,0.0,0.0,0.0,0.0,0.0,0.0,0.0,0.0,1.4422,1.3519,1.3113,1.2968,1.3152,1.2368,1.1477,1.0533,0.9851,0.919,0.8532,0.7676,0.7294,0.7495,0.7133,0.691,0.6884,0.6917,0.6713,0.6319,0.6319,0.6319,0.0,0.6151,0.6121,0.605,0.5756,0.5656,0.5621,0.5597,0.5564,0.5588,0.0,0.0,0.0,0.0,0.0,0.0,0.4447,0.4263,0.3213,0.0534,-0.0758,-0.2262,-0.4474,-0.4465,-0.3721,-0.2261,-0.1903,0.0,0.0,0.0,0.0,0.0,0.0,0.0,0.0,0.0,0.0,0.0,0.0,0.0,0.0,0.0,0.0,0.0,0.0,0.0,0.0,0.0,0.0,0.0,0.0,0.0,0.0,0.0,0.0,0.0,0.0,0.0,0.0,0.0,0.0,0.0,0.0,0.0,0.0,0.0,2.0956,2.2707,2.3657,2.4498,2.4915,2.4145,1.6529,1.0106,0.0,0.0,0.3785,0.869,1.1489,1.35,1.504,1.6178,1.6909,1.6903,0.0,0.0,0.0,0.0,0.0,0.0,0.0,0.0,0.0,0.0,1.4061,1.4652,1.3563,0.0,1.3779,1.2769,1.1892,1.119,1.0208,0.9485,0.9082,0.8815,0.8683,0.8675,0.8675,0.8675,0.8675,0.8675,0.8675,0.8675,0.8675,0.8675,0.0,0.8171,0.7986,0.7946,0.7524,0.736,0.7348,0.6997,0.6893,0.6844,0.0,0.0,0.0,0.0,0.0,0.0,0.0,0.4162,0.3315,0.1237,-0.0101,-0.1436,-0.2968,-0.3164,-0.2708,-0.1531,-0.1023,0.0,0.0,0.0,0.0,0.0,0.0,0.0,0.0,0.0,0.0,0.0,0.0,0.0,0.0,0.0,0.0,0.0,0.0,0.0,0.0,0.0,0.0,0.0,0.0,0.0,0.0,0.0,0.0,0.0,0.0,0.0,0.0,0.0,0.0,0.0,0.0,0.0,0.0,1.7004,1.8641,2.0433,2.1974,2.2146,2.1666,2.0683,1.6739,1.2864,1.1941,0.0,0.742,0.8812,1.0473,1.2176,1.3667,1.4745,1.5468,1.5685,1.6275,0.0,0.0,0.0,0.0,0.0,0.0,0.0,0.0,0.0,1.496,1.4709,1.3967,1.3596,1.386,1.317,1.2368,1.149,1.0496,0.9802,0.9383,0.8937,0.8878,0.9239,0.8878,0.8878,0.9239,0.8878,0.8543,0.8242,0.8568,0.8717,0.8762,0.8526,0.8615,0.8785,0.7835,0.7466,0.7423,0.7132,0.7208,0.7463,0.0,0.0,0.0,0.0,0.0,0.0,0.0,0.407,0.3575,0.194,0.0886,-0.0141,-0.1358,-0.1745,-0.1452,-0.0324,0.0247,0.0,0.0,0.0,0.0,0.0,0.0,0.0,0.0,0.0,0.0,0.0,0.0,0.0,0.0,0.0,0.0,0.0,0.0,0.0,0.0,0.0,0.0,0.0,0.0,0.0,0.9155,0.0,0.0,0.0,0.0,0.0,0.0,0.0,0.0,0.0,0.0,0.0,0.0,0.0,1.6366,1.7701,0.0,2.045,1.9988,1.8998,1.6233,0.0,0.0,0.0,0.8452,0.86,0.9858,1.1295,1.2508,1.3451,1.4241,1.4894,1.5454,0.0,0.0,0.0,0.0,0.0,0.0,0.0,0.0,1.5804,1.5543,1.5377,1.4606,1.4167,1.4221,1.3488,1.27,1.1943,1.1306,1.0674,1.006,0.9923,0.9848,0.9744,0.961,0.9725,1.0038,0.9687,0.9385,0.9115,0.9413,0.9431,0.0,0.9046,0.9107,0.9298,0.8342,0.7986,0.7957,0.7812,0.7897,0.8163,0.0,0.0,0.0,0.0,0.0,0.0,0.0,0.3978,0.3834,0.2524,0.1972,0.1298,0.0204,-0.0222,0.0,0.1173,0.0,0.0,0.0,0.0,0.0,0.0,0.0,0.0,0.0,0.0,0.0,0.7829,0.6162,0.4129,0.1767,-0.0176,0.0,0.0,0.0,0.0,0.0,0.0,0.0,0.0,0.6841,0.8372,0.0,0.0,0.0,0.0,0.0,0.0,0.0,0.0,0.0,0.0,0.0,0.0,0.0,0.0,0.0,0.0,0.0,1.9068,1.9309,1.8531,1.5072,1.1812,0.0,0.0,0.0,0.0,0.9567,1.0829,1.1565,1.2309,1.3139,1.4305,0.0,0.0,0.0,0.0,0.0,0.0,0.0,0.0,1.5806,1.5691,1.5908,1.6479,1.5433,1.4788,1.4827,1.3822,1.3024,1.2446,1.2474,1.2031,1.1057,1.1553,1.1264,1.0255,1.0701,1.0909,1.0909,1.0909,1.0887,0.0,1.0898,1.0609,1.0099,0.9685,0.9556,0.957,0.9063,0.8887,0.8915,0.8915,0.8903,0.8985,0.0,0.0,0.0,0.0,0.0,0.0,0.0,0.0,0.0,0.0,0.1333,0.0938,0.0857,0.094,0.1305,0.0,0.0,0.0,0.0,0.0,0.0,0.0,0.0,0.0,0.0,0.0,0.0,0.8041,0.6373,0.4324,0.1891,-0.0178,-0.2103,-0.3767,0.0,0.0,0.0,0.0,0.0,0.0,0.733,0.912,0.0,0.0,0.0,0.0,1.0527,1.043,0.0,0.0,0.0,0.0,0.0,0.0,0.0,0.0,1.3982,1.4443,1.5209,0.0,1.54,1.4862,1.3068,1.1159,0.0,0.0,0.0,0.0,0.0,1.0025,1.0746,1.1138,1.1652,0.0,0.0,0.0,0.0,0.0,0.0,0.0,0.0,0.0,1.5844,1.6056,1.6337,1.6479,1.582,1.5238,1.4906,1.4217,1.356,1.3045,1.3009,1.2543,1.1627,1.1737,1.1444,1.0736,1.084,1.0909,1.0909,1.0909,1.0743,1.0453,1.0788,1.0617,1.0173,0.9956,1.0233,1.0704,0.9886,0.9715,0.9945,0.9893,1.0017,1.0299,0.0,0.0,0.0,0.0,0.0,0.0,0.0,0.0,0.0,0.0,0.0,0.0,0.0,0.0,0.0,0.0,0.0,0.0,0.0,0.0,0.0,0.0,0.0,0.0,0.0,0.9039,0.8537,0.8072,0.647,0.4565,0.2312,0.0,-0.2171,-0.4153,-0.5087,0.0,0.0,0.0,0.0,0.0,0.7448,0.0,0.0,0.0,0.0,0.0,1.0753,1.0611,0.0,1.1244,1.1304,1.1391,0.0,0.0,0.0,0.0,1.3635,1.3973,1.409,1.4184,1.416,1.3848,1.2799,1.1642,0.0,0.0,0.0,0.0,0.0,0.0,1.0869,0.0,0.0,0.0,0.0,0.0,0.0,0.0,0.0,0.0,0.0,0.0,0.0,1.6346,1.6522,1.6522,1.6429,1.594,1.4966,1.4801,1.43,1.3235,1.3198,1.2838,1.2138,1.2318,1.206,1.1263,1.1499,1.16,1.16,1.16,1.1328,1.0919,1.1264,1.0997,1.0293,1.0387,1.0664,1.0999,1.0502,1.0478,1.0739,1.0721,1.0879,1.1109,0.0,0.0,0.0,0.0,0.0,0.0,0.0,0.0,0.0,0.0,0.0,0.0,0.0,0.0,0.0,0.0,0.0,0.0,0.0,0.0,0.0,0.0,0.0,0.0,0.9177,0.8805,0.839,0.8021,0.6531,0.478,0.2754,0.0261,-0.2225,-0.466,-0.5275,0.0,0.0,0.0,0.0,0.0,0.7372,0.0,0.0,0.0,0.0,0.0,0.0,0.0,0.0,1.133,1.1645,1.2034,1.2614,0.0,0.0,0.0,0.0,0.0,1.3835,1.427,1.4501,1.4071,1.3247,1.2461,0.0,0.0,0.0,0.0,0.0,0.0,0.0,0.0,0.0,0.0,0.0,0.0,0.0,0.0,0.0,0.0,0.0,0.0,1.6524,1.6659,1.6752,1.6752,1.7146,1.673,1.5184,1.5638,1.5148,1.3463,1.3501,1.333,1.2801,1.2995,1.2654,1.179,1.2187,1.2412,1.2488,1.2488,1.2266,1.1929,0.0,0.0,1.0628,1.0828,1.092,1.0968,1.1001,1.1205,1.1454,1.1542,1.1604,1.1571,0.0,0.0,0.0,0.0,0.0,0.0,0.0,0.0,0.0,0.0,0.0,0.0,0.0,0.0,0.0,0.0,0.0,0.0,0.0,0.0,0.0,0.0,0.0,0.8594,0.9177,0.8472,0.8062,0.8021,0.6641,0.488,0.2754,0.0608,-0.2305,-0.5755,-0.5634,0.0,0.0,0.0,0.0,0.4555,0.7348,0.0,0.0,0.0,0.0,0.0,0.0,0.0,0.0,1.0943,1.0903,1.0873,1.1964,0.0,0.0,0.0,0.0,0.0,1.3868,1.4972,1.5612,1.3723,1.2995,1.2591,0.0,0.0,0.0,0.0,0.0,0.0,0.0,0.0,0.0,0.0,0.0,0.0,0.0,0.0,0.0,0.0,0.0,1.8016,1.6639,1.733,1.7867,1.7867,1.7947,1.7413,1.615,1.6707,1.6198,1.4365,1.4867,1.4848,1.42,1.3071,1.2459,1.2307,1.2251,1.2462,1.2909,1.2909,1.3084,1.332,0.0,1.1869,1.164,1.1104,1.1024,1.125,1.1476,1.1773,1.2113,1.2572,1.2355,1.171,0.0,0.0,0.0,0.0,0.0,0.0,0.0,0.0,0.0,0.0,0.0,0.0,0.0,0.0,0.0,0.0,0.0,0.0,0.0,0.0,0.0,0.0,0.8179,0.8924,0.9399,0.895,0.8667,0.861,0.6771,0.4905,0.2878,-0.0738,-0.3587,-0.5701,-0.5169,-0.4217,-0.2812,-0.0234,0.2139,0.4339,0.0,0.0,0.0,0.0,0.0,0.0,0.0,0.0,0.0,0.0,1.1289,1.1472,1.2319,0.0,0.0,0.0,0.0,0.0,1.4224,1.4994,1.559,1.5332,1.5559,0.0,0.0,0.0,0.0,0.0,0.0,0.0,0.0,0.0,0.0,0.0,0.0,0.0,0.0,0.0,0.0,0.0,0.0,1.7862,1.7407,1.7822,1.8106,1.8106,1.838,1.8026,1.6908,1.7424,1.6923,1.5105,1.536,1.5175,1.4515,1.357,1.3249,1.3523,1.3475,1.3568,1.3825,1.3825,1.3564,1.3149,0.0,1.2233,1.1561,1.1439,1.1534,1.1796,1.1915,1.224,1.2684,1.3142,1.2584,1.1531,0.0,0.0,0.0,0.0,0.0,0.0,0.0,0.0,0.0,0.0,0.0,0.0,0.0,0.0,0.0,0.0,0.0,0.0,0.0,0.0,0.679,0.7837,0.8856,0.9545,0.9875,0.9758,0.9591,0.9455,0.7382,0.5164,0.2786,-0.1521,-0.3908,-0.4617,-0.4081,-0.3236,-0.2089,0.0191,0.2245,0.424,0.0,0.0,0.0,0.0,0.0,0.0,0.0,0.0,0.0,0.0,0.0,0.0,0.0,0.0,0.0,1.3318,1.3551,1.3799,1.4685,1.5303,1.5922,0.0,0.0,0.0,0.0,0.0,0.0,0.0,0.0,0.0,0.0,0.0,0.0,0.0,0.0,0.0,0.0,1.8005,1.7146,1.7473,1.7717,1.7974,1.8246,1.8419,1.8458,1.8458,1.8855,1.8656,1.7681,1.8085,1.7573,1.5839,1.5862,1.5563,1.4828,1.4408,1.4288,1.4501,1.4488,1.4519,1.4627,1.4627,1.4102,1.3177,1.3213,1.265,1.1762,1.185,1.2045,1.2291,1.2352,1.2665,1.3105,1.3287,1.2508,1.1381,0.0,0.0,0.0,0.0,0.0,0.0,0.0,0.0,0.0,0.0,0.0,0.0,0.0,0.0,0.0,0.0,0.0,0.0,0.0,0.0,0.7363,0.8658,0.9656,1.0391,1.0692,1.0774,1.0678,1.049,0.8893,0.6067,0.2134,-0.0305,-0.1664,-0.2159,-0.2153,-0.1575,-0.0497,0.0749,0.2385,0.4339,0.5862,0.0,0.0,0.0,0.0,0.0,0.0,0.0,0.0,0.0,0.0,0.0,0.0,0.0,1.3213,1.3488,1.4025,1.4634,1.518,1.6469,1.7661,1.8036,0.0,0.0,0.0,0.0,0.0,0.0,0.0,0.0,0.0,0.0,0.0,0.0,0.0,0.0,0.0,0.0,1.8574,1.8115,1.8896,1.9361,1.8878,1.9281,1.9566,1.9566,1.9603,1.9319,1.8629,1.8943,1.8353,1.6664,1.6984,1.6694,1.5712,1.5667,1.5271,1.4501,1.4354,1.4573,1.5074,1.5074,1.4921,1.4597,1.3615,1.3148,1.3021,1.2411,1.2332,1.2591,1.285,1.3121,1.3312,1.2781,1.2126,1.1417,0.0,0.0,0.0,0.0,0.0,0.0,0.0,0.0,0.0,0.0,0.0,0.0,0.0,0.0,0.0,0.0,0.0,0.0,0.0,0.0,0.8391,0.9327,1.0708,1.1978,1.3023,1.2765,1.2558,1.2358,0.9062,0.5925,0.3004,0.122,0.0227,-0.0137,-0.0046,0.0095,0.0387,0.1742,0.2682,0.3438,0.5385,0.6925,0.0,0.0,0.0,0.0,0.0,0.0,0.0,0.0,1.2425,1.2814,1.3104,1.3103,1.3168,1.3977,1.427,1.4542,1.5403,1.665,1.7759,1.813,0.0,0.0,0.0,0.0,0.0,0.0,0.0,0.0,0.0,0.0,0.0,0.0,0.0,0.0,2.1069,2.0373,1.9707,1.9498,2.0093,2.033,1.9814,2.0212,2.0514,2.0514,2.0227,2.0085,2.0139,1.9522,1.8857,1.8092,1.7584,1.7011,1.6436,1.6219,1.605,1.592,1.5679,1.5654,1.5838,1.5606,1.5338,1.5051,1.3927,1.3457,1.3484,1.3251,1.3027,1.2887,1.3138,1.3311,1.3396,1.338,1.2881,1.2176,0.0,0.0,0.0,0.0,0.0,0.0,0.0,0.0,0.0,0.0,0.0,0.0,0.0,0.0,0.0,0.0,0.0,0.0,0.0,0.0,0.9142,0.9934,1.1341,1.2808,1.4311,1.4322,1.4235,1.4053,0.9999,0.6916,0.478,0.3478,0.0,0.0,0.0,0.1924,0.1562,0.2465,0.3008,0.3322,0.5135,0.6534,0.0,0.0,0.0,0.0,0.0,0.0,0.0,0.0,1.3113,1.3622,1.3967,1.388,1.3796,1.4673,1.5066,1.5412,1.6205,1.7105,1.7996,0.0,0.0,0.0,0.0,0.0,0.0,0.0,0.0,0.0,0.0,0.0,0.0,0.0,0.0,2.1312,2.1911,2.1158,2.0516,2.0516,2.0797,2.0862,2.055,2.0829,2.0991,2.0991,2.0682,2.0649,2.0991,2.0131,1.9387,1.8911,1.8083,1.7384,1.6805,1.6581,1.6633,1.6968,1.6722,1.6554,1.6432,1.6178,1.5819,1.5402,1.4629,1.424,1.4173,1.3909,1.3544,1.3156,1.3362,1.3462,1.351,1.3856,1.3503,1.2768,0.0,0.0,0.0,0.0,0.0,0.0,0.0,0.0,0.0,0.0,0.0,0.0,0.0,0.0,0.0,0.0,0.0,0.0,0.0,0.8935,0.9487,1.0534,1.1417,1.2628,1.4145,1.5154,1.5605,1.5472,1.2097,0.9403,0.7416,0.653,0.0,0.0,0.0,0.0,0.3178,0.2947,0.3348,0.4284,0.5227,0.6361,0.7669,0.0,0.0,0.0,0.0,0.0,0.0,0.0,1.3842,1.4533,1.4648,1.4925,1.5271,1.5506,1.6508,1.7518,1.7729,1.8054,0.0,0.0,0.0,0.0,0.0,0.0,0.0,0.0,0.0,0.0,0.0,0.0,0.0,2.0586,2.1369,2.1997,2.1997,2.1439,2.0991,2.0991,2.0991,2.0991,2.1007,2.1007,2.0991,2.0991,2.1007,2.1007,2.0991,2.0668,2.0009,1.8924,1.8561,1.7885,1.6831,1.6815,1.6977,1.7304,1.732,1.7126,1.6815,1.6815,1.644,1.5799,1.5783,1.5574,1.5164,1.4404,1.3841,1.343,1.3556,1.36,1.3646,1.4051,1.3714,1.3052,0.0,0.0,0.0,0.0,0.0,0.0,0.0,0.0,0.0,0.0,0.0,0.0,0.0,0.0,0.0,0.0,0.0,0.0,0.0,0.0,0.9313,0.9544,1.0887,1.2153,1.3252,1.4218,1.4608,1.4376,1.2267,1.0416,0.8854,0.0,0.0,0.6141,0.0,0.0,0.4155,0.3943,0.384,0.3967,0.5198,0.6249,0.7335,0.0,0.0,0.0,0.0,0.0,0.0,0.0,0.0,0.0,1.5121,1.4965,1.4714,1.5182,1.5299,1.5341,1.578,1.7823,0.0,0.0,0.0,0.0,0.0,0.0,0.0,0.0,0.0,0.0,0.0,0.0,0.0,2.0638,2.0989,2.1567,2.236,2.2061,2.1782,2.1782,2.2012,2.2,2.146,2.1705,2.1915,2.1915,2.1615,2.1568,2.1886,2.0515,1.9712,1.9658,1.8344,1.7599,1.7519,1.7272,1.732,1.7641,1.7827,1.7653,1.7158,1.6862,1.6772,1.6806,1.6022,1.5884,1.6152,1.4908,1.4702,1.5054,1.4018,1.3693,1.3838,1.4092,1.4057,1.378,0.0,0.0,0.0,0.0,0.0,0.0,0.0,0.0,0.0,0.0,0.6712,0.6907,0.0,0.0,0.0,0.0,0.0,0.0,0.0,0.0,0.8949,0.89,0.9857,1.1049,1.2426,1.3101,1.348,1.3638,1.2375,0.0,0.0,0.0,0.8316,0.7478,0.0,0.6041,0.499,0.4787,0.4443,0.4136,0.513,0.6021,0.689,0.0,0.0,0.0,0.0,0.0,0.0,0.0,0.0,0.0,1.5623,0.0,0.0,1.633,1.6168,1.6137,1.7794,0.0,0.0,0.0,0.0,0.0,0.0,0.0,0.0,0.0,0.0,0.0,0.0,0.0,0.0,2.1657,2.1765,2.2107,2.2805,2.2686,2.2556,2.2556,2.2754,2.2729,2.2279,2.2493,2.2677,2.2677,2.2395,2.2351,2.2634,2.1225,2.0398,2.0343,1.8979,1.816,1.7949,1.776,1.776,1.7971,1.8125,1.8065,1.7815,1.758,1.7593,1.7747,1.6752,1.64,1.6452,1.521,1.4865,1.5017,1.4182,1.3913,1.4038,1.4257,1.4307,1.4277,0.0,0.0,0.6918,0.6609,0.0,0.0,0.0,0.0,0.0,0.0,0.6955,0.7227,0.0,0.0,0.0,0.0,0.0,0.0,0.0,0.0,0.0,0.8415,0.8616,0.9618,1.1624,1.1881,1.2366,1.306,1.2353,0.0,0.0,0.0,0.944,0.8382,0.0,0.708,0.5771,0.5518,0.5173,0.4831,0.5303,0.5862,0.6579,0.7837,0.0,0.0,0.0,0.0,0.0,0.0,0.0,0.0,1.608,1.6586,1.715,1.7987,1.8161,1.8728,0.0,0.0,0.0,0.0,0.0,0.0,0.0,0.0,0.0,0.0,0.0,0.0,0.0,0.0,2.3189,2.3189,2.3189,2.3212,2.3236,2.3253,2.3253,2.3253,2.3253,2.3236,2.3189,2.3189,2.3189,2.3189,2.3189,2.3189,2.3189,2.2369,2.1591,2.0926,2.0053,1.9172,1.8246,1.8229,1.8229,1.8229,1.827,1.8391,1.8641,1.8604,1.8585,1.855,1.7842,1.71,1.6338,1.5475,1.4695,1.403,1.4154,1.4201,1.4257,1.4422,1.4488,1.4499,0.0,0.0,0.7127,0.6999,0.0,0.0,0.0,0.0,0.0,0.0,0.0,0.0,0.0,0.0,0.0,0.0,0.0,0.0,0.0,0.0,0.0,0.723,0.8111,0.9248,1.0598,1.1025,1.152,1.2103,1.1984,0.0,0.0,0.0,0.0,0.903,0.0,0.7489,0.7049,0.6592,0.6337,0.6295,0.6628,0.7049,0.746,0.8261,0.8996,0.0,0.0,0.0,0.0,0.0,0.0,0.0,1.6188,1.6263,1.611,1.6193,1.7371,1.868,0.0,0.0,0.0,0.0,0.0,0.0,0.0,0.0,0.0,0.0,0.0,0.0,0.0,2.4233,2.3189,2.3189,2.3189,2.33,2.3566,2.3588,2.3588,2.3588,2.3588,2.35,2.323,2.3189,2.3189,2.3189,2.3189,2.3189,2.3189,2.1879,2.1047,2.0909,1.956,1.8725,1.8508,1.8508,1.8508,1.8508,1.8734,1.8861,1.8914,1.8697,1.8585,1.8585,1.8408,1.7895,1.71,1.6339,1.5604,1.4952,1.4409,1.4295,1.4441,1.4476,1.4488,1.4511,0.0,0.0,0.0,0.0,0.0,0.0,0.0,0.0,0.0,0.0,0.0,0.0,0.0,0.0,0.0,0.0,0.9377,0.9032,0.8316,0.8043,0.7616,0.6875,0.7784,0.8876,1.0079,1.0591,1.1383,0.0,0.0,0.0,0.0,0.0,0.0,0.9637,0.0,0.8252,0.7724,0.7398,0.7147,0.693,0.7007,0.7224,0.7607,0.7915,0.8399,0.9053,0.9857,0.0,0.0,0.0,0.0,0.0,0.0,0.0,1.637,1.7063,1.7524,1.8362,0.0,0.0,0.0,0.0,0.0,0.0,0.0,0.0,0.0,0.0,0.0,0.0,0.0,2.4774,2.3969,2.3969,2.3969,2.4025,2.4192,2.4229,2.4229,2.4229,2.4229,2.4174,2.3988,2.3969,2.3969,2.3969,2.3969,2.3911,2.3826,2.2299,2.1388,2.1329,1.9759,1.8895,1.8789,1.8789,1.8789,1.8789,1.8931,1.9052,1.9134,1.8999,1.8731,1.8336,1.7941,1.7377,1.6624,1.5775,1.5279,1.4965,1.452,1.4399,1.4488,1.4488,1.4488,1.4511,0.0,0.0,0.0,0.0,0.0,0.0,0.0,0.0,0.0,0.0,0.0,0.0,0.0,0.0,0.9239,0.0,0.0,0.0,0.8399,0.8016,0.7558,0.6965,0.7675,0.8683,0.9915,1.0636,1.1718,0.0,0.0,0.0,0.0,0.0,0.0,1.0293,0.0,0.9151,0.8333,0.8267,0.8013,0.7626,0.737,0.746,0.778,0.7716,0.8005,0.8496,0.8907,0.9702,1.0641,1.1522,0.0,0.0,0.0,0.0,1.674,1.8155,1.7985,1.8427,0.0,0.0,0.0,0.0,0.0,0.0,0.0,0.0,0.0,0.0,0.0,0.0,2.6324,2.545,2.4804,2.4804,2.4804,2.4804,2.4804,2.4804,2.4804,2.4804,2.4804,2.4804,2.4804,2.4804,2.4804,2.4804,2.4804,2.4731,2.4559,2.297,2.1999,2.1902,2.0262,1.9305,1.9102,1.9102,1.9086,1.9052,1.9052,1.915,1.935,1.932,1.8849,1.806,1.7413,1.6676,1.5837,1.5092,1.4754,1.4727,1.4603,1.4567,1.4567,1.4567,1.4567,1.4589,0.0,0.0,0.0,0.0,0.0,0.0,0.0,0.0,0.0,0.0,0.6956,0.7509,0.0,0.8465,0.8794,0.9329,0.9366,0.9123,0.8426,0.0,0.0,0.7182,0.7998,0.8996,1.0128,1.1542,1.269,0.0,0.0,0.0,0.0,0.0,0.0,1.1191,0.0,0.0,0.964,0.964,0.96,0.9512,0.9323,0.9253,0.9253,0.8933,0.9022,0.9319,0.9093,0.9552,1.0311,1.086,1.153,0.0,0.0,0.0,1.5622,1.6295,1.8052,0.0,0.0,0.0,0.0,0.0,0.0,0.0,0.0,0.0,0.0,0.0,0.0,2.7167,2.7072,2.5808,2.4804,2.4804,2.4804,2.4804,2.4804,2.4804,2.4804,2.4804,2.4804,2.4804,2.4804,2.4804,2.4804,2.4804,2.4804,2.479,2.476,2.3177,2.2246,2.2219,2.0615,1.9663,1.9513,1.9513,1.9442,1.9259,1.9259,1.9383,1.9555,1.938,1.8849,1.8096,1.8106,1.7275,1.5897,1.5891,1.5499,1.4877,1.4841,1.485,1.485,1.485,1.485,1.485,0.0,0.0,0.0,0.0,0.0,0.0,0.0,0.0,0.0,0.0,0.0,0.7592,0.817,0.8306,0.8509,0.8967,0.8839,0.8476,0.7809,0.7304,0.7105,0.7349,0.8187,0.9397,1.0951,0.0,0.0,0.0,0.0,0.0,0.0,1.4431,1.3311,0.0,0.0,0.0,0.0,0.0,1.0263,0.9981,0.9845,0.9867,0.0,0.0,0.9331,0.9497,0.8986,0.9262,0.9845,1.0099,1.073,1.1564,1.2631,0.0,0.0,0.0,0.0,0.0,0.0,0.0,0.0,0.0,0.0,0.0,0.0,0.0,0.0,0.0,2.8743,2.7493,2.6963,2.5881,2.508,2.508,2.508,2.508,2.508,2.508,2.508,2.508,2.508,2.508,2.508,2.508,2.508,2.508,2.508,2.5024,2.4917,2.379,2.2886,2.2318,2.1142,2.0257,1.972,1.9701,1.9663,1.958,1.958,1.9638,1.972,1.9625,1.9132,1.8348,1.7851,1.7057,1.6083,1.5621,1.5241,1.4957,1.4911,1.4904,1.4904,1.4904,1.4904,1.4921,0.0,0.0,0.0,0.0,0.0,0.0,0.0,0.0,0.0,0.0,0.0,0.7643,0.8136,0.0,0.0,0.0,0.8299,0.7895,0.7262,0.6949,0.6982,0.7391,0.8342,0.9683,1.1545,0.0,0.0,0.0,0.0,0.0,1.6717,1.633,1.5387,0.0,1.3074,0.0,0.0,0.0,0.0,0.0,0.0,0.0,0.0,0.0,0.0,0.0,0.0,0.9389,0.9645,0.9585,1.0011,1.0695,1.1502,1.2731,0.0,0.0,0.0,0.0,0.0,0.0,0.0,0.0,0.0,0.0,0.0,0.0,0.0,0.0,2.9427,2.8099,2.7149,2.6072,2.533,2.5357,2.5346,2.5346,2.5346,2.5346,2.5346,2.5346,2.5339,2.5331,2.5331,2.5303,2.5303,2.5303,2.5303,2.5224,2.5088,2.4105,2.319,2.2443,2.143,2.0565,1.9847,1.9813,1.979,1.979,1.979,1.9813,1.9847,1.9594,1.9193,1.864,1.7643,1.6724,1.5922,1.5258,1.5015,1.5054,1.5,1.4987,1.4987,1.4987,1.4987,1.4976,0.0,0.0,0.0,0.0,0.0,0.0,0.0,0.0,0.0,0.0,0.0,0.7447,0.8136,0.7802,0.7614,0.783,0.7823,0.7597,0.7061,0.6547,0.6518,0.7168,0.8294,0.0,1.1581,0.0,0.0,0.0,0.0,0.0,1.8186,1.7572,1.7186,1.6889,1.4758,1.3644,1.3344,0.0,0.0,0.0,0.0,1.2574,0.0,0.0,0.0,0.0,0.0,0.0,1.0016,0.9645,0.9408,0.9448,0.0,0.0,0.0,0.0,0.0,0.0,0.0,0.0,0.0,0.0,0.0,0.0,0.0,0.0,0.0,0.0,3.001,2.914,2.8193,2.6586,2.5415,2.5488,2.5479,2.5479,2.5479,2.5479,2.5479,2.5479,2.5428,2.5391,2.5391,2.5339,2.5303,2.5303,2.5303,2.5303,2.5274,2.3745,2.2822,2.2775,2.1199,2.0227,1.9984,1.9869,1.979,1.979,1.979,1.9869,1.9955,1.9004,1.8726,1.8912,1.7922,1.6565,1.5078,1.5153,1.5183,1.5183,1.5183,1.5177,1.5177,1.5177,1.5177,1.5177,0.0,0.0,0.0,0.0,0.0,0.0,0.0,0.0,0.0,0.0,0.0,0.0,0.0,0.754,0.7077,0.7316,0.6893,0.6328,0.5687,0.5796,0.6068,0.6525,0.7812,0.9451,1.1431,0.0,0.0,0.0,0.0,1.8142,1.8436,1.8422,1.8211,1.7761,1.6066,1.5038,1.4558,1.4009,0.0,0.0,1.3277,1.3202,0.0,0.0,0.0,0.0,0.0,0.0,0.0,0.0,0.0,0.0,0.0,0.0,0.0,0.0,0.0,0.0,0.0,0.0,0.0,0.0,0.0,0.0,0.0,0.0,0.0,3.0581,3.0039,2.9197,2.8387,2.7164,2.611,2.5586,2.5493,2.5493,2.5493,2.5493,2.5493,2.5493,2.5488,2.5451,2.5451,2.5447,2.5428,2.5428,2.5383,2.5363,2.5363,2.4753,2.3908,2.2831,2.2216,2.1353,2.0197,2.0134,2.0107,2.0107,2.0107,2.0153,2.0178,1.9819,1.9098,1.8138,1.7776,1.6994,1.5926,1.5414,1.5189,1.5189,1.5189,1.5224,1.5265,1.5265,1.525,1.5265,0.0,0.0,0.0,0.0,0.0,0.0,0.0,0.0,0.0,0.0,0.0,0.0,0.0,0.0,0.7085,0.6862,0.6199,0.5615,0.5139,0.5298,0.5624,0.6106,0.7359,0.8972,1.0961,0.0,0.0,0.0,0.0,0.0,0.0,1.8734,1.866,1.8217,1.7169,1.6302,0.0,0.0,0.0,1.3722,0.0,1.3869,1.3305,0.0,0.0,0.0,0.0,0.0,0.0,0.0,0.0,0.0,0.0,0.0,0.0,0.0,0.0,0.0,0.0,0.0,0.0,0.0,0.0,0.0,0.0,0.0,0.0,3.0125,3.0046,2.9606,2.8867,2.8192,2.7264,2.5798,2.5564,2.5564,2.5564,2.5564,2.5564,2.5564,2.5551,2.552,2.552,2.5503,2.5493,2.5493,2.5465,0.0,2.5428,2.5139,2.432,2.2879,2.253,2.1831,2.0716,2.0427,2.0312,2.0312,2.0312,2.0312,2.0292,1.9996,1.9234,1.8107,1.7549,1.6849,1.6044,1.5466,1.5226,1.5226,1.5226,1.5255,1.5307,1.5307,1.529,1.5296,0.0,0.0,0.0,0.0,0.0,0.0,0.0,0.0,0.0,0.0,0.0,0.0,0.0,0.0,0.0,0.6402,0.5856,0.5559,0.5453,0.503,0.5168,0.593,0.6926,0.8335,1.0115,1.143,0.0,0.0,0.0,0.0,0.0,0.0,1.8506,0.0,1.8027,1.7363,1.6486,0.0,1.5285,1.4707,0.0,1.4751,1.3205,0.0,0.0,0.0,1.2428,1.1799,0.0,1.0911,0.0,0.0,0.0,0.0,0.0,0.0,0.0,0.0,0.0,0.0,0.0,0.0,0.0,0.0,2.4861,0.0,2.8392,2.9272,3.013,3.0467,2.9725,2.959,2.8769,2.6191,2.5742,2.5723,2.5703,2.5703,2.5703,2.5703,2.5637,2.5603,2.5603,2.5547,2.5517,2.5517,2.5493,2.5493,2.5493,2.4739,2.3879,2.2966,2.2018,2.1504,2.1504,2.0696,2.0312,2.0312,2.0312,2.0312,2.0273,1.9419,1.9023,1.8915,1.7279,1.6127,1.5379,1.5321,1.5295,1.5296,1.5296,1.5296,1.5299,1.5299,1.5299,1.5299,0.0,0.0,0.0,0.0,0.0,0.0,0.0,0.0,0.0,0.0,0.0,0.0,0.0,0.0,0.0,0.5882,0.5526,0.518,0.4718,0.4708,0.4938,0.541,0.6431,0.7643,0.9103,1.075,0.0,0.0,0.0,0.0,0.0,0.0,0.0,0.0,1.7563,1.7254,1.6767,1.6363,0.0,0.0,1.6121,1.5965,0.0,0.0,0.0,0.0,0.0,1.3219,1.2351,0.0,1.0853,0.9334,0.0,0.0,0.0,0.0,0.0,0.0,1.723,0.0,0.0,0.0,0.0,0.0,2.3212,2.5351,2.7297,2.8226,2.9564,3.0322,2.9533,2.9458,2.9086,2.7737,2.7028,2.6426,2.5781,2.5703,2.5703,2.5703,2.5683,2.5662,2.5662,2.5659,2.5637,0.0,2.5601,2.5567,2.5567,2.476,2.4189,2.3918,2.239,2.1572,2.1572,2.0735,2.0312,2.0312,2.0312,2.0312,2.0292,2.0054,1.96,1.8972,1.8511,1.7874,1.7082,1.5823,1.5295,1.5296,1.5296,1.5331,1.5366,1.5366,1.5377,1.5367,0.0,0.0,0.0,0.0,0.0,0.0,0.0,0.0,0.0,0.0,0.0,0.0,0.0,0.0,0.0,0.6225,0.5885,0.5488,0.4899,0.4854,0.4968,0.5298,0.6127,0.7183,0.8367,0.9847,0.0,0.0,0.0,0.0,0.0,0.0,0.0,0.0,0.0,0.0,0.0,0.0,0.0,0.0,1.6742,0.0,0.0,1.6499,1.6609,0.0,0.0,0.0,1.2892,1.3421,1.1895,0.0,0.0,0.0,0.0,0.0,0.0,0.0,0.0,0.0,0.0,0.0,0.0,0.0,2.1886,2.3898,2.6007,0.0,2.9062,2.9931,2.9862,2.9917,2.9667,2.8805,2.8262,2.7682,2.6894,2.6444,2.6345,2.6738,2.6112,2.5818,2.6191,2.5918,2.5703,2.5703,2.5661,2.5637,2.5637,2.5125,2.4849,2.4849,2.3475,2.2546,2.2191,2.1313,2.0701,2.0347,2.0308,2.0294,2.0294,2.0308,2.0027,1.9529,1.9167,1.8774,1.8263,1.6546,1.5854,1.5841,1.549,1.5379,1.5405,1.5405,1.5408,1.5391,0.0,0.0,1.259,1.2366,1.2579,0.0,0.0,0.0,0.0,0.0,0.0,0.0,0.0,0.0,0.0,0.0,0.6598,0.6124,0.5615,0.5328,0.5285,0.5577,0.6124,0.6875,0.79,0.8911,0.0,0.0,0.0,0.0,0.0,0.0,0.0,0.0,1.6712,1.6686,0.0,0.0,0.0,1.5936,1.7248,1.7106,0.0,0.0,1.7093,1.6078,1.6575,1.5121,1.3115,1.4238,1.2786,0.0,0.0,0.0,0.0,0.0,1.2477,0.0,0.0,0.0,0.0,0.0,0.0,0.0,2.075,2.2478,2.4534,2.7021,2.821,2.904,2.9881,3.0036,2.9783,2.9018,2.9044,2.8972,2.8355,2.7565,2.7344,2.8181,2.6864,2.6177,2.6913,2.6289,2.5801,2.5703,2.5703,2.5703,2.5703,2.5637,2.5607,2.5607,2.4774,2.3891,2.303,2.2131,2.1251,2.041,2.0332,2.0305,2.0299,2.0301,2.0308,2.0261,1.9484,1.914,1.8986,1.7411,1.6711,1.6601,1.5742,1.5391,1.5391,1.5391,1.5391,1.5391,1.2067,1.2636,1.3039,1.3221,0.0,0.0,0.0,0.0,0.0,0.0,0.0,0.0,0.0,0.0,0.0,0.0,0.0,0.6605,0.6167,0.6081,0.6081,0.6124,0.6719,0.7217,0.7592,0.8887,1.0447,0.0,0.0,0.0,0.0,0.0,0.0,0.0,1.6108,1.6163,0.0,0.0,0.0,1.7791,1.7256,0.0,1.7619,1.7636,1.8275,1.893,1.7547,1.6236,1.4902,1.3292,1.1665,1.0326,0.0,0.0,0.0,1.0616,0.0,0.0,0.0,0.0,0.0,0.0,0.0,0.0,1.9554,2.1328,2.3027,2.3829,2.5174,2.6277,2.6454,2.6545,2.65,2.6279,2.7469,2.8349,2.816,2.797,2.7931,2.8116,2.7862,2.7493,2.6971,2.6813,2.6465,2.5742,2.5703,2.5703,2.5703,2.5683,2.5683,2.5683,2.483,2.3959,2.3098,2.2153,2.1251,2.041,2.0398,2.0374,2.0374,2.0381,2.0381,2.0374,2.0206,1.9772,1.909,1.8074,1.7242,1.6548,1.5721,1.5391,1.5391,1.5391,1.5391,1.5391,1.2732,1.3639,1.4385,1.469,0.0,0.0,0.0,0.0,0.0,0.0,0.0,0.0,0.0,0.0,0.0,0.0,0.0,0.0,0.0,0.0,0.6592,0.6755,0.7049,0.7398,0.7821,0.8981,1.0332,0.0,0.0,0.0,0.0,0.0,0.0,0.0,0.0,0.0,0.0,0.0,1.6434,1.7164,1.7951,0.0,1.9537,1.9623,1.9754,1.977,1.8532,1.7376,1.6079,1.3801,1.2341,0.0,0.0,1.0134,0.99,0.0,1.1563,1.2714,0.0,0.0,0.0,1.6578,0.0,0.0,0.0,2.0517,2.1806,2.3036,2.368,2.4288,2.5226,2.5133,2.5016,2.5401,2.683,2.7625,2.6807,2.783,2.8819,2.9285,2.861,2.8101,2.8091,2.7789,2.7242,2.6406,2.5957,2.5703,2.5703,2.5703,2.5703,2.5703,2.5272,2.4625,2.3765,2.2878,2.2012,2.1132,2.0667,2.0444,2.0444,2.0422,2.0422,2.0441,2.0402,2.0182,1.9745,1.8436,1.7634,1.7129,1.5877,1.5391,1.5391,1.5391,1.5391,1.5391,1.3361,1.466,1.5799,1.6143,0.0,0.0,0.0,0.0,0.0,0.0,0.0,0.0,0.0,0.0,0.0,0.0,0.0,0.0,0.0,0.0,0.7458,0.766,0.7595,0.7827,0.8476,0.9234,1.0273,1.1653,0.0,0.0,0.0,0.0,0.0,0.0,0.0,0.0,0.0,0.0,0.0,1.7115,0.0,1.9955,2.0425,2.0772,2.0402,1.9558,1.8916,1.7941,1.6646,1.4576,1.3334,1.2448,1.1251,1.0651,0.0,0.0,0.0,0.0,0.0,0.0,0.0,0.0,0.0,1.7451,0.0,0.0,0.0,2.2272,2.2228,0.0,0.0,0.0,0.0,0.0,0.0,0.0,0.0,2.6863,0.0,2.9705,2.902,2.8625,2.9007,2.8236,2.7501,2.703,2.6035,2.5527,2.5684,2.5703,2.5703,2.5703,2.5703,2.5273,2.4414,2.3769,2.293,2.1894,2.1127,2.0671,2.0513,2.045,2.0472,2.0513,2.045,2.0277,1.9908,1.8501,1.7719,1.7272,1.5937,1.5391,1.5391,1.5391,1.5391,1.5391,1.4291,1.5548,1.6578,1.6821,0.0,0.0,0.0,0.0,0.0,0.0,0.0,0.0,0.0,0.0,0.0,0.0,0.0,0.0,0.9509,0.0,0.0,0.9431,0.8956,0.8963,0.9521,0.9578,1.0488,1.2305,0.0,0.0,0.0,0.0,0.0,0.0,1.7433,0.0,0.0,0.0,1.886,0.0,2.002,1.8862,0.0,1.7973,1.8404,1.8744,1.7827,1.7063,1.6219,0.0,1.3231,1.2002,0.0,1.0818,1.1031,1.1123,0.0,0.0,0.0,0.0,0.0,0.0,1.5545,0.0,1.733,0.0,1.8381,1.9106,0.0,0.0,0.0,0.0,0.0,0.0,0.0,0.0,2.294,2.44,2.5845,2.6841,2.8878,2.9666,2.8272,2.6783,2.6181,2.6869,2.5445,2.4883,2.5664,2.5703,2.5703,2.5703,2.5703,2.5273,2.4414,2.4316,2.3477,2.1894,2.1797,2.1347,2.0586,2.0585,2.0585,2.0586,2.0585,1.9706,1.8261,1.8066,1.7089,1.5664,1.5469,1.5391,1.5391,1.5391,1.5391,1.5391,1.5071,1.586,1.6796,1.7622,0.0,0.0,0.0,0.0,0.0,0.0,0.0,0.0,0.0,0.0,0.0,0.0,0.0,1.0933,0.0,0.0,0.0,0.0,0.9125,0.9071,0.9409,0.9546,1.04,1.2042,1.3076,0.0,0.0,0.0,0.0,0.0,1.8416,0.0,1.8683,0.0,1.9518,0.0,0.0,0.0,0.0,1.9527,1.9782,1.9126,1.8482,1.7653,1.6747,0.0,1.4359,0.0,0.0,0.0,0.0,0.0,0.0,0.0,0.0,0.0,0.0,0.0,0.0,0.0,1.604,0.0,1.6931,0.0,0.0,0.0,0.0,0.0,0.0,0.0,2.1318,0.0,0.0,0.0,2.5076,0.0,0.0,0.0,2.8655,2.7984,2.7557,2.766,2.6525,2.5815,2.5703,2.5703,2.5703,2.5703,2.5703,2.5527,2.5156,2.4648,2.3789,2.2598,2.2129,2.1445,2.0605,2.0605,2.0605,2.0605,2.0605,2.0176,1.9434,1.8418,1.7578,1.6816,1.5801,1.5391,1.5391,1.5391,1.5391,1.5391,1.5887,0.0,0.0,0.0,0.0,0.0,0.0,0.0,0.0,0.0,0.0,0.0,1.3043,1.2724,0.0,0.0,1.2586,1.255,0.0,0.0,1.1363,0.0,0.0,0.0,0.0,0.981,1.0429,1.1687,0.0,0.0,0.0,0.0,0.0,0.0,0.0,1.959,2.0115,0.0,2.0513,2.0673,2.1118,2.0537,1.9556,2.0894,2.0801,1.9904,1.931,1.8584,1.7759,1.6775,1.5574,0.0,1.3982,1.3461,1.3054,0.0,0.0,0.0,1.4222,0.0,0.0,0.0,0.0,0.0,0.0,0.0,0.0,0.0,0.0,0.0,0.0,0.0,0.0,0.0,0.0,2.12,0.0,2.2092,0.0,0.0,0.0,0.0,0.0,2.848,2.8143,2.7831,2.7033,2.6293,2.5723,2.5937,2.5957,2.5703,2.5937,2.5937,2.5703,2.5078,2.4316,2.3457,2.2637,2.1797,2.0957,2.0703,2.0605,2.0605,2.0605,2.0469,2.0137,1.8613,1.7852,1.748,1.5996,1.5391,1.5391,1.5391,1.5391,1.5391,1.6924,1.7691,0.0,0.0,0.0,0.0,0.0,0.0,0.0,0.0,0.0,0.0,0.0,0.0,0.0,0.0,0.0,1.687,1.5727,0.0,1.407,0.0,0.0,1.0373,0.0,0.0,1.0635,1.1402,0.0,0.0,0.0,0.0,0.0,0.0,0.0,1.9694,2.0429,2.1086,2.2504,2.4303,2.3802,2.3454,2.2971,0.0,2.0305,2.0813,1.9904,0.0,0.0,1.7257,1.6542,1.623,1.4666,0.0,0.0,0.0,0.0,0.0,0.0,0.0,0.0,1.4501,0.0,0.0,0.0,0.0,1.417,0.0,0.0,0.0,0.0,0.0,0.0,0.0,0.0,0.0,0.0,0.0,0.0,0.0,0.0,0.0,0.0,2.7141,2.671,0.0,2.6092,2.5668,2.5703,2.6504,2.6562,2.5723,2.6523,2.6543,2.5703,2.5664,2.5215,2.4355,2.3535,2.2695,2.1836,2.0977,2.0605,2.0605,2.0605,2.0117,1.9277,1.8379,1.75,1.6641,1.5742,1.5391,1.5391,1.5391,1.5391,1.5391,1.762,0.0,0.0,0.0,0.0,0.0,0.0,1.6738,0.0,0.0,0.0,0.0,0.0,1.72,1.6898,0.0,0.0,1.6773,1.6208,1.5217,0.0,0.0,0.0,1.0853,0.0,0.0,0.0,0.0,0.0,0.0,0.0,0.0,0.0,0.0,0.0,2.086,0.0,0.0,0.0,0.0,0.0,2.3175,2.3584,0.0,2.1157,2.1337,2.0732,2.0302,1.9832,1.8899,1.7976,1.7158,1.6886,1.6385,1.596,1.6159,1.642,1.6487,1.5825,1.578,1.5703,1.4944,0.0,0.0,0.0,0.0,0.0,0.0,0.0,0.0,0.0,0.0,0.0,0.0,0.0,0.0,0.0,0.0,0.0,0.0,0.0,0.0,0.0,0.0,0.0,0.0,2.6544,0.0,2.5723,2.5977,2.5996,2.5703,2.5996,2.5996,2.5703,2.5703,2.5254,2.4394,2.3535,2.2695,2.1875,2.0996,2.0605,2.0605,2.0605,2.0117,1.9238,1.8359,1.748,1.6602,1.5742,1.5391,1.5391,1.5391,1.5391,1.5391,1.7948,0.0,0.0,0.0,0.0,0.0,0.0,0.0,0.0,0.0,1.7828,0.0,1.8783,0.0,1.8072,0.0,1.825,1.7965,1.7501,1.6495,0.0,1.5216,1.3431,0.0,0.0,0.0,0.0,0.0,0.0,1.6404,0.0,0.0,0.0,0.0,0.0,2.1061,2.3289,0.0,2.4769,0.0,0.0,2.3883,0.0,0.0,2.1866,2.1446,2.1287,2.0975,2.0636,2.0234,1.947,1.8758,1.8833,1.8216,1.7534,1.7772,1.7718,1.7448,1.682,1.6834,1.6777,1.5569,1.521,1.4915,1.3839,0.0,1.3009,0.0,0.0,0.0,0.0,0.0,0.0,0.0,0.0,0.0,0.0,2.0687,0.0,0.0,0.0,0.0,0.0,0.0,0.0,0.0,0.0,0.0,0.0,2.5996,2.6016,2.5703,2.5996,2.6016,2.5703,2.5703,2.543,2.4844,2.3652,2.2832,2.2324,2.1133,2.0605,2.0605,2.0605,2.0273,1.9668,1.8496,1.7676,1.7031,1.5859,1.5391,1.5391,1.5391,1.5391,1.5391,1.8002,1.8461,0.0,0.0,1.8293,0.0,0.0,0.0,1.7591,0.0,1.8358,1.8099,1.9265,2.0062,2.0348,1.9864,2.0469,2.0447,1.952,1.8298,0.0,0.0,1.6041,1.5512,1.6003,0.0,0.0,0.0,0.0,0.0,0.0,0.0,0.0,0.0,1.9164,0.0,2.3481,2.3611,2.5308,2.7812,2.6171,2.5472,2.5303,2.3773,2.2387,2.1288,2.1558,2.1642,2.1582,2.1181,2.1039,2.0943,2.0405,2.0239,2.0054,1.9185,1.8904,1.8751,1.8012,1.7636,1.7209,1.6423,1.5968,1.5478,1.4419,1.3707,1.3398,0.0,0.0,0.0,0.0,0.0,0.0,0.0,0.0,0.0,0.0,0.0,0.0,0.0,0.0,0.0,0.0,0.0,0.0,0.0,0.0,0.0,0.0,2.6445,2.6504,2.5723,2.6504,2.6543,2.5703,2.5703,2.5703,2.5684,2.3945,2.3144,2.3144,2.1387,2.0605,2.0605,2.0605,2.0586,2.041,1.875,1.8047,1.7832,1.6172,1.5508,1.5469,1.543,1.5391,1.5391,1.8436,1.8884,1.9221,0.0,1.8898,1.8683,0.0,0.0,0.0,0.0,2.0131,2.0645,2.1686,2.1974,2.2048,2.1936,2.1638,0.0,0.0,0.0,0.0,1.8383,1.6786,1.6034,1.642,1.5384,1.511,1.5659,0.0,0.0,1.8998,0.0,0.0,0.0,0.0,0.0,2.4657,2.459,2.6181,2.853,2.6354,2.5348,2.4972,0.0,2.2659,2.1908,2.2289,2.2432,2.2324,2.1655,2.143,2.1368,2.0927,2.0797,2.0765,2.0518,2.0436,2.0289,1.9714,1.9301,1.8796,1.7961,1.6992,1.611,1.5504,1.4578,1.3962,1.4373,1.389,1.3531,1.3964,0.0,0.0,0.0,0.0,0.0,0.0,0.0,0.0,1.9745,0.0,0.0,0.0,0.0,0.0,0.0,0.0,0.0,0.0,0.0,2.5254,2.5684,2.5918,2.5937,2.5703,2.5703,2.5703,2.5684,2.3984,2.3164,2.3066,2.1367,2.0605,2.0605,2.0605,2.0234,1.9609,1.9141,1.8574,1.7969,1.7519,1.6934,1.6289,1.5644,1.5391,1.5391,1.8869,1.9354,0.0,2.0462,0.0,0.0,1.9864,1.8948,0.0,2.0848,2.0655,0.0,2.225,2.2298,2.2366,2.2688,2.2083,0.0,2.1029,0.0,0.0,1.9068,1.8434,1.8133,1.799,1.7066,0.0,1.7083,0.0,0.0,1.917,0.0,0.0,0.0,0.0,2.1907,0.0,2.5543,2.6554,2.7255,2.6362,2.5656,0.0,2.4021,2.3379,2.3034,2.3117,2.3045,2.2873,2.2424,2.2307,2.2262,2.2023,2.1852,2.1711,2.1532,2.1383,2.1165,2.0668,2.0234,1.9743,1.9041,1.8215,1.729,1.6327,1.5603,1.5146,1.5099,1.4596,1.4322,1.478,1.4146,0.0,0.0,0.0,0.0,0.0,0.0,0.0,0.0,1.9271,0.0,0.0,0.0,0.0,0.0,0.0,0.0,0.0,0.0,2.4628,2.5116,2.5508,2.5703,2.5703,2.5703,2.5703,2.5684,2.3965,2.3144,2.3086,2.1387,2.0605,2.0605,2.0605,2.0312,1.9844,1.9453,1.9004,1.8535,1.8144,1.7695,1.7207,1.6719,1.6055,1.5391,1.9649,2.0116,0.0,0.0,0.0,0.0,0.0,1.9812,0.0,2.1972,0.0,2.0213,2.1759,2.1816,2.1999,2.2544,0.0,2.16,2.1352,2.1559,2.1097,1.9751,2.0492,2.0597,1.9952,1.9171,1.8682,0.0,0.0,0.0,0.0,0.0,0.0,0.0,0.0,0.0,0.0,2.6385,2.6672,2.5439,2.6277,2.6117,2.5311,2.4502,2.419,2.417,2.3876,2.3544,2.3259,2.3212,2.3189,2.3189,2.3189,2.2996,2.2678,2.2289,2.1972,2.1639,2.1162,2.0654,2.0175,1.9732,1.9214,1.8423,1.7122,1.6717,1.6481,1.5998,1.5497,1.5354,1.6161,1.4848,0.0,0.0,0.0,0.0,0.0,0.0,0.0,0.0,0.0,0.0,0.0,0.0,0.0,0.0,0.0,0.0,0.0,0.0,2.4449,2.4567,2.5312,2.5703,2.5703,2.5703,2.5703,2.5684,2.4043,2.3242,2.3144,2.1504,2.0703,2.0605,2.0605,2.0605,2.0547,1.9785,1.9473,1.9375,1.8496,1.8164,1.8144,1.8026,1.7011,1.5703,2.1901,0.0,0.0,0.0,0.0,2.2633,2.4278,2.2527,2.1271,2.2041,2.1795,2.1506,2.142,2.1901,2.2125,2.1884,2.1779,0.0,0.0,0.0,0.0,2.1328,2.1452,2.1245,2.0646,1.9765,1.9006,0.0,0.0,0.0,0.0,0.0,0.0,0.0,0.0,0.0,2.4545,2.662,0.0,2.6368,2.6518,2.6117,2.5311,2.4502,2.419,2.419,2.4113,2.3896,2.3566,2.3282,2.3189,2.3189,2.3189,2.3165,2.3045,2.2703,2.2548,2.2295,2.1417,2.0623,2.0003,1.9878,1.8963,1.8143,1.8394,1.7783,1.7113,1.7044,1.6606,1.6019,1.5368,1.4399,1.3604,0.0,0.0,0.0,0.0,0.0,0.0,0.0,0.0,1.9939,0.0,0.0,0.0,0.0,0.0,0.0,0.0,0.0,2.4722,0.0,2.5625,2.5703,0.0,0.0,2.5703,2.5684,2.4668,2.3828,2.3164,2.2148,2.1289,2.0605,2.0605,2.0605,2.0586,2.0449,2.0371,2.0273,1.9348,1.9018,1.8964,1.815,1.7677,1.7368,0.0,0.0,0.0,0.0,0.0,0.0,0.0,2.3456,2.267,2.3063,2.2183,2.1437,2.1321,2.128,2.1316,2.1477,2.131,2.1337,2.1674,2.2041,2.2062,2.1713,2.2024,2.1913,2.1293,2.0791,2.0134,1.9171,0.0,0.0,0.0,0.0,0.0,0.0,0.0,2.3415,0.0,0.0,2.664,2.5317,2.6243,2.5878,2.474,2.4337,2.419,2.419,2.419,2.4094,2.3937,2.3774,2.3443,2.3097,2.3097,2.26,2.198,2.1803,2.1559,2.1182,2.0721,2.0135,1.9722,1.984,1.9242,1.8634,1.8861,1.8302,1.7626,1.7353,1.6879,1.6218,1.5313,1.4463,1.3919,1.4111,1.4761,0.0,0.0,0.0,1.8537,0.0,0.0,0.0,0.0,0.0,0.0,0.0,0.0,0.0,0.0,0.0,2.4448,0.0,0.0,0.0,2.5658,0.0,2.5661,2.5684,2.4824,2.3965,2.3125,2.2285,2.1426,2.0605,2.0605,2.0605,2.0605,2.0605,2.0605,2.0547,2.0067,1.9889,1.9855,1.9338,1.9169,1.9013,0.0,2.4465,0.0,0.0,2.4464,2.4113,2.4176,2.3516,2.3244,2.389,2.2373,2.1291,2.1354,2.0878,2.0754,2.1214,2.0952,2.1053,2.1721,2.2252,2.2445,2.2229,2.273,2.2731,2.2104,2.2104,2.1447,0.0,0.0,0.0,0.0,0.0,0.0,0.0,0.0,0.0,0.0,2.641,2.6253,2.4417,2.5983,2.564,2.419,2.419,2.419,2.419,2.419,2.419,2.419,2.419,2.3786,2.3217,2.2978,2.2253,2.1434,2.1127,2.0709,2.0255,1.9858,1.9477,1.9236,1.9509,1.9247,1.8912,1.8941,1.855,1.8043,1.7558,1.6951,1.6261,1.545,1.489,1.4675,1.5184,1.5246,0.0,0.0,0.0,0.0,0.0,0.0,0.0,1.9212,0.0,0.0,0.0,0.0,0.0,2.3745,0.0,0.0,0.0,0.0,2.5539,2.5576,0.0,2.5658,2.5684,2.5,2.4121,2.3105,2.2461,2.1602,2.0605,2.0605,2.0605,2.0605,2.0605,2.0586,2.0565,2.051,2.048,2.0475,2.0398,2.0381,2.0171,0.0,0.0,0.0,0.0,0.0,2.4178,2.4413,2.2942,2.2189,2.3334,2.2697,2.2003,2.1628,2.1521,2.137,2.1054,2.1006,2.1275,2.1925,2.2036,2.2604,2.3818,2.3945,2.3763,2.3346,2.3317,2.2586,0.0,0.0,2.0393,2.0662,0.0,0.0,0.0,0.0,2.4313,2.5894,2.7017,2.6648,2.5346,2.6245,2.564,2.419,2.419,2.419,2.419,2.419,2.419,2.419,2.419,2.4153,2.3913,2.2874,2.2971,2.3185,2.1914,2.1489,2.1091,1.9464,1.8735,1.8489,1.8467,1.82,1.8142,1.8992,1.8771,1.8324,1.806,1.7188,1.6261,1.545,1.5847,1.6338,1.6675,1.7646,1.8884,2.038,0.0,2.1118,2.0682,0.0,0.0,2.0486,2.2386,0.0,0.0,2.3008,0.0,0.0,0.0,0.0,2.6346,2.5819,2.5504,2.5508,2.5636,2.5683,2.5703,2.5625,2.4746,2.3184,2.3105,2.2168,2.0605,2.0605,2.0605,2.0605,2.0605,2.0564,2.0508,2.0435,2.0418,2.0402,2.0328,2.0314,2.0288,0.0,0.0,2.6701,2.5614,2.4824,2.4216,2.39,2.279,2.2207,2.2671,2.2245,2.1928,2.2003,2.1764,2.1538,2.1368,2.115,2.1119,2.1358,2.1773,2.2269,2.2828,2.3638,2.4008,2.3857,2.4302,2.3906,0.0,0.0,0.0,0.0,0.0,2.2036,2.4125,2.4873,2.5809,2.685,2.7424,2.7083,2.6098,2.5933,2.5199,2.419,2.419,2.419,2.419,2.419,2.419,2.4135,2.3639,2.3492,2.3363,2.2707,2.227,2.1775,2.058,2.0119,1.973,1.8568,1.8141,1.8076,1.825,1.8528,1.8905,1.9499,1.9369,1.9114,1.9001,1.7906,1.6802,1.6136,1.5885,1.6198,1.7407,1.8039,1.8991,2.0734,0.0,0.0,2.1748,0.0,2.1498,0.0,2.2056,0.0,0.0,0.0,0.0,0.0,0.0,0.0,2.6602,0.0,2.6257,2.6331,2.5863,2.566,2.5703,2.5703,2.4805,2.3144,2.3144,2.2207,2.0605,2.0562,2.054,2.0539,2.0506,2.0453,2.0432,2.0361,2.0332,2.0341,2.0299,2.0296,2.0306,2.732,2.7347,2.7029,2.5541,2.4831,2.4201,2.3224,2.2529,2.2135,2.2282,2.1899,2.1794,2.2254,2.2003,2.1794,2.1794,2.1554,2.1385,2.1385,2.1842,2.2167,2.2411,2.3353,0.0,2.4289,2.4809,2.4778,2.4141,2.329,2.2739,2.2445,2.2309,2.3293,2.5253,2.6033,2.6774,2.7464,2.7702,2.72,2.619,2.5642,2.4925,2.419,2.419,2.419,2.419,2.419,2.419,2.4116,2.3547,2.3364,2.3253,2.2551,2.206,2.1505,2.0314,1.9728,1.9333,1.8594,1.8211,1.809,1.835,1.8876,1.9455,1.9792,1.9878,1.9802,1.9647,1.8593,1.7558,1.7076,1.6491,1.6609,1.8101,1.847,1.914,2.0895,2.1688,0.0,2.2226,2.1786,2.1496,2.1539,2.2289,0.0,0.0,0.0,0.0,0.0,0.0,0.0,0.0,0.0,0.0,2.6863,2.6056,2.5659,2.5703,2.5703,2.4785,2.3086,2.2598,2.1718,2.0565,2.0515,2.0484,2.0472,2.0425,2.0398,2.0381,2.0311,2.0295,2.0302,2.0296,2.0312,2.0312,2.686,2.6708,2.6234,2.4777,2.4523,2.4002,2.2547,2.1899,2.1764,2.2237,2.1899,2.1794,2.2254,2.2282,2.2282,2.2282,2.2282,2.2282,2.2282,2.2282,2.262,2.3359,2.341,2.3823,2.4773,2.4788,2.4919,2.5166,2.45,2.4289,2.445,2.3996,2.4702,2.6374,2.6402,2.6923,2.7787,2.7787,2.6869,2.5421,2.5403,2.4925,2.419,2.419,2.419,2.419,2.419,2.419,2.419,2.419,2.419,2.3928,2.246,2.2767,2.3386,2.1978,2.1248,2.0714,1.999,1.9208,1.8585,1.8603,1.8947,1.939,1.9706,2.0146,2.0307,1.9717,1.9141,1.8655,1.8171,1.8052,1.8249,1.8817,1.9295,2.0016,2.1299,2.1579,0.0,2.2053,2.2387,2.2443,2.2127,2.3889,0.0,0.0,0.0,0.0,0.0,2.7748,2.7807,2.7788,2.7134,0.0,2.6794,2.6067,2.5703,2.5703,2.5703,2.4785,2.3047,2.1387,2.0583,2.0508,2.0508,2.045,2.0391,2.041,2.0357,2.0294,2.0288,2.0295,2.0292,2.0312,2.0312,2.0312,2.7604,2.7469,2.6826,2.4862,2.4506,2.3985,2.253,2.2163,2.2135,2.2282,2.218,2.2135,2.2282,2.231,2.231,2.231,2.231,2.231,2.231,2.231,2.2412,2.2649,2.3122,2.3553,2.3838,2.4324,2.4628,2.4713,2.3819,2.3671,2.4232,2.4647,2.5751,2.7406,2.7406,2.7556,2.775,2.7218,2.6374,2.5348,2.4795,2.4428,2.419,2.419,2.419,2.419,2.419,2.419,2.419,2.419,2.419,2.4077,2.3382,2.3412,2.3466,2.2286,2.1834,2.1568,2.083,2.0028,1.9422,1.9422,1.9909,2.0372,2.025,2.0736,2.1028,2.0175,1.9863,1.9495,1.8717,1.8801,1.9082,1.9317,1.9967,2.0767,2.1778,2.2152,2.2461,2.2806,2.3239,2.344,2.3328,2.4566,0.0,0.0,0.0,0.0,0.0,2.7392,2.8236,2.7082,2.6928,0.0,2.6947,2.6113,2.5703,2.5703,2.5703,2.5098,2.3926,2.2203,2.1414,2.1347,2.0667,2.0347,2.0322,2.0328,2.0327,2.0299,2.0299,2.0296,2.0312,2.0312,2.0312,2.0312,2.7199,2.7215,2.6691,2.4458,2.4337,2.3985,2.253,2.231,2.231,2.231,2.231,2.231,2.231,2.231,2.231,2.231,2.231,2.231,2.231,2.231,2.231,2.231,2.275,2.3122,2.3393,2.3849,2.4205,2.4506,2.4002,2.4137,2.4896,2.5544,2.6479,2.7629,2.7629,2.7349,2.6869,2.6355,2.5676,2.4925,2.4392,2.419,2.419,2.419,2.419,2.419,2.419,2.419,2.419,2.419,2.419,2.417,2.3937,2.3896,2.3726,2.293,2.2568,2.2329,2.1884,2.1164,2.055,2.055,2.1028,2.1487,2.1476,2.1738,2.1811,2.1067,2.0799,2.0489,1.9773,1.9847,2.0073,2.0273,2.0863,2.1566,2.2356,2.2694,2.2915,2.2977,2.3327,2.3598,2.3667,2.4325,2.4836,0.0,0.0,0.0,0.0,2.7641,2.8589,2.7264,2.7362,2.7299,2.6992,2.6133,2.5703,2.5703,2.5371,2.4902,2.4313,2.2916,2.2269,2.2177,2.1554,2.1256,2.1241,2.124,2.1043,2.0773,2.1119,2.1043,2.0754,2.0754,2.0966,2.1158,2.5964,2.6234,2.6015,2.3849,2.4036,2.3985,2.253,2.231,2.2327,2.2378,2.2395,2.2412,2.2462,2.2412,2.2395,2.2395,2.2355,2.2338,2.231,2.2338,2.2349,2.231,2.2338,2.2643,2.3308,2.3325,2.3676,2.4384,2.4758,2.534,2.608,2.6448,2.6819,2.7114,2.7114,2.6472,2.5403,2.5403,2.4944,2.419,2.419,2.419,2.419,2.419,2.419,2.419,2.419,2.419,2.419,2.419,2.419,2.419,2.419,2.419,2.4151,2.3816,2.3428,2.3088,2.3088,2.2501,2.1894,2.1894,2.2189,2.2635,2.3122,2.2972,2.2626,2.2245,2.1915,2.1552,2.115,2.1118,2.1212,2.1513,2.1922,2.2426,2.3059,2.3206,2.3124,2.2741,2.2959,2.3194,2.3394,2.3531,2.4094,2.53,0.0,0.0,0.0,2.8145,2.8728,2.8043,2.8073,2.7734,2.6914,2.6113,2.5703,2.5684,2.4863,2.4449,2.4369,2.3544,2.3104,2.2998,2.2914,2.2863,2.2793,2.2793,2.2312,2.1677,2.2485,2.2293,2.1581,2.1523,2.2043,2.2562,2.6505,2.6573,2.6167,2.4509,2.4388,2.3985,2.253,2.231,2.2513,2.3071,2.3139,2.3342,2.39,2.3477,2.3139,2.3139,2.2798,2.2527,2.2293,2.2721,2.2773,2.2338,2.25,2.2586,2.2564,2.2564,2.2756,2.3116,2.4025,2.4567,2.4761,2.5456,2.5974,2.6261,2.6261,2.5941,2.5403,2.5403,2.4944,2.419,2.419,2.419,2.419,2.419,2.419,2.419,2.419,2.419,2.419,2.419,2.419,2.419,2.419,2.419,2.417,2.4094,2.4004,2.3914,2.3914,2.3327,2.2721,2.2721,2.2607,2.2695,2.3426,2.3323,2.3052,2.2954,2.2678,2.2307,2.1927,2.2096,2.2235,2.1995,2.2658,2.3249,2.353,2.3707,2.3795,2.3819,2.4147,2.4395,2.4459,2.4464,2.4447,2.4358,0.0,2.5189,2.5605,2.674,2.7316,2.7189,2.6616,2.6211,2.6016,2.5801,2.5703,2.5703,2.5443,2.5315,2.5266,2.4355,2.3921,2.3857,2.3118,2.2819,2.2793,2.2793,2.2677,2.2504,2.2716,2.2658,2.2408,2.1754,2.2043,2.2562,2.6251,2.6471,2.6218,2.4777,2.4763,2.4611,2.3477,2.3308,2.3444,2.3849,2.3883,2.4052,2.4472,2.43,2.419,2.419,2.3264,2.2634,2.25,2.294,2.3063,2.2738,2.284,2.2865,2.2695,2.2712,2.2781,2.2923,2.3679,2.4212,2.4587,2.5177,2.5556,2.5732,2.5732,2.5403,2.4832,2.4832,2.4593,2.419,2.419,2.419,2.419,2.419,2.419,2.419,2.419,2.419,2.419,2.419,2.419,2.419,2.419,2.419,2.419,2.419,2.419,2.419,2.419,2.3878,2.3547,2.3547,2.3397,2.3389,2.3826,2.3671,2.3414,2.3414,2.3165,2.2855,2.2635,2.278,2.2905,2.282,2.2977,2.3291,2.3862,2.3729,2.3768,2.4284,2.4852,2.525,2.5333,2.5333,2.5264,2.5078,2.4953,2.5205,2.5957,2.615,2.6448,2.6888,2.6501,2.6094,2.5703,2.5703,2.5683,2.5659,2.5629,2.5564,2.5493,2.4988,2.4725,2.4679,2.4167,2.3947,2.3947,2.3947,2.3735,2.3437,2.3793,2.3716,2.334,2.2851,2.3216,2.3697,2.5896,2.6268,2.6268,2.4881,2.5186,2.5355,2.4625,2.4506,2.4557,2.4644,2.4661,2.4726,2.4828,2.506,2.5207,2.5264,2.3954,2.3145,2.3145,2.3389,2.3501,2.3407,2.3307,2.3236,2.3189,2.3236,2.3277,2.3277,2.361,2.4118,2.4787,2.5079,2.5219,2.5219,2.5219,2.4832,2.419,2.419,2.419,2.419,2.419,2.419,2.419,2.419,2.419,2.419,2.419,2.419,2.419,2.4247,2.4247,2.4266,2.4284,2.4284,2.4284,2.4284,2.4284,2.4266,2.4209,2.419,2.419,2.419,2.419,2.419,2.419,2.3976,2.3774,2.3774,2.3522,2.3277,2.3277,2.3277,2.3369,2.3649,2.324,2.3196,2.4079,2.3712,2.3631,2.442,2.5127,2.5622,2.58,2.5816,2.5887,2.6092,2.5512,2.5569,2.6578,2.598,2.5959,2.6696,2.6774,2.6445,2.5703,2.5683,2.5659,2.5601,2.557,2.5517,2.5398,2.5383,2.5346,2.5303,2.5303,2.5303,2.5303,2.5303,2.4909,2.436,2.5024,2.4889,2.4264,2.4149,2.4601,2.5053,2.6539,2.6623,2.642,2.5575,2.5524,2.5355,2.4625,2.4506,2.4712,2.5355,2.5439,2.5676,2.6285,2.5859,2.5658,2.6004,2.5444,2.5084,2.5154,2.5091,2.4813,2.4247,2.3817,2.35,2.3212,2.3477,2.361,2.361,2.3976,2.4186,2.4315,2.4354,2.4392,2.4392,2.4392,2.4318,2.419,2.419,2.419,2.419,2.419,2.419,2.419,2.419,2.419,2.419,2.419,2.419,2.4228,2.4393,2.4444,2.4478,2.4654,2.47,2.47,2.47,2.47,2.4623,2.4284,2.419,2.419,2.419,2.419,2.419,2.419,2.417,2.4113,2.4113,2.3876,2.361,2.361,2.361,2.3649,2.3692,2.3988,2.4208,2.4209,2.44,2.4538,2.451,2.4751,2.4949,2.4978,2.4978,2.5061,2.5262,2.5222,2.535,2.5765,2.5716,2.5742,2.5878,2.5898,2.584,2.5703,2.5637,2.5605,2.5601,2.5498,2.5421,2.5406,2.5348,2.5303,2.5303,2.5303,2.5303,2.5303,2.5303,2.5226,2.5139,2.5245,2.5207,2.5024,2.436,2.4601,2.5053,2.6691,2.6691,2.659,2.6251,2.6184,2.6082,2.5727,2.5676,2.5795,2.615,2.6184,2.6319,2.6657,2.6774,2.6904,2.711,2.7281,2.7411,2.7435,2.6575,2.592,2.5602,2.5387,2.499,2.4407,2.4114,2.3976,2.3976,2.4113,2.419,2.419,2.419,2.419,2.419,2.419,2.419,2.419,2.419,2.419,2.4209,2.4321,2.4357,2.4357,2.4357,2.4357,2.4339,2.4247,2.4266,2.4375,2.4461,2.4559,2.467,2.4775,2.4804,2.4804,2.4804,2.4804,2.476,2.4559,2.4528,2.4528,2.4528,2.4528,2.4528,2.4528,2.4528,2.4528,2.4528,2.4407,2.4264,2.4136,2.4136,2.4116,2.3978,2.3824,2.3892,2.4301,2.4169,2.4222,2.471,2.4864,2.4943,2.5068,2.5091,2.5148,2.5249,2.5356,2.5461,2.5581,2.5661,2.5703,2.5703,2.5661,2.5657,2.5657,2.557,2.5535,2.5484,2.5428,2.5376,2.5357,2.5313,2.5303,2.5303,2.5303,2.5303,2.5303,2.5303,2.5303,2.5303,2.5303,2.5303,2.5264,2.4889,2.4986,2.5187,2.6691,2.6691,2.6691,2.6691,2.6691,2.6691,2.6691,2.6691,2.6691,2.6691,2.6691,2.6691,2.6691,2.7241,2.7695,2.7897,2.843,2.8815,2.8994,2.7838,2.7071,2.6888,2.6704,2.6227,2.5421,2.4979,2.4667,2.4483,2.4667,2.4667,2.4483,2.4483,2.4373,2.419,2.4247,2.4266,2.4266,2.4321,2.4321,2.4284,2.4495,2.4545,2.4512,2.4543,2.4545,2.4478,2.4375,2.441,2.4512,2.4588,2.4727,2.4855,2.4896,2.4929,2.4929,2.4929,2.4929,2.4902,2.4818,2.4804,2.4804,2.4804,2.4804,2.4804,2.4804,2.4804,2.4804,2.4804,2.4804,2.476,2.4591,2.4559,2.4528,2.4357,2.3874,2.3754,2.4468,2.411,2.4077,2.491,2.5034,2.5133,2.5322,2.5371,2.5401,2.5441,2.5543,2.5605,2.5611,2.5662,2.5703,2.5703,2.5634,2.5601,2.5601,2.5526,2.5459,2.5406,2.5376,2.5357,2.5303,2.5303,2.5303,2.5303,2.5303,2.5303,2.5303,2.5303,2.5303,2.5303,2.5303,2.5303,2.5303,2.5303,2.5303,2.5303,2.6691,2.6691,2.6691,2.6691,2.6691,2.6691,2.6691,2.6691,2.6691,2.6691,2.6691,2.6691,2.6691,2.6758,2.7083,2.784,2.7954,2.8255,2.897,2.8883,2.8503,2.7732,2.6998,2.6227,2.5421,2.6062,2.6062,2.5311,2.6062,2.6043,2.5311,2.5311,2.4905,2.4209,2.4393,2.4478,2.4495,2.467,2.4639,2.4495,2.47,2.467,2.4528,2.47,2.4654,2.4528,2.47,2.4639,2.4543,2.4858,2.4974,2.501,2.5203,2.5253,2.5253,2.5253,2.5253,2.5201,2.4869,2.4804,2.4804,2.4804,2.4804,2.4804,2.4804,2.4804,2.4804,2.4804,2.4804,2.479,2.4775,2.4775,2.4775,2.476,2.4704,2.47,2.4775,2.4834,2.491,2.4991,2.5163,2.5303,2.5395,2.5398,2.5459,2.5587,2.5598,2.5633,2.5683,2.5703,2.5703,2.5703,2.5634,2.5601,2.5601,2.5463,2.5394,2.5398,2.5339,2.5293,2.5303,2.5303,2.5303,2.5303,2.5303,2.5303,2.5303,2.5303,2.5303,2.5303,2.5303,2.5303,2.5303,2.5303,2.5303,2.5303,2.6691,2.6691,2.6691,2.6691,2.6691,2.6774,2.7019,2.7051,2.7147,2.7409,2.7439,2.7348,2.7083,2.7482,2.7787,2.7897,2.8326,2.87,2.8994,2.8994,2.8847,2.8576,2.7769,2.72,2.6888,2.6704,2.6209,2.5403,2.6209,2.619,2.5403,2.5403,2.5256,2.4925,2.4633,2.4495,2.4512,2.4716,2.476,2.47,2.4864,2.4872,2.4818,2.4885,2.4872,2.4804,2.4799,2.4795,2.4831,2.4962,2.5088,2.5203,2.5274,2.5303,2.5303,2.5303,2.5303,2.5264,2.5138,2.5115,2.5115,2.5115,2.5115,2.5115,2.5115,2.5115,2.5115,2.5115,2.5115,2.5061,2.4956,2.4911,2.4891,2.4799,2.4804,2.4836,2.4977,2.5037,2.5111,2.5298,2.5381,2.5434,2.5465,2.5508,2.5547,2.5601,2.5636,2.5662,2.5703,2.5703,2.5703,2.5703,2.5598,2.5543,2.5543,2.5447,2.5368,2.5339,2.5313,2.5303,2.5303,2.5303,2.5303,2.5303,2.5303,2.5303,2.5303,2.5303,2.5303,2.5303,2.5303,2.5303,2.5303,2.5303,2.5303,2.5303,2.6691,2.6691,2.6691,2.6691,2.6691,2.6858,2.7241,2.7303,2.7439,2.784,2.7897,2.7794,2.75,2.7946,2.8183,2.8075,2.8533,2.8863,2.8994,2.8994,2.8994,2.8994,2.8484,2.8062,2.7805,2.7512,2.6961,2.6156,2.6961,2.6943,2.6156,2.5897,2.5621,2.5366,2.485,2.4591,2.4607,2.4842,2.4923,2.4883,2.503,2.5065,2.501,2.5077,2.5046,2.4998,2.4975,2.4968,2.501,2.5077,2.5192,2.5303,2.5303,2.5303,2.5303,2.5303,2.5303,2.5303,2.5303,2.5303,2.5303,2.5303,2.5303,2.5303,2.5303,2.5322,2.533,2.533,2.5337,2.5327,2.5188,2.5159,2.5129,2.5023,2.5031,2.5077,2.5219,2.5236,2.529,2.5479,2.5493,2.5517,2.5535,2.5567,2.5605,2.5633,2.5662,2.5703,2.5703,2.5703,2.5683,2.5662,2.557,2.5503,2.5477,2.5406,2.5348,2.5303,2.5303,2.5303,2.5303,2.5303,2.5303,2.5303,2.5303,2.5303,2.5303,2.5303,2.5303,2.5303,2.5303,2.5303,2.5303,2.5303,2.5303,2.5303,2.6691,2.6691,2.6691,2.6691,2.6691,2.6841,2.7224,2.7303,2.7457,2.7869,2.7915,2.7915,2.7915,2.7915,2.8065,2.8368,2.842,2.8565,2.8975,2.8994,2.8994,2.8994,2.8994,2.8631,2.7824,2.8594,2.8613,2.7787,2.8613,2.8594,2.7769,2.6979,2.6172,2.5404,2.4982,2.4804,2.4851,2.5149,2.5192,2.5022,2.5214,2.5173,2.5022,2.5224,2.5192,2.5034,2.5224,2.5163,2.5034,2.5224,2.5303,2.5303,2.5303,2.5303,2.5303,2.5303,2.5303,2.5303,2.5303,2.5303,2.5303,2.5303,2.5303,2.5303,2.5313,2.5354,2.5394,2.5394,2.544,2.5493,2.5493,2.5493,2.5493,2.5493,2.5493,2.5493,2.5493,2.5493,2.5493,2.5493,2.5493,2.5535,2.5598,2.5601,2.5633,2.5683,2.5703,2.5703,2.5703,2.5703,2.5662,2.5603,2.5601,2.552,2.5394,2.5339,2.5303,2.5303,2.5303,2.5303,2.5303,2.5303,2.5303,2.5303,2.5303,2.5303,2.5303,2.5303,2.5303,2.5303,2.5303,2.5303,2.5303,2.5303,2.5303,2.5303,2.6691,2.6691,2.6691,2.6691,2.6939,2.7272,2.7648,2.8408,2.9071,2.9468,3.001,3.0277,3.0024,3.0224,3.0067,2.9313,2.9501,2.9466,2.903,2.9549,2.9604,2.9012,2.8994,2.8906,2.865,2.8865,2.8613,2.7787,2.8613,2.8594,2.7787,2.7548,2.738,2.725,2.6137,2.6052,2.6694,2.571,2.5609,2.6069,2.5523,2.5264,2.5214,2.5274,2.5264,2.5214,2.5274,2.5264,2.5214,2.5274,2.5303,2.5303,2.5303,2.5303,2.5303,2.5303,2.5303,2.5313,2.5363,2.5379,2.5371,2.536,2.5379,2.5376,2.5428,2.5465,2.5463,2.5463,2.5498,2.5493,2.5493,2.5493,2.5493,2.5493,2.5493,2.5526,2.5561,2.5564,2.5595,2.5634,2.5636,2.5658,2.5662,2.5662,2.5683,2.5703,2.5703,2.5703,2.5703,2.5659,2.5629,2.5601,2.5517,2.5441,2.5406,2.5376,2.5357,2.5303,2.5303,2.5303,2.5303,2.5303,2.5303,2.5303,2.5303,2.5303,2.5303,2.5303,2.5303,2.5303,2.5303,2.5303,2.5303,2.5303,2.5303,2.5303,2.6691,2.6691,2.6691,2.6691,2.6906,2.7359,2.8229,2.8959,2.9719,3.0564,3.1091,3.1309,3.1128,3.1283,3.1107,3.0374,3.0259,2.9989,2.9512,2.9934,3.0118,2.9971,2.9953,2.9659,2.8994,2.8994,2.8778,2.8282,2.8778,2.8737,2.8264,2.7952,2.7922,2.8035,2.6958,2.6877,2.7536,2.6691,2.664,2.7063,2.6544,2.6332,2.6332,2.6332,2.612,2.5813,2.5813,2.5591,2.5303,2.5303,2.5303,2.5303,2.5303,2.5303,2.5313,2.533,2.5339,2.5346,2.5421,2.5441,2.5447,2.5463,2.5465,2.5453,2.5484,2.5531,2.5543,2.5543,2.5561,2.557,2.557,2.557,2.557,2.557,2.557,2.5598,2.5634,2.5636,2.5659,2.5703,2.5703,2.5703,2.5703,2.5703,2.5703,2.5703,2.5703,2.5703,2.5703,2.5636,2.5595,2.5561,2.5459,2.5383,2.5354,2.5363,2.5348,2.5303,2.5303,2.5303,2.5303,2.5303,2.5303,2.5303,2.5303,2.5303,2.5303,2.5303,2.5303,2.5303,2.5303,2.5303,2.5303,2.5303,2.5303,2.5303,2.6775,2.6758,2.6775,2.691,2.6943,2.7491,2.903,2.9354,2.9914,3.1309,3.1568,3.1604,3.1604,3.1604,3.1586,3.1513,3.076,3.032,3.032,3.0375,3.0705,3.1366,3.1458,3.0797,2.9255,2.9122,2.9122,2.9195,2.9067,2.9053,2.9131,2.8327,2.8056,2.8241,2.761,2.7528,2.7854,2.7904,2.7928,2.8005,2.7928,2.789,2.789,2.789,2.7409,2.6717,2.664,2.6101,2.5399,2.5322,2.5303,2.5303,2.5303,2.5293,2.5331,2.5376,2.5406,2.5415,2.5479,2.5517,2.5535,2.5598,2.5561,2.5526,2.5526,2.5561,2.5605,2.5605,2.566,2.5703,2.5703,2.5703,2.5703,2.5703,2.5703,2.5703,2.5703,2.5703,2.5703,2.5703,2.5703,2.5703,2.5703,2.5703,2.5703,2.5683,2.5683,2.5683,2.5683,2.5629,2.5554,2.5484,2.5441,2.5354,2.5303,2.5303,2.5303,2.5303,2.5303,2.5303,2.5303,2.5303,2.5303,2.5303,2.5303,2.5303,2.5303,2.5303,2.5303,2.5303,2.5303,2.5303,2.5303,2.5303,2.5303,2.5303,2.7235,2.7178,2.7476,2.8408,2.8805,2.9319,3.0348,3.1275,3.1963,3.2294,3.2889,3.3275,3.3275,3.3275,3.3036,3.2394,3.1604,3.1127,3.1127,3.1733,3.188,3.1403,3.2008,3.188,3.0889,3.0265,3.0246,3.087,2.9622,2.9425,3.0238,2.9421,2.9233,2.9535,2.8783,2.8949,2.9709,2.8437,2.8255,2.8775,2.814,2.789,2.789,2.789,2.7775,2.7525,2.6851,2.6486,2.6217,2.5534,2.5303,2.5303,2.5303,2.5339,2.5383,2.5406,2.5441,2.5484,2.5558,2.557,2.5598,2.566,2.5662,2.5659,2.5659,2.5662,2.5683,2.5683,2.5683,2.5703,2.5703,2.5703,2.5703,2.5703,2.5703,2.5703,2.5703,2.5703,2.5703,2.5703,2.5703,2.5703,2.5703,2.5703,2.5683,2.5631,2.5611,2.5601,2.5551,2.5473,2.5441,2.5415,2.5354,2.5313,2.5303,2.5303,2.5303,2.5303,2.5303,2.5303,2.5303,2.5303,2.5303,2.5303,2.5303,2.5303,2.5303,2.5303,2.5303,2.5303,2.5303,2.5303,2.5303,2.5303,2.5303,2.5303,2.7932,2.8167,2.8659,2.9526,2.9512,2.9825,3.1263,3.1647,3.2119,3.3046,3.3532,3.3807,3.3807,3.3807,3.3476,3.2687,3.2228,3.1971,3.1971,3.2375,3.2596,3.254,3.2944,3.2981,3.254,3.177,3.1366,3.1384,3.0558,3.0503,3.1145,3.0362,3.0208,3.0585,2.9746,2.9767,3.034,2.9467,2.9333,2.9679,2.9256,2.9083,2.9083,2.9083,2.8832,2.8409,2.7967,2.7274,2.6524,2.6082,2.5678,2.5337,2.5357,2.5398,2.544,2.5498,2.5531,2.5561,2.5633,2.5658,2.5659,2.5683,2.5703,2.5703,2.5703,2.5703,2.5703,2.5703,2.5703,2.5703,2.5703,2.5703,2.5703,2.5703,2.5703,2.5703,2.5703,2.5703,2.5703,2.5703,2.5703,2.5703,2.5703,2.5703,2.5662,2.5603,2.5601,2.5567,2.5493,2.5441,2.5406,2.5398,2.533,2.5303,2.5303,2.5303,2.5303,2.5303,2.5303,2.5303,2.5303,2.5303,2.5303,2.5303,2.5303,2.5303,2.5303,2.5303,2.5303,2.5303,2.5303,2.5303,2.5303,2.5303,2.5303,2.5303,2.8858,2.9368,3.0015,3.0588,3.013,3.0317,3.2107,3.1809,3.1974,3.3597,3.3807,3.3807,3.3807,3.3807,3.3532,3.2871,3.2816,3.2816,3.2816,3.2816,3.3109,3.377,3.3807,3.3807,3.3807,3.3146,3.2485,3.1806,3.1587,3.1686,3.2072,3.1289,3.1091,3.135,3.061,3.033,3.0398,3.0398,3.0398,3.0398,3.0398,3.0398,3.0398,3.0398,2.9948,2.9294,2.914,2.8121,2.6813,2.6813,2.6399,2.582,2.5669,2.5673,2.5749,2.5807,2.5839,2.5886,2.6093,2.6035,2.5918,2.5918,2.5801,2.5703,2.5703,2.5703,2.5703,2.5703,2.5703,2.5703,2.5703,2.5703,2.5703,2.5703,2.5703,2.5703,2.5703,2.582,2.5879,2.5723,2.5703,2.5703,2.5703,2.5683,2.5659,2.5595,2.5567,2.5543,2.5477,2.5408,2.5383,2.5376,2.5321,2.5303,2.5303,2.5303,2.5303,2.5303,2.5303,2.5303,2.5303,2.5303,2.5303,2.5303,2.5303,2.5303,2.5303,2.5303,2.5303,2.5303,2.5303,2.5303,2.5303,2.5303,2.5303,2.5303,3.0043,3.0374,3.1055,3.2119,3.2208,3.2454,3.3414,3.3496,3.3496,3.377,3.3807,3.3807,3.3807,3.3807,3.3752,3.3642,3.3642,3.3642,3.3642,3.3642,3.3697,3.3807,3.3807,3.3807,3.3807,3.3697,3.3587,3.3476,3.2302,3.2241,3.3162,3.2612,3.2095,3.1642,3.1527,3.1078,3.0398,3.0398,3.0398,3.0398,3.0398,3.0398,3.0398,3.0398,3.0321,3.014,2.9371,2.8506,2.7717,2.7717,2.7701,2.7524,2.6753,2.6601,2.671,2.6715,2.677,2.6972,2.7734,2.7402,2.6816,2.6816,2.6269,2.5703,2.5703,2.5703,2.5703,2.5703,2.5703,2.5703,2.5703,2.5703,2.5703,2.5703,2.5703,2.5703,2.5703,2.6348,2.6543,2.5781,2.5703,2.5703,2.5703,2.5658,2.5595,2.5526,2.5471,2.5406,2.533,2.5322,2.5313,2.5313,2.5293,2.5303,2.5303,2.5303,2.5303,2.5303,2.5303,2.5303,2.5303,2.5303,2.5303,2.5303,2.5303,2.5303,2.5303,2.5303,2.5303,2.5303,2.5303,2.5303,2.5303,2.5303,2.5303,2.5303,3.126,3.1761,3.2407,3.3148,3.2908,3.2871,3.3678,3.3421,3.3293,3.3733,3.3807,3.3807,3.3807,3.3807,3.3807,3.3807,3.3807,3.3807,3.3807,3.3807,3.3807,3.3807,3.3807,3.3807,3.3807,3.3935,3.3935,3.3807,3.3369,3.3567,3.4338,3.3606,3.3206,3.3064,3.2122,3.1487,3.1102,3.0609,3.0398,3.0398,3.0398,3.0398,3.0398,3.0398,3.0398,3.034,2.9967,2.9294,2.8585,2.8599,2.8368,2.7997,2.7653,2.7602,2.7672,2.7672,2.7694,2.7812,2.8203,2.8027,2.7734,2.7734,2.7441,2.7148,2.7148,2.6777,2.6289,2.5801,2.5703,2.5703,2.5703,2.6094,2.6426,2.6426,2.6836,2.7148,2.7148,2.7051,2.6855,2.6465,2.6426,2.6601,2.7041,2.7071,2.6802,2.621,2.6144,2.5882,2.5332,2.5303,2.5303,2.5303,2.5303,2.5303,2.5303,2.5303,2.5303,2.5303,2.5303,2.5303,2.5303,2.5303,2.5303,2.5303,2.5303,2.5303,2.5303,2.5303,2.5303,2.5303,2.5303,2.5303,2.5303,2.5303,2.5303,2.5303]}]]